     2              OBSERVATION DATA    G (GPS)             RINEX VERSION / TYPE
ASRINEXO V2.9.9 LH AIUB 01-FEB- 1 16:25                     PGM / RUN BY / DATE
BERN ASHTECH Z-12                                           COMMENT
BIT 2 OF LLI (+4) FLAGS DATA COLLECTED UNDER "AS" CONDITION COMMENT
USNB                                                        MARKER NAME
                                                            OBSERVER / AGENCY
? ASHTECH Z-XII3 1D15                                       REC # / TYPE / VERS
? CHOKE RING                                                ANT # / TYPE
  1112164.2900 -4842935.1700  3985514.7500                  APPROX POSITION XYZ
        0.0000        0.0000        0.0000                  ANTENNA: DELTA H/E/N
     1     1                                                WAVELENGTH FACT L1/2
     5    C1    L1    L2    P1    P2                        # / TYPES OF OBSERV
  2000     4    20     0     0   30.000000                  TIME OF FIRST OBS
                                                            END OF HEADER
 00  4 20  0  0 30.0000000  0  6 24 23 17 06 26 10
  24068549.786    -3575321.383 7  -2755863.85745  24068548.088    24068565.4904
  23309991.667    -8553595.713 8  -6657093.35646  23310000.761    23310013.6574
  21150266.305   -18537940.971 9 -14434621.09947  21150270.113    21150280.6654
  21705847.130   -17544506.471 8 -13655910.02047  21705850.648    21705861.1714
  19940602.483   -25617247.865 9 -19946638.79748  19940605.487    19940614.3484
  22863384.354    -9632512.309 8  -7468599.10846  22863384.329    22863396.3604
 00  4 20  0  1  0.0000000  0  6 24 23 17 06 26 10
  24086020.981    -3483445.311 7  -2684272.32245  24086031.869    24086050.4434
  23298188.384    -8615666.522 8  -6705460.02246  23298189.319    23298201.2444
  21137187.690   -18606665.028 9 -14488172.22547  21137192.327    21137203.1044
  21717739.848   -17482020.755 9 -13607219.89647  21717741.380    21717752.1624
  19941166.727   -25614277.694 9 -19944324.34848  19941170.440    19941179.5074
  22877391.004    -9558925.251 8  -7411258.57246  22877388.391    22877400.2894
 00  4 20  0  1 30.0000000  0  6 24 23 17 06 26 10
  24103552.182    -3391382.573 7  -2612535.28845  24103550.751    24103566.9384
  23286395.889    -8677630.466 8  -6753743.40446  23286397.504    23286410.9664
  21124165.766   -18675109.654 9 -14541505.59947  21124167.681    21124178.4734
  21729711.239   -17419082.519 8 -13558177.14947  21729716.781    21729728.6994
  19941847.757   -25610703.623 9 -19941539.32548  19941850.753    19941859.4964
  22891401.497    -9485277.688 8  -7353870.87346  22891404.008    22891415.1094
 00  4 20  0  2  0.0000000  0  6 24 23 17 06 26 10
  24121100.570    -3299155.373 7  -2540670.02445  24121101.176    24121117.0244
  23274624.529    -8739484.512 8  -6801941.16046  23274626.920    23274640.4274
  21111200.405   -18743250.528 9 -14594602.29747  21111201.254    21111211.2814
  21741775.864   -17355706.229 8 -13508793.08847  21741776.869    21741789.2034
  19942642.737   -25606530.341 9 -19938287.39048  19942644.930    19942653.6274
  22905425.690    -9411570.634 8  -7296436.80846  22905430.343    22905440.5564
 00  4 20  0  2 30.0000000  0  6 24 23 17 06 26 10
  24138673.955    -3206759.806 7  -2468673.68345  24138683.275    24138701.6614
  23262874.245    -8801229.773 8  -6850054.15046  23262877.165    23262890.8324
  21098291.094   -18811083.907 9 -14647459.39947  21098292.825    21098302.7394
  21753914.868   -17291907.221 8 -13459079.63747  21753918.131    21753929.8624
  19943553.344   -25601739.784 9 -19934554.45948  19943556.701    19943565.4164
  22919466.176    -9337807.443 8  -7238959.01046  22919466.163    22919477.4404
 00  4 20  0  3  0.0000000  0  6 24 23 17 06 26 10
  24156295.383    -3114195.286 7  -2396545.62745  24156299.550    24156316.2404
  23251147.739    -8862860.280 8  -6898077.72146  23251149.563    23251162.0054
  21085439.307   -18878615.427 9 -14700081.28447  21085442.136    21085452.0454
  21766136.207   -17227671.131 8 -13409025.58547  21766142.385    21766153.0094
  19944585.837   -25596313.479 9 -19930326.14648  19944589.174    19944597.8834
  22933510.074    -9263981.913 8  -7181432.63446  22933514.550    22933526.2694
 00  4 20  0  3 30.0000000  0  6 24 23 17 06 26 10
  24173942.427    -3021458.002 7  -2324282.93645  24173947.303    24173961.2944
  23239441.902    -8924375.372 8  -6946011.38646  23239442.914    23239455.7754
  21072645.597   -18945845.287 9 -14752468.12047  21072648.440    21072658.3644
  21778447.876   -17162992.049 8 -13358626.34247  21778450.245    21778461.5724
  19945740.964   -25590249.516 9 -19925600.94848  19945742.993    19945751.6994
  22947578.156    -9190089.386 8  -7123854.08346  22947576.254    22947588.1664
 00  4 20  0  4  0.0000000  0  6 24 23 17 06 26 10
  24191615.114    -2928535.084 7  -2251875.60445  24191628.626    24191645.4394
  23227756.300    -8985776.231 8  -6993856.03846  23227758.454    23227771.9444
  21059911.588   -19012778.918 9 -14804624.12247  21059911.641    21059921.4624
  21790837.747   -17097874.328 8 -13307885.31647  21790841.804    21790853.0774
  19947016.771   -25583542.087 9 -19920374.35948  19947019.434    19947028.0094
  22961650.991    -9116121.830 8  -7066217.06846  22961652.014    22961662.7784
 00  4 20  0  4 30.0000000  0  6 24 23 17 06 26 10
  24209349.012    -2835409.866 7  -2179310.65745  24209348.338    24209365.0514
  23216088.433    -9047070.661 8  -7041617.74246  23216094.453    23216107.8264
  21047225.563   -19079426.063 9 -14856556.89347  21047229.275    21047238.9184
  21803312.116   -17032310.016 8 -13256796.30247  21803317.791    21803329.4794
  19948413.127   -25576196.396 9 -19914650.41548  19948417.337    19948425.7144
  22975745.859    -9042065.583 8  -7008510.91446  22975744.338    22975755.3864
 00  4 20  0  5  0.0000000  0  6 24 23 17 06 26 10
  24227102.619    -2742086.399 7  -2106591.15444  24227108.049    24227125.7164
  23204450.670    -9108249.106 8  -7089289.10746  23204452.252    23204465.9474
  21034597.720   -19145773.009 9 -14908255.74647  21034603.073    21034613.0924
  21815878.985   -16966290.591 8 -13205352.65847  21815881.422    21815892.2974
  19949926.552   -25568246.277 9 -19908455.48848  19949930.089    19949938.5994
  22989851.939    -8967917.479 8  -6950733.21146  22989853.847    22989864.5754
 00  4 20  0  5 30.0000000  0  6 24 23 17 06 26 10
  24244904.955    -2648557.110 7  -2033711.32345  24244908.635    24244924.6504
  23192827.850    -9169315.750 8  -7136873.34646  23192831.221    23192844.6094
  21022033.659   -19211817.210 9 -14959718.69347  21022035.697    21022045.0034
  21828522.454   -16899837.451 8 -13153571.04847  21828527.336    21828537.8394
  19951546.579   -25559721.271 9 -19901812.59848  19951552.416    19951560.7794
  23003975.285    -8893687.240 8  -6892891.49046  23003978.941    23003990.2474
 00  4 20  0  6  0.0000000  0  7 24 09 23 17 06 26 10
  24262730.053    -2554825.894 7  -1960674.20045  24262743.802    24262760.4944
  24513852.410      -35360.08617
  23181230.514    -9230267.116 8  -7184367.75946  23181232.590    23181246.0944
  21009522.468   -19277567.637 9 -15010952.72047  21009523.740    21009533.5334
  21841254.114   -16832957.979 8 -13101457.23247  21841253.784    21841265.0024
  19953278.637   -25550638.058 9 -19894734.74648  19953280.874    19953289.2254
  23018122.632    -8819381.591 8  -6834991.01646  23018120.080    23018130.4414
 00  4 20  0  6 30.0000000  0  7 24 09 23 17 06 26 10
  24280618.175    -2460903.643 7  -1887488.15145  24280616.901    24280633.6544
  24494020.346     -139399.587 7
  23169659.409    -9291086.066 8  -7231759.02146  23169660.093    23169671.9824
  20997063.818   -19343032.227 9 -15061964.01147  20997066.425    20997076.0184
  21854059.149   -16765651.360 8 -13049010.58047  21854061.760    21854072.3284
  19955111.152   -25540996.905 9 -19887222.13248  19955115.439    19955123.9754
  23032273.271    -8745010.512 8  -6777039.55846  23032272.185    23032282.9814
 00  4 20  0  7  0.0000000  0  7 24 09 23 17 06 26 10
  24298531.268    -2366795.837 7  -1814157.56345  24298525.051    24298541.9304
  24474239.619     -243490.468 7
  23158110.586    -9351760.109 8  -7279037.36146  23158114.361    23158125.9324
  20984660.563   -19408221.894 9 -15112761.08948  20984661.339    20984671.1054
  21866946.351   -16697929.543 8 -12996240.39447  21866948.913    21866960.1634
  19957054.037   -25530792.859 9 -19879270.90248  19957057.150    19957065.8154
  23046430.100    -8670588.898 8  -6719048.74146  23046432.883    23046445.1474
 00  4 20  0  7 30.0000000  0  7 24 09 23 17 06 26 10
  24316453.732    -2272507.811 7  -1740686.53144  24316468.525    24316482.6634
  24454408.537     -347631.933 7
  23146590.566    -9412293.217 8  -7326205.91446  23146594.996    23146606.4934
  20972305.535   -19473135.321 9 -15163342.90647  20972308.192    20972318.3674
  21879908.945   -16629806.557 8 -12943157.62047  21879912.535    21879924.0734
  19959106.253   -25519998.992 9 -19870860.06448  19959111.088    19959119.8324
  23060603.310    -8596116.894 8  -6661018.69146  23060605.432    23060616.6784
 00  4 20  0  8  0.0000000  0  7 24 09 23 17 06 26 10
  24334430.240    -2178059.956 7  -1667090.93544  24334442.651    24334456.8134
  24434588.203     -451831.621 7    -80585.96154                  24434608.3844
  23135099.949    -9472689.159 8  -7373267.56446  23135101.286    23135114.5834
  20960006.032   -19537763.012 9 -15213702.08047  20960009.795    20960019.7594
  21892952.344   -16561272.764 8 -12889754.72747  21892954.158    21892965.5914
  19961279.177   -25508592.975 9 -19861972.23148  19961281.567    19961290.1134
  23074784.561    -8521590.882 8  -6602946.53246  23074787.567    23074798.8784
 00  4 20  0  8 30.0000000  0  7 24 09 23 17 06 26 10
  24352437.231    -2083460.391 7  -1593377.17844  24352440.109    24352459.1664
  24414741.041     -556091.696 7   -161827.29045  24414750.416    24414765.6824
  23123627.940    -9532954.189 8  -7420227.24046  23123633.181    23123645.2964
  20947763.422   -19602085.945 9 -15263823.78247  20947769.030    20947779.3234
  21906074.223   -16492326.980 8 -12836030.80447  21906074.141    21906085.2394
  19963568.067   -25496557.894 9 -19852594.21848  19963571.790    19963580.2834
  23088974.888    -8447012.785 8  -6544833.77446  23088979.133    23088989.5904
 00  4 20  0  9  0.0000000  0  7 24 09 23 17 06 26 10
  24370471.797    -1988714.816 7  -1519549.62644  24370473.619    24370488.9674
  24394899.949     -660397.133 7   -243103.91345  24394899.760    24394917.3834
  23112186.342    -9593105.339 8  -7467098.15646  23112186.849    23112199.6144
  20935585.504   -19666082.933 9 -15313691.49047  20935590.631    20935601.1554
  21919266.543   -16422975.228 8 -12781990.55447  21919271.329    21919281.9874
  19965976.265   -25483904.810 9 -19842734.64748  19965979.677    19965988.0334
  23103173.071    -8372380.935 8  -6486679.12846  23103180.423    23103193.4344
 00  4 20  0  9 30.0000000  0  7 24 09 23 17 06 26 10
  24388525.137    -1893831.631 7  -1445614.80245  24388527.075    24388544.7894
  24375044.917     -764738.756 7   -324408.74845  24375044.433    24375060.8594
  23100753.687    -9653154.912 8  -7513889.95746  23100759.977    23100770.9824
  20923477.949   -19729733.464 9 -15363289.25447  20923478.807    20923488.9284
  21932539.947   -16353219.506 8 -12727635.49747  21932545.598    21932555.9984
  19968500.941   -25470638.530 9 -19832397.26148  19968503.995    19968512.7144
  23117390.911    -8297685.373 8  -6428474.82546  23117394.607    23117407.1884
 00  4 20  0 10  0.0000000  0  6 09 23 17 06 26 10
  24355182.281     -869100.797 7   -405729.52445  24355185.719    24355199.2924
  23089348.797    -9713107.596 8  -7560606.22546  23089350.930    23089363.2294
  20911428.248   -19793038.024 9 -15412617.41548  20911432.433    20911442.4374
  21945898.996   -16283049.495 8 -12672957.63747  21945898.097    21945909.8364
  19971138.835   -25456777.391 9 -19821596.34548  19971141.440    19971150.5374
  23131611.962    -8222921.901 8  -6370217.61146  23131621.766    23131633.6894
 00  4 20  0 10 30.0000000  0  6 09 23 17 06 26 10
  24335312.591     -973461.598 7   -487049.35845  24335324.948    24335342.7004
  23077956.467    -9772954.004 8  -7607239.69446  23077963.066    23077974.6484
  20899445.112   -19856002.028 9 -15461680.20548  20899450.483    20899460.4054
  21959324.916   -16212472.227 8 -12617962.44747  21959328.886    21959340.9704
  19973885.173   -25442340.168 9 -19810346.53848  19973888.573    19973897.6604
  23145857.700    -8148078.384 8  -6311898.01146  23145864.087    23145874.8554
 00  4 20  0 11  0.0000000  0  6 09 23 17 06 26 10
  24315472.774    -1077825.691 7   -568371.66445  24315464.822    24315479.5464
  23066594.559    -9832690.070 8  -7653787.16346  23066594.629    23066607.5914
  20887527.668   -19918636.381 9 -15510486.12247  20887531.728    20887541.2024
  21972835.138   -16141493.907 8 -12562654.72347  21972835.908    21972847.1914
  19976740.136   -25427334.786 9 -19798654.00848  19976744.379    19976752.8504
  23160123.461    -8073151.497 8  -6253513.47046  23160122.332    23160134.1684
 00  4 20  0 11 30.0000000  0  6 09 23 17 06 26 10
  24295602.669    -1182209.648 7   -649709.48245  24295600.584    24295616.9854
  23055244.113    -9892304.516 8  -7700239.87446  23055249.810    23055262.9804
  20875672.134   -19980947.328 9 -15559040.03947  20875674.023    20875684.0414
  21986414.585   -16070116.568 8 -12507036.10247  21986418.334    21986429.8334
  19979705.952   -25411755.802 9 -19786514.52148  19979708.885    19979717.5284
  23174395.445    -7998140.451 8  -6195063.33646  23174396.715    23174409.6774
 00  4 20  0 12  0.0000000  0  6 09 23 17 06 26 10
  24275726.791    -1286615.533 7   -731064.39445  24275733.574    24275749.2434
  23043928.020    -9951793.344 8  -7746594.68646  23043929.793    23043942.1304
  20863872.556   -20042948.847 9 -15607352.85148  20863875.718    20863885.4254
  22000076.744   -15998326.758 8 -12451096.06047  22000079.819    22000090.8384
  19982780.644   -25395596.488 9 -19773922.83048  19982783.671    19982792.6984
  23188686.432    -7923047.340 8  -6136549.28046  23188686.685    23188698.7724
 00  4 20  0 12 30.0000000  0  6 09 23 17 06 26 10
  24255858.961    -1391054.045 7   -812444.75445  24255860.941    24255874.7444
  23032633.831   -10011151.794 8  -7792847.92546  23032634.670    23032647.3674
  20852133.971   -20104643.334 9 -15655426.44648  20852135.309    20852145.2564
  22013815.654   -15926137.190 8 -12394844.49847  22013817.147    22013827.8744
  19985966.596   -25378850.523 9 -19760874.00848  19985970.192    19985979.0264
  23202987.617    -7847874.606 8  -6077973.15446  23202991.535    23203002.4584
 00  4 20  0 13  0.0000000  0  6 09 23 17 06 26 10
  24235983.874    -1495534.008 7   -893857.39045  24235974.918    24235992.5174
  23021358.251   -10070394.052 8  -7839010.61846  23021361.785    23021373.4644
  20840453.959   -20166025.519 9 -15703256.68048  20840454.704    20840465.0114
  22027626.221   -15853552.791 8 -12338285.30747  22027628.940    22027641.1034
  19989266.983   -25361508.324 9 -19747360.58748  19989270.643    19989279.0454
  23217305.052    -7772645.891 8  -6019353.40646  23217307.249    23217317.2604
 00  4 20  0 13 30.0000000  0  6 09 23 17 06 26 10
  24216075.858    -1600043.586 7   -975293.06745  24216088.213    24216104.7144
  23010104.731   -10129525.201 8  -7885086.73446  23010108.339    23010121.5464
  20828831.314   -20227086.372 9 -15750836.54548  20828835.521    20828845.2294
  22041517.085   -15780570.102 8 -12281415.73647  22041517.597    22041529.1014
  19992682.311   -25343572.606 9 -19733384.68548  19992683.579    19992692.3434
  23231633.167    -7697366.304 8  -5960694.01846  23231631.756    23231643.0884
 00  4 20  0 14  0.0000000  0  6 09 23 17 06 26 10
  24196196.918    -1704565.100 7  -1056738.10945  24196198.566    24196215.0774
  22998870.687   -10188558.157 8  -7931086.30046  22998874.003    22998887.4214
  20817273.772   -20287822.172 9 -15798163.13248  20817277.532    20817287.3424
  22055478.513   -15707192.921 8 -12224238.78447  22055480.471    22055491.8144
  19996206.577   -25325044.309 9 -19718947.03948  19996209.487    19996217.9704
  23245964.306    -7622030.354 8  -5901990.72946  23245968.605    23245980.2724
 00  4 20  0 14 30.0000000  0  6 09 23 17 06 26 10
  24176302.079    -1809098.923 7  -1138192.75145  24176305.289    24176322.6824
  22987653.714   -10247494.761 8  -7977010.80946  22987658.947    22987672.0434
  20805784.098   -20348213.773 9 -15845221.53448  20805785.156    20805795.5194
  22069511.538   -15633437.270 8 -12166766.93447  22069515.086    22069527.1664
  19999843.025   -25305934.494 9 -19704056.24948  19999846.010    19999854.5894
  23260303.474    -7546651.121 8  -5843253.70546  23260312.029    23260324.3164
 00  4 20  0 15  0.0000000  0  6 09 23 17 06 26 10
  24156412.886    -1913630.475 7  -1219645.59145  24156413.835    24156430.0084
  22976463.246   -10306335.904 8  -8022860.91246  22976461.743    22976474.2264
  20794357.996   -20408248.019 9 -15892001.48448  20794360.931    20794371.5774
  22083617.098   -15559296.573 8 -12108995.03447  22083623.772    22083635.8094
  20003589.458   -25286250.957 9 -19688718.40548  20003591.888    20003600.3654
  23274659.781    -7471242.912 8  -5784494.16546  23274660.610    23274673.6574
 00  4 20  0 15 30.0000000  0  6 09 23 17 06 26 10
  24136529.608    -2018145.934 7  -1301085.89345  24136525.619    24136540.9984
  22965284.848   -10365058.745 8  -8068618.85546  22965286.722    22965299.8864
  20783002.567   -20467918.274 9 -15938497.81548  20783006.576    20783016.5694
  22097805.194   -15484769.056 8 -12050921.72047  22097806.933    22097817.8364
  20007440.407   -25266007.534 9 -19672944.28748  20007443.702    20007452.6354
  23289018.417    -7395785.334 8  -5725696.10646  23289020.595    23289032.2034
 00  4 20  0 16  0.0000000  0  6 09 23 17 06 26 10
  24116635.722    -2122633.399 8  -1382504.41845  24116643.706    24116657.8244
  22954130.656   -10423652.078 8  -8114275.87446  22954137.321    22954150.4454
  20771717.173   -20527223.835 9 -15984709.97048  20771721.084    20771731.2624
  22112060.439   -15409860.557 8 -11992551.51547  22112061.753    22112072.8774
  20011398.395   -25245206.862 9 -19656735.94348  20011402.076    20011410.6134
  23303389.152    -7320275.315 8  -5666857.16846  23303390.784    23303402.1464
 00  4 20  0 16 30.0000000  0  6 09 23 17 06 26 10
  24096765.691    -2227088.110 8  -1463897.42045  24096764.837    24096780.1964
  22943013.033   -10482106.276 8  -8159824.45746  22943013.916    22943026.1154
  20760502.306   -20586165.259 9 -16030638.34248  20760505.072    20760514.8044
  22126386.620   -15334573.698 8 -11933886.49547  22126387.922    22126399.6654
  20015462.750   -25223852.795 9 -19640096.38348  20015465.570    20015473.8514
  23317769.715    -7244728.927 8  -5607989.89346  23317766.669    23317779.1954
 00  4 20  0 17  0.0000000  0  6 09 23 17 06 26 10
  24076887.231    -2331507.350 8  -1545262.73545  24076894.305    24076910.4194
  22931916.794   -10540417.783 8  -8205261.86546  22931917.846    22931929.8404
  20749354.426   -20644755.672 9 -16076293.16848  20749355.984    20749365.4424
  22140782.042   -15258913.272 8 -11874930.39446  22140785.374    22140796.7384
  20019630.492   -25201944.131 9 -19623024.66348  20019634.397    20019643.0434
  23332152.221    -7169132.787 8  -5549083.87646  23332151.656    23332164.9594
 00  4 20  0 17 30.0000000  0  6 09 23 17 06 26 10
  24057029.783    -2435900.003 8  -1626607.38745  24057030.061    24057043.5344
  22920842.876   -10598598.113 8  -8250597.05146  22920846.168    22920858.4224
  20738265.991   -20703005.591 9 -16121682.62348  20738271.020    20738280.4414
  22155249.865   -15182878.299 8 -11815682.43346  22155254.853    22155265.4034
  20023906.204   -25179480.422 9 -19605520.44248  20023909.523    20023917.9684
  23346546.996    -7093467.854 8  -5490124.26046  23346550.644    23346562.9644
 00  4 20  0 18  0.0000000  0  6 09 23 17 06 26 10
  24037160.666    -2540275.738 8  -1707938.86045  24037167.131    24037181.3914
  22909790.731   -10656677.443 8  -8295853.56046  22909794.407    22909805.4704
  20727249.599   -20760911.608 9 -16166804.10148  20727251.699    20727261.4314
  22169794.222   -15106477.092 8 -11756149.07946  22169793.645    22169804.6794
  20028287.389   -25156453.119 9 -19587577.05448  20028291.215    20028299.8384
  23360954.831    -7017750.764 8  -5431124.01246  23360960.035    23360971.5064
 00  4 20  0 18 30.0000000  0  6 09 23 17 06 26 10
  24017294.931    -2644650.342 8  -1789269.41145  24017304.461    24017320.3744
  22898757.033   -10714662.888 8  -8341036.91646  22898760.405    22898771.7224
  20716294.367   -20818476.388 9 -16211659.69048  20716297.662    20716307.2934
  22184398.697   -15029719.428 8 -11696337.98746  22184400.504    22184411.2844
  20032775.292   -25132870.352 9 -19569200.85148  20032778.755    20032787.3194
  23375381.698    -6941977.926 8  -5372080.31446  23375378.680    23375390.3334
 00  4 20  0 19  0.0000000  0  6 09 23 17 06 26 10
  23997433.293    -2749025.268 8  -1870600.24545  23997442.029    23997457.8044
  22887744.501   -10772549.430 8  -8386143.19146  22887744.984    22887756.6674
  20705409.402   -20875688.133 9 -16256240.18148  20705410.634    20705420.0564
  22199073.713   -14952607.023 8 -11636250.45647  22199074.753    22199086.1104
  20037366.521   -25108743.218 9 -19550400.45648  20037370.274    20037378.8314
  23389810.442    -6866129.351 8  -5312977.56346  23389812.120    23389823.0514
 00  4 20  0 19 30.0000000  0  6 09 23 17 06 26 10
  23977581.886    -2853391.592 8  -1951924.38345  23977582.151    23977597.2834
  22876742.407   -10830337.909 8  -8431173.06646  22876747.156    22876759.5594
  20694589.075   -20932528.561 9 -16300531.36648  20694593.735    20694603.7854
  22213810.730   -14875154.615 8 -11575898.00347  22213813.079    22213824.3944
  20042063.545   -25084069.225 9 -19531173.93548  20042065.568    20042074.0484
  23404258.261    -6790214.823 8  -5253823.43146  23404257.976    23404269.6414
 00  4 20  0 20  0.0000000  0  6 09 23 17 06 26 10
  23957723.608    -2957742.657 8  -2033236.62545  23957724.668    23957740.5754
  22865773.822   -10888010.115 8  -8476112.30446  22865771.444    22865784.2614
  20683844.848   -20988992.442 9 -16344529.19248  20683849.423    20683858.6944
  22228611.721   -14797379.401 8 -11515294.00846  22228613.156    22228624.4584
  20046862.016   -25058844.429 9 -19511518.22148  20046865.608    20046874.2014
  23418717.013    -6714245.554 8  -5194626.68646  23418714.516    23418726.1554
 00  4 20  0 20 30.0000000  0  6 09 23 17 06 26 10
  23937875.257    -3062063.828 8  -2114525.57245  23937872.401    23937888.0194
  22854817.715   -10945548.720 8  -8520947.45946  22854823.119    22854834.1474
  20673172.812   -21045087.022 9 -16388239.25248  20673174.642    20673184.3854
  22243469.338   -14719272.589 8 -11454431.61846  22243475.891    22243488.0124
  20051768.405   -25033066.473 9 -19491431.47948  20051771.328    20051779.6954
  23433174.234    -6638207.633 8  -5135376.39146  23433183.161    23433195.7394
 00  4 20  0 21  0.0000000  0  6 09 23 17 06 26 10
  23918026.924    -3166348.113 8  -2195785.79445  23918028.493    23918042.7874
  22843895.969   -11002967.032 8  -8565688.88846  22843896.801    22843908.2284
  20662568.221   -21100806.717 9 -16431657.22348  20662571.521    20662581.1994
  22258402.499   -14640822.807 8 -11393301.98946  22258404.985    22258415.6224
  20056782.556   -25006713.457 9 -19470896.63948  20056785.849    20056794.1894
  23447663.516    -6562115.957 8  -5076084.24746  23447663.019    23447675.6184
 00  4 20  0 21 30.0000000  0  6 09 23 17 06 26 10
  23898188.296    -3270585.597 8  -2277009.56645  23898191.793    23898206.4934
  22832986.825   -11060281.827 8  -8610349.63446  22832990.331    22833001.5644
  20652034.728   -21156165.745 9 -16474794.15048  20652037.281    20652047.2134
  22273398.525   -14562024.867 8 -11331901.07546  22273399.768    22273410.7184
  20061911.142   -24979770.214 9 -19449901.86548  20061912.952    20061921.4834
  23462151.121    -6485980.412 8  -5016757.89446  23462151.095    23462164.4094
 00  4 20  0 22  0.0000000  0  6 09 23 17 06 26 10
  23878367.321    -3374770.283 8  -2358192.17345  23878365.411    23878380.9574
  22822099.722   -11117487.685 8  -8654925.50046  22822103.830    22822116.1944
  20641565.644   -21211175.129 9 -16517658.61148  20641569.057    20641578.9014
  22288461.987   -14482849.956 8 -11270206.37746  22288466.683    22288477.6544
  20067145.660   -24952245.995 9 -19428454.40248  20067150.632    20067158.9854
  23476645.472    -6409794.480 8  -4957392.31146  23476649.686    23476661.5954
 00  4 20  0 22 30.0000000  0  6 09 23 17 06 26 10
  23858554.505    -3478889.003 8  -2439323.38145  23858552.812    23858567.6674
  22811229.645   -11174592.484 8  -8699422.62846  22811236.306    22811249.5484
  20631168.121   -21265823.372 9 -16560241.59648  20631170.299    20631179.9654
  22303600.353   -14403294.044 8 -11208214.81947  22303605.328    22303617.4684
  20072494.758   -24924146.751 9 -19406558.85948  20072497.832    20072505.6734
  23491153.696    -6333557.838 8  -4897987.23946  23491157.702    23491168.6754
 00  4 20  0 23  0.0000000  0  6 09 23 17 06 26 10
  23838751.613    -3582936.183 8  -2520398.82545  23838752.690    23838767.9064
  22800389.838   -11231593.722 8  -8743839.05646  22800390.572    22800401.3004
  20620840.421   -21320093.330 9 -16602529.78448  20620842.543    20620852.5084
  22318808.792   -14323377.823 8 -11145942.52046  22318812.728    22318824.0744
  20077948.302   -24895488.145 9 -19384227.45248  20077951.154    20077959.2964
  23505672.368    -6257278.163 8  -4838548.57346  23505672.491    23505684.6844
 00  4 20  0 23 30.0000000  0  6 09 23 17 06 26 10
  23818956.045    -3686906.037 8  -2601414.05945  23818967.356    23818982.7934
  22789564.892   -11288465.866 8  -8788154.90546  22789567.845    22789579.6134
  20610583.797   -21373980.688 9 -16644519.80848  20610588.041    20610598.1124
  22334085.006   -14243109.122 8 -11083395.55446  22334087.246    22334099.4804
  20083504.419   -24866295.034 9 -19361479.55248  20083506.168    20083515.0374
  23520192.214    -6180947.972 8  -4779070.54846  23520197.396    23520210.4174
 00  4 20  0 24  0.0000000  0  6 09 23 17 06 26 10
  23799182.251    -3790806.087 8  -2682374.87445  23799196.326    23799210.6204
  22778770.440   -11345196.168 8  -8832360.24646  22778772.405    22778784.2164
  20600405.881   -21427469.787 9 -16686199.49248  20600409.242    20600419.1484
  22349419.983   -14162507.651 8 -11020589.29546  22349425.158    22349437.2244
  20089160.023   -24836571.795 9 -19338318.57848  20089162.600    20089170.7124
  23534730.982    -6104572.949 8  -4719557.60045  23534730.982    23534743.2894
 00  4 20  0 24 30.0000000  0  6 09 23 17 06 26 10
  23779437.953    -3894648.064 8  -2763290.45545  23779435.629    23779450.5664
  22768000.533   -11401790.175 8  -8876459.39646  22768002.924    22768014.5944
  20590302.775   -21480551.716 9 -16727561.87848  20590307.779    20590317.9114
  22364816.279   -14081611.660 8 -10957553.52546  22364819.237    22364832.4474
  20094917.361   -24806310.165 9 -19314738.07148  20094921.024    20094929.4384
  23549273.575    -6028160.817 8  -4660015.74345  23549272.456    23549284.4084
 00  4 20  0 25  0.0000000  0  6 09 23 17 06 26 10
  23759679.206    -3998446.209 8  -2844171.89045  23759682.713    23759698.1384
  22757258.265   -11458245.831 8  -8920450.72347  22757259.185    22757271.6334
  20580278.255   -21533239.709 9 -16768617.30648  20580281.218    20580291.5514
  22380264.131   -14000428.640 8 -10894294.09746  22380268.182    22380279.9864
  20100776.485   -24775517.670 9 -19290743.90548  20100780.492    20100789.0424
  23563819.916    -5951716.785 8  -4600449.01746  23563820.174    23563831.4734
 00  4 20  0 25 30.0000000  0  6 09 23 17 06 26 10
  23739944.775    -4102207.132 8  -2925024.30745  23739937.506    23739952.8754
  22746536.932   -11514574.395 8  -8964342.99347  22746540.175    22746552.2834
  20570325.891   -21585547.319 9 -16809376.31948  20570328.116    20570337.4794
  22395770.455   -13918958.157 8 -10830810.67046  22395771.599    22395783.6304
  20106739.311   -24744192.819 9 -19266334.92148  20106741.638    20106749.7714
  23578365.313    -5875245.822 8  -4540861.28546  23578370.652    23578383.6304
 00  4 20  0 26  0.0000000  0  6 09 23 17 06 26 10
  23720193.120    -4205928.942 8  -3005846.27945  23720200.457    23720215.5374
  22735837.502   -11570792.724 8  -9008149.36947  22735842.425    22735854.6224
  20560443.536   -21637466.391 9 -16849832.58048  20560448.214    20560457.2944
  22411323.709   -13837208.856 8 -10767109.98146  22411327.826    22411339.9394
  20112800.889   -24712331.411 9 -19241507.83348  20112804.232    20112812.7554
  23592931.857    -5798745.929 8  -4481251.01945  23592928.385    23592940.2284
 00  4 20  0 26 30.0000000  0  6 09 23 17 06 26 10
  23700475.267    -4309601.236 8  -3086629.65246  23700472.110    23700486.4744
  22725158.880   -11626913.883 8  -9051880.04246  22725161.770    22725174.7064
  20550637.008   -21688998.341 9 -16889987.25148  20550641.732    20550651.0094
  22426936.254   -13755170.776 8 -10703184.28146  22426939.271    22426950.9734
  20118963.838   -24679945.244 9 -19216271.87448  20118967.178    20118976.0294
  23607487.756    -5722207.445 8  -4421610.64045  23607493.504    23607505.4024
 00  4 20  0 27  0.0000000  0  6 09 23 17 06 26 10
  23680751.418    -4413209.844 8  -3167363.39646  23680755.920    23680770.7554
  22714494.639   -11682956.136 8  -9095549.21246  22714497.478    22714509.4384
  20540907.801   -21740145.316 9 -16929841.96448  20540909.041    20540917.8804
  22442607.772   -13672818.264 8 -10639013.56646  22442610.970    22442622.3864
  20125226.618   -24647039.275 9 -19190630.83648  20125229.100    20125237.3204
  23622070.854    -5645619.947 8  -4361932.12045  23622068.566    23622079.1464
 00  4 20  0 27 30.0000000  0  6 09 23 17 06 26 10
  23661050.964    -4516740.991 8  -3248036.76946  23661054.024    23661068.2504
  22703840.967   -11738925.309 8  -9139161.47046  22703847.168    22703858.9694
  20531248.939   -21790891.960 9 -16969384.76748  20531251.789    20531261.3634
  22458340.598   -13590142.894 8 -10574591.25746  22458342.393    22458354.9714
  20131589.443   -24613592.267 9 -19164568.21448  20131594.083    20131602.6184
  23636651.360    -5568969.666 8  -4302204.68545  23636654.789    23636664.8764
 00  4 20  0 28  0.0000000  0  6 09 23 17 06 26 10
  23641365.165    -4620194.827 8  -3328649.92946  23641368.327    23641382.8194
  22693207.867   -11794814.005 8  -9182710.98647  22693212.063    22693224.3264
  20521670.277   -21841227.924 9 -17008607.59548  20521673.312    20521682.4304
  22474138.079   -13507140.209 8 -10509913.90246  22474137.758    22474150.8984
  20138060.231   -24579590.376 9 -19138073.22448  20138064.239    20138072.8874
  23651256.498    -5492243.513 8  -4242418.10346  23651255.097    23651266.5994
 00  4 20  0 28 30.0000000  0  6 09 23 17 06 26 10
  23621693.451    -4723564.787 8  -3409197.73946  23621696.657    23621710.8494
  22682592.642   -11850616.379 8  -9226193.25247  22682593.477    22682605.4894
  20512168.777   -21891163.490 9 -17047518.44648  20512170.840    20512179.9804
  22489992.892   -13423812.459 8 -10444983.25446  22489995.207    22490006.8324
  20144636.499   -24545035.503 9 -19111147.33948  20144639.931    20144648.4594
  23665859.941    -5415432.534 8  -4182565.43345  23665870.293    23665883.7994
 00  4 20  0 29  0.0000000  0  6 09 23 17 06 26 10
  23602036.985    -4826850.724 8  -3489680.03846  23602041.615    23602056.0554
  22671995.481   -11906308.299 8  -9269589.47547  22671994.932    22672006.7624
  20502742.540   -21940689.082 9 -17086109.84148  20502746.202    20502755.5764
  22505909.701   -13340168.792 8 -10379806.43946  22505911.590    22505924.3194
  20151319.765   -24509922.888 9 -19083786.85948  20151321.658    20151329.8934
  23680498.297    -5338540.782 8  -4122649.82345  23680502.083    23680516.0794
 00  4 20  0 29 30.0000000  0  6 09 23 17 06 26 10
  23582406.353    -4930051.218 8  -3570095.76946  23582404.413    23582416.9684
  22661416.904   -11961864.895 8  -9312880.24147  22661422.802    22661435.1564
  20493398.382   -21989799.815 9 -17124377.92148  20493401.205    20493410.3564
  22521880.708   -13256225.883 8 -10314396.46346  22521886.394    22521897.9454
  20158104.476   -24474266.510 9 -19056002.67548  20158106.792    20158114.9404
  23695153.432    -5261572.548 8  -4062674.59045  23695150.289    23695160.9374
 00  4 20  0 30  0.0000000  0  6 09 23 17 06 26 10
  23562777.297    -5033153.067 8  -3650434.61846  23562784.412    23562797.0364
  22650875.023   -12017285.217 8  -9356064.81147  22650877.394    22650887.9844
  20484131.738   -22038496.268 9 -17162323.14848  20484134.467    20484143.2814
  22537913.544   -13171995.080 8 -10248762.12646  22537914.389    22537926.6924
  20164984.333   -24438097.757 9 -19027819.21348  20164989.158    20164997.1964
  23709806.795    -5184532.952 8  -4002643.75845  23709810.690    23709821.4534
 00  4 20  0 30 30.0000000  0  6 09 23 17 06 26 10
  23543190.593    -5136137.462 8  -3730681.95246  23543185.871    23543199.7654
  22640352.154   -12072574.310 8  -9399147.11447  22640356.367    22640366.8224
  20474946.206   -22086768.371 9 -17199937.77048  20474948.543    20474957.2764
  22553990.476   -13087484.429 8 -10182909.72946  22553996.532    22554007.5684
  20171963.734   -24401435.411 9 -18999251.17748  20171965.985    20171974.3654
  23724477.321    -5107436.795 8  -3942568.92245  23724479.573    23724492.4434
 00  4 20  0 31  0.0000000  0  6 09 23 17 06 26 10
  23523605.004    -5238999.763 8  -3810834.16646  23523612.232    23523625.5334
  22629858.791   -12127738.260 8  -9442131.90747  22629859.019    22629870.0644
  20465839.138   -22134611.872 9 -17237218.43948  20465844.022    20465853.3474
  22570128.720   -13002690.157 8 -10116836.33746  22570132.629    22570144.0284
  20179034.228   -24364275.353 9 -18970295.29148  20179037.286    20179045.2024
  23739148.597    -5030312.547 8  -3882472.20445  23739156.671    23739169.1504
 00  4 20  0 31 30.0000000  0  6 09 23 17 06 26 10
  23504052.483    -5341742.719 8  -3890893.35946  23504060.475    23504073.9784
  22619380.150   -12182790.906 8  -9485029.98047  22619381.951    22619393.3664
  20456815.673   -22182035.100 9 -17274171.62648  20456819.517    20456829.3834
  22586318.935   -12917610.992 8 -10050540.96846  22586322.359    22586334.2964
  20186198.997   -24326630.431 9 -18940961.58348  20186201.171    20186209.2394
  23753843.979    -4953164.991 8  -3822357.27545  23753838.360    23753850.0974
 00  4 20  0 32  0.0000000  0  6 09 23 17 06 26 10
  23484527.892    -5444367.029 8  -3970860.06846  23484531.525    23484545.0504
  22608920.888   -12237741.019 8  -9527848.14247  22608925.607    22608936.0974
  20447873.855   -22229031.368 9 -17310792.09648  20447876.403    20447886.1914
  22602562.100   -12832250.820 8  -9984026.61746  22602565.446    22602578.1924
  20193456.854   -24288491.856 9 -18911243.21648  20193458.595    20193466.8004
  23768520.864    -4875995.543 8  -3762225.28145  23768522.418    23768535.2904
 00  4 20  0 32 30.0000000  0  6 09 23 17 06 26 10
  23465015.890    -5546892.378 8  -4050749.71846  23465021.088    23465034.3644
  22598487.950   -12292575.331 8  -9570576.07647  22598490.760    22598502.5834
  20439011.879   -22275601.725 9 -17347080.65748  20439014.272    20439023.5214
  22618857.408   -12746614.772 8  -9917297.29746  22618861.332    22618874.1724
  20200811.990   -24249837.573 9 -18881123.00348  20200814.468    20200822.6514
  23783200.120    -4798814.798 8  -3702084.52545  23783208.772    23783222.2874
 00  4 20  0 33  0.0000000  0  6 09 23 17 06 26 10
  23445520.111    -5649331.275 8  -4130571.94846  23445528.049    23445540.9954
  22588072.362   -12347296.304 8  -9613215.65747  22588077.065    22588089.3404
  20430229.769   -22321750.653 9 -17383040.78248  20430232.575    20430242.1714
  22635209.742   -12660702.501 8  -9850352.75346  22635209.895    22635223.0944
  20208264.445   -24210671.915 9 -18850604.30448  20208267.202    20208275.4324
  23797904.360    -4721611.023 8  -3641925.83945  23797901.221    23797913.2624
 00  4 20  0 33 30.0000000  0  6 09 23 17 06 26 10
  23426055.369    -5751677.062 8  -4210321.62346  23426051.327    23426064.4744
  22577680.641   -12401910.081 8  -9655771.73047  22577683.930    22577695.3154
  20421530.252   -22367471.988 9 -17418667.72548  20421532.278    20421541.8334
  22651603.086   -12574525.043 8  -9783201.57846  22651608.944    22651621.4964
  20215813.380   -24171004.139 9 -18819694.33048  20215815.748    20215823.9674
  23812605.217    -4644355.561 8  -3581726.83745  23812602.828    23812613.6874
 00  4 20  0 34  0.0000000  0  6 09 23 17 06 26 10
  23406594.431    -5853905.050 8  -4289979.53546  23406597.648    23406610.6734
  22567310.287   -12456430.821 8  -9698255.34347  22567309.486    22567320.7394
  20412911.038   -22412756.291 9 -17453954.13548  20412914.716    20412924.5514
  22668052.839   -12488090.641 8  -9715850.16746  22668057.868    22668069.5194
  20223457.781   -24130818.405 9 -18788380.74548  20223462.750    20223471.0684
  23827310.375    -4567046.164 8  -3521485.82845  23827313.910    23827326.5674
 00  4 20  0 34 30.0000000  0  6 09 23 17 06 26 10
  23387167.396    -5955995.890 8  -4369530.56546  23387170.151    23387182.8504
  22556949.720   -12510859.463 8  -9740667.18547  22556952.048    22556963.2874
  20404375.796   -22457611.462 9 -17488906.16648  20404379.146    20404388.5324
  22684553.643   -12401394.276 8  -9648294.65246  22684555.771    22684567.5294
  20231202.826   -24090126.773 9 -18756672.96248  20231205.714    20231214.0724
  23842034.865    -4489688.959 8  -3461207.60445  23842033.612    23842047.7134
 00  4 20  0 35  0.0000000  0  6 09 23 17 06 26 10
  23367770.934    -6057925.173 8  -4448955.73846  23367773.900    23367787.5044
  22546604.033   -12565208.905 8  -9783017.28347  22546609.714    22546620.4964
  20395919.854   -22502047.223 9 -17523531.37248  20395923.352    20395932.4354
  22701099.997   -12314436.684 8  -9580535.55046  22701103.072    22701113.8734
  20239040.708   -24048948.276 9 -18724585.80048  20239042.500    20239050.4014
  23856769.444    -4412274.700 8  -3400884.91645  23856766.056    23856779.2344
 00  4 20  0 35 30.0000000  0  6 09 23 17 06 26 10
  23348405.890    -6159685.533 8  -4528249.23846  23348408.987    23348422.1054
  22536284.559   -12619465.904 8  -9825295.36147  22536285.134    22536296.6234
  20387545.770   -22546063.062 9 -17557829.34848  20387547.221    20387556.5694
  22717700.103   -12227219.474 8  -9512574.15846  22717700.243    22717711.8884
  20246969.251   -24007271.997 9 -18692110.74948  20246972.892    20246981.1894
  23871499.113    -4334807.368 8  -3340520.85745  23871508.269    23871519.7624
 00  4 20  0 36  0.0000000  0  6 09 23 17 06 26 10
  23329077.148    -6261286.479 8  -4607418.56746  23329074.454    23329087.3144
  22525979.208   -12673609.798 8  -9867485.31747  22525982.100    22525993.2274
  20379247.984   -22589656.049 9 -17591797.92048  20379251.880    20379261.1144
  22734345.328   -12139734.607 8  -9444404.20346  22734347.704    22734359.6784
  20254994.921   -23965097.383 9 -18659247.40548  20254998.252    20255006.9684
  23886260.141    -4257303.973 8  -3280128.64645  23886256.631    23886268.5224
 00  4 20  0 36 30.0000000  0  6 09 23 17 06 26 10
  23309768.241    -6362754.159 8  -4686484.00946  23309765.853    23309778.9424
  22515701.101   -12727616.909 8  -9909568.73947  22515704.688    22515715.7364
  20371035.454   -22632825.299 9 -17625436.32348  20371037.104    20371046.0124
  22751047.065   -12051977.257 8  -9376021.93346  22751047.940    22751059.9524
  20263113.746   -23922432.195 9 -18626001.79548  20263117.204    20263125.7394
  23901004.503    -4179761.403 8  -3219705.92845  23901011.455    23901026.3874
 00  4 20  0 37  0.0000000  0  6 09 23 17 06 26 10
  23290469.165    -6464113.179 8  -4765464.80746  23290477.904    23290491.1404
  22505448.032   -12781496.174 8  -9951552.52247  22505450.853    22505462.9514
  20362904.250   -22675548.405 9 -17658727.01948  20362907.249    20362916.3424
  22767792.659   -11963950.961 8  -9307430.09646  22767797.798    22767811.5244
  20271328.656   -23879263.543 9 -18592363.86648  20271331.905    20271340.5114
  23915780.351    -4102166.795 8  -3159242.73745  23915778.875    23915791.6164
 00  4 20  0 37 30.0000000  0  6 09 23 17 06 26 10
  23271207.610    -6565377.577 8  -4844371.90146  23271207.194    23271220.9894
  22495217.168   -12835253.544 8  -9993441.32147  22495221.491    22495233.0214
  20354864.793   -22717800.484 9 -17691650.60248  20354866.764    20354876.0544
  22784597.406   -11875659.973 8  -9238632.01446  22784598.726    22784612.2964
  20279642.284   -23835583.505 9 -18558327.46448  20279644.345    20279652.3504
  23930548.991    -4024519.658 8  -3098738.57845  23930554.746    23930566.5974
 00  4 20  0 38  0.0000000  0  6 09 23 17 06 26 10
  23251952.277    -6666540.301 8  -4923199.74046  23251956.694    23251970.0994
  22485014.201   -12888893.371 8 -10035238.52647  22485014.086    22485025.2184
  20346914.084   -22759580.297 9 -17724206.15148  20346916.444    20346925.1684
  22801446.342   -11787112.873 8  -9169634.37846  22801449.653    22801462.1314
  20288049.012   -23791397.819 9 -18523897.02848  20288052.160    20288060.7154
  23945344.262    -3946819.774 8  -3038193.23345  23945341.363    23945350.8814
 00  4 20  0 38 30.0000000  0  6 09 23 17 06 26 10
  23232724.715    -6767590.593 8  -5001939.97546  23232728.322    23232741.4234
  22474823.714   -12942429.617 8 -10076955.00947  22474825.945    22474838.1014
  20339052.420   -22800892.986 9 -17756397.71648  20339054.593    20339063.5024
  22818340.512   -11698329.861 8  -9100452.89746  22818344.714    22818357.0944
  20296554.324   -23746699.781 9 -18489067.34148  20296557.631    20296566.1464
  23960134.054    -3869055.857 8  -2977598.00445  23960137.856    23960149.3554
 00  4 20  0 39  0.0000000  0  6 09 23 17 06 26 10
  23213532.304    -6868507.666 8  -5080576.43146  23213524.231    23213537.2334
  22464659.403   -12995874.727 8 -10118600.50647  22464656.736    22464667.5904
  20331277.737   -22841738.147 9 -17788225.04348  20331281.678    20331290.9904
  22835279.666   -11609324.783 8  -9031098.38346  22835282.022    22835293.8194
  20305156.276   -23701492.928 9 -18453841.20348  20305160.080    20305168.1544
  23974945.635    -3791221.370 8  -2916947.84645  23974947.926    23974962.9854
 00  4 20  0 39 30.0000000  0  6 09 23 17 06 26 10
  23194347.198    -6969260.680 8  -5159085.06046  23194350.767    23194364.0614
  22454506.152   -13049206.556 8 -10160157.71747  22454507.796    22454518.1994
  20323592.009   -22882133.755 9 -17819702.08648  20323594.444    20323603.9404
  22852258.174   -11520108.965 8  -8961579.66746  22852259.510    22852272.1764
  20313856.322   -23655791.496 9 -18418229.65848  20313856.736    20313865.4884
  23989764.901    -3713325.836 8  -2856250.10445  23989772.673    23989785.2614
 00  4 20  0 40  0.0000000  0  6 09 23 17 06 26 10
  23175209.304    -7069831.689 8  -5237451.84946  23175212.713    23175225.4804
  22444379.224   -13102413.450 8 -10201617.56447  22444382.545    22444392.4264
  20315988.498   -22922088.256 9 -17850835.45548  20315991.804    20316000.9174
  22869276.668   -11430680.830 8  -8891895.50546  22869277.460    22869289.6864
  20322643.534   -23609607.389 9 -18382242.03248  20322645.685    20322653.5054
  24004609.068    -3635367.595 8  -2795503.48745  24004608.043    24004620.3584
 00  4 20  0 40 30.0000000  0  6 09 23 17 06 26 10
  23156103.080    -7170223.256 8  -5315678.82246  23156108.710    23156121.6574
  22434277.240   -13155508.148 8 -10242990.00447  22434278.933    22434289.5094
  20308471.420   -22961592.543 9 -17881618.04348  20308474.508    20308483.6094
  22886333.639   -11341032.597 8  -8822039.81446  22886336.689    22886348.7684
  20331522.691   -23562946.304 9 -18345882.71848  20331524.763    20331533.2194
  24019456.905    -3557348.973 8  -2734709.74945  24019453.774    24019464.8804
 00  4 20  0 41  0.0000000  0  6 09 23 17 06 26 10
  23137033.725    -7270428.997 8  -5393761.01446  23137039.967    23137052.8864
  22424192.488   -13208492.193 8 -10284276.20147  22424196.499    22424207.3194
  20301039.863   -23000641.928 9 -17912046.19948  20301043.378    20301052.3134
  22903437.411   -11251157.071 8  -8752007.02546  22903439.488    22903450.6024
  20340485.270   -23515827.370 9 -18309166.62448  20340491.176    20340499.6744
  24034310.605    -3479273.150 8  -2673871.52445  24034310.281    24034323.6794
 00  4 20  0 41 30.0000000  0  6 09 23 17 06 26 10
  23117999.953    -7370456.492 8  -5471704.27646  23118004.319    23118017.9624
  22414133.046   -13261362.873 9 -10325474.06547  22414136.290    22414145.9384
  20293695.022   -23039238.247 9 -17942121.23648  20293698.839    20293707.5684
  22920586.502   -11161057.528 8  -8681799.65846  22920584.729    22920595.6444
  20349539.874   -23468257.001 9 -18272098.79348  20349543.762    20349551.9394
  24049173.230    -3401154.575 8  -2613000.02645  24049177.196    24049190.7434
 00  4 20  0 42  0.0000000  0  6 09 23 17 06 26 10
  23099004.311    -7470319.853 8  -5549519.66946  23099001.892    23099014.0514
  22404091.901   -13314134.317 9 -10366594.58347  22404093.998    22404103.5714
  20286440.062   -23077369.519 9 -17971833.87648  20286442.485    20286451.5944
  22937773.497   -11070727.355 8  -8611412.61046  22937774.538    22937786.7734
  20358679.824   -23420229.887 9 -18234675.04848  20358682.812    20358690.7474
  24064049.514    -3323000.883 8  -2552101.12345  24064048.653    24064062.4094
 00  4 20  0 42 30.0000000  0  6 09 23 17 06 26 10
  23080026.391    -7570020.771 8  -5627208.50046  23080029.457    23080041.5954
  22394064.727   -13366805.747 8 -10407637.19247  22394070.076    22394080.1054
  20279271.474   -23115036.514 9 -18001184.78048  20279274.899    20279284.0874
  22954996.502   -10980183.442 8  -8540859.04546  22955004.354    22955016.9094
  20367908.078   -23371739.615 9 -18196890.40548  20367910.027    20367918.9074
  24078929.307    -3244821.903 8  -2491182.49845  24078924.832    24078938.8504
 00  4 20  0 43  0.0000000  0  6 09 23 17 06 26 10
  23061085.492    -7669546.914 8  -5704761.14446  23061089.088    23061101.7314
  22384065.592   -13419362.970 8 -10448590.79747  22384068.825    22384078.9504
  20272192.565   -23152246.648 9 -18030179.64948  20272194.069    20272203.1574
  22972269.823   -10889439.379 8  -8470149.50646  22972272.741    22972284.2524
  20377222.130   -23322788.013 9 -18158746.27748  20377225.336    20377233.8294
  24093810.325    -3166614.720 8  -2430241.91445  24093808.680    24093820.4664
 00  4 20  0 43 30.0000000  0  6 09 23 17 06 26 10
  23042178.018    -7768894.220 8  -5782174.44646  23042183.706    23042196.4704
  22374087.273   -13471799.756 8 -10489450.55347  22374089.978    22374100.4564
  20265199.425   -23188988.750 9 -18058809.74448  20265202.183    20265211.1064
  22989576.805   -10798487.511 8  -8399278.05346  22989578.977    22989593.1434
  20386625.348   -23273376.225 9 -18120243.56048  20386628.195    20386636.6244
  24108698.542    -3088393.278 8  -2369290.22545  24108694.464    24108706.8104
 00  4 20  0 44  0.0000000  0  6 09 23 17 06 26 10
  23023313.569    -7868047.181 8  -5859436.29146  23023314.913    23023328.2704
  22364130.535   -13524119.337 8 -10530218.96647  22364133.489    22364143.9184
  20258297.779   -23225256.017 9 -18087069.80448  20258300.701    20258309.5354
  23006923.175   -10707316.341 8  -8328235.69246  23006929.252    23006941.4614
  20396117.519   -23223497.511 9 -18081377.00848  20396119.812    20396128.2994
  24123584.680    -3010148.606 8  -2308320.40145  24123584.117    24123596.4834
 00  4 20  0 44 30.0000000  0  6 09 23 17 06 26 10
  23004480.126    -7966997.213 8  -5936539.99946  23004486.521    23004498.1904
  22354193.957   -13576322.089 8 -10570896.31847  22354199.607    22354209.8884
  20251483.809   -23261056.157 9 -18114965.89848  20251487.949    20251496.9494
  23024315.580   -10615934.818 8  -8257029.38946  23024318.341    23024332.0254
  20405694.244   -23173160.326 9 -18042153.23648  20405698.593    20405707.1934
  24138479.581    -2931863.407 8  -2247319.07345  24138479.820    24138493.8164
 00  4 20  0 45  0.0000000  0  6 09 23 17 06 26 10
  22985693.514    -8065745.842 8  -6013486.80746  22985695.217    22985706.4374
  22344284.506   -13628412.110 8 -10611485.86247  22344287.688    22344298.3354
  20244762.462   -23296379.905 9 -18142490.90548  20244766.141    20244775.2534
  23041745.502   -10524332.314 8  -8185650.93346  23041750.832    23041762.3524
  20415360.243   -23122375.147 9 -18002580.39448  20415362.751    20415371.2014
  24153381.395    -2853531.697 7  -2186281.49045  24153386.008    24153399.1854
 00  4 20  0 45 30.0000000  0  6 09 23 17 06 26 10
  22966931.403    -8164295.845 8  -6090278.84046  22966940.403    22966953.2844
  22334392.819   -13680395.209 8 -10651992.05947  22334396.097    22334406.5574
  20238131.886   -23331218.951 9 -18169638.22048  20238136.002    20238145.4324
  23059217.436   -10432515.444 8  -8114105.40746  23059222.962    23059234.6224
  20425109.107   -23071143.532 9 -17962659.68748  20425111.907    20425120.3934
  24168302.269    -2775154.581 8  -2125208.49645  24168301.327    24168313.0994
 00  4 20  0 46  0.0000000  0  6 09 23 17 06 26 10
  22948220.565    -8262649.118 8  -6166917.56146  22948224.288    22948237.2384
  22324520.895   -13732276.100 9 -10692418.60147  22324523.329    22324533.8054
  20231594.562   -23365581.207 9 -18196413.88248  20231597.828    20231606.1574
  23076728.489   -10340510.446 8  -8042413.30546  23076730.936    23076743.1834
  20434942.583   -23019463.284 9 -17922389.39848  20434946.269    20434954.7374
  24183225.291    -2696716.829 8  -2064088.22945  24183227.657    24183240.5994
 00  4 20  0 46 30.0000000  0  6 09 23 17 06 26 10
  22929534.303    -8360806.026 8  -6243403.27046  22929544.807    22929558.4404
  22314666.016   -13784049.586 8 -10732761.47847  22314670.659    22314681.1064
  20225146.486   -23399466.370 9 -18222817.73448  20225149.173    20225157.9524
  23094271.858   -10248333.174 8  -7970586.96646  23094272.078    23094282.6064
  20444862.470   -22967349.997 9 -17881781.63648  20444862.883    20444871.6144
  24198156.979    -2618220.132 7  -2002922.05545  24198165.073    24198177.5324
 00  4 20  0 47  0.0000000  0  6 09 23 17 06 26 10
  22910897.782    -8458764.209 8  -6319734.09846  22910904.674    22910917.1594
  22304836.120   -13835716.915 9 -10773021.63347  22304839.023    22304848.6884
  20218790.411   -23432865.513 9 -18248842.88248  20218793.392    20218802.2704
  23111836.955   -10155984.981 8  -7898627.42246  23111844.206    23111855.2004
  20454860.517   -22914799.186 9 -17840832.92948  20454863.052    20454871.6494
  24213113.156    -2539677.891 7  -1941720.39045  24213110.910    24213123.7254
 00  4 20  0 47 30.0000000  0  6 09 23 17 06 26 10
  22892300.243    -8556522.873 8  -6395909.47946  22892302.290    22892314.1034
  22295017.366   -13887292.674 8 -10813210.45747  22295023.691    22295033.7794
  20212526.355   -23465782.323 9 -18274492.20248  20212529.559    20212538.3924
  23129449.591   -10063470.112 8  -7826538.00846  23129449.594    23129462.0224
  20464945.299   -22861800.711 9 -17799535.40248  20464948.026    20464957.0764
  24228061.255    -2461092.191 8  -1880484.90045  24228065.417    24228077.3854
 00  4 20  0 48  0.0000000  0  6 09 23 17 06 26 10
  22873728.152    -8654086.785 8  -6471933.12246  22873735.779    22873748.2984
  22285224.485   -13938781.850 9 -10853331.78847  22285225.837    22285236.2284
  20206355.063   -23498215.598 9 -18299764.77548  20206357.704    20206366.2324
  23147083.575    -9970773.282 8  -7754306.82746  23147088.192    23147101.1964
  20475116.804   -22808353.172 9 -17757887.96648  20475119.143    20475127.5254
  24243030.181    -2382462.344 8  -1819214.95845  24243029.887    24243040.2664
 00  4 20  0 48 30.0000000  0  6 09 23 17 06 26 10
  22855209.043    -8751459.727 8  -6547807.95146  22855206.429    22855218.4154
  22275444.043   -13990186.238 9 -10893387.08447  22275444.529    22275454.6884
  20200275.951   -23530160.189 9 -18324656.61848  20200278.632    20200287.7994
  23164763.914    -9877881.407 8  -7681923.65146  23164764.969    23164779.2134
  20485375.230   -22754449.055 9 -17715884.75948  20485376.838    20485385.0064
  24257991.352    -2303800.200 7  -1757919.84245  24257996.566    24258009.5724
 00  4 20  0 49  0.0000000  0  6 09 23 17 06 26 10
  22836716.041    -8848641.534 8  -6623533.84446  22836713.610    22836725.1264
  22265673.725   -14041517.868 9 -10933385.70947  22265676.227    22265686.5064
  20194292.175   -23561603.994 9 -18349158.28948  20194295.107    20194304.4574
  23182472.851    -9784794.924 8  -7609388.85346  23182479.163    23182492.9614
  20495717.903   -22700084.792 9 -17673523.02148  20495721.898    20495730.4964
  24272964.790    -2225113.345 7  -1696605.52545  24272970.229    24272983.4684
 00  4 20  0 49 30.0000000  0  6 09 23 17 06 26 10
  22818259.442    -8945617.489 8  -6699099.31246  22818259.430    22818270.9854
  22255923.585   -14092764.129 9 -10973317.81647  22255924.085    22255934.3284
  20188404.943   -23592536.192 9 -18373261.46448  20188408.538    20188418.2084
  23200226.281    -9691527.900 8  -7536713.34646  23200228.254    23200240.1264
  20506151.353   -22645268.984 9 -17630809.38448  20506153.301    20506161.7134
  24287949.241    -2146393.732 7  -1635265.69445  24287952.136    24287965.0434
 00  4 20  0 50  0.0000000  0  6 09 23 17 06 26 10
  22799844.043    -9042367.657 8  -6774488.87246  22799848.616    22799860.1824
  22246191.379   -14143897.514 9 -11013161.98247  22246193.621    22246204.2494
  20182618.844   -23622945.883 9 -18396957.31348  20182622.243    20182630.7804
  23218004.942    -9598093.860 8  -7463907.67846  23218009.231    23218019.0564
  20516662.782   -22590023.357 9 -17587760.82548  20516665.564    20516674.6874
  24302941.035    -2067633.887 8  -1573894.48245  24302939.682    24302952.6304
 00  4 20  0 50 30.0000000  0  6 09 23 17 06 26 10
  22781476.832    -9138864.093 8  -6849680.73146  22781485.689    22781497.5944
  22236482.180   -14194908.728 9 -11052910.95647  22236486.491    22236497.0384
  20176933.654   -23652820.570 9 -18420236.11548  20176936.778    20176946.1854
  23235812.109    -9504515.853 8  -7390989.80946  23235815.636    23235826.1644
  20527256.354   -22534359.054 9 -17544386.04748  20527258.493    20527267.0114
  24317933.166    -1988829.719 7  -1512488.70245  24317935.261    24317947.2624
 00  4 20  0 51  0.0000000  0  6 09 23 17 06 26 10
  22763172.001    -9235086.887 8  -6924659.35346  22763175.007    22763185.8834
  22226803.810   -14245778.072 9 -11092549.41447  22226806.437    22226816.9174
  20171352.021   -23682155.023 9 -18443094.15148  20171354.905    20171364.0904
  23253647.062    -9410801.481 8  -7317965.71846  23253649.455    23253661.2144
  20537924.632   -22478287.633 9 -17500694.00948  20537927.947    20537936.7914
  24332944.455    -1909965.192 7  -1451035.92745  24332941.313    24332956.3744
 00  4 20  0 51 30.0000000  0  6 09 23 17 06 26 10
  22744922.100    -9331035.163 8  -6999424.05446  22744916.777    22744928.1234
  22217154.423   -14296491.698 9 -11132066.53147  22217156.145    22217166.2094
  20165869.901   -23710962.297 9 -18465541.50148  20165873.127    20165882.0704
  23271507.505    -9316944.420 8  -7244830.43646  23271508.983    23271521.8374
  20548673.699   -22421806.326 9 -17456682.59148  20548676.490    20548684.9044
  24347959.494    -1831025.058 7  -1389524.21445  24347963.743    24347976.1344
 00  4 20  0 52  0.0000000  0  6 09 23 17 06 26 10
  22726698.504    -9426725.439 8  -7073987.71146  22726706.250    22726718.4574
  22207526.630   -14347064.323 8 -11171473.75747  22207531.620    22207542.7774
  20160486.960   -23739252.955 9 -18487586.31848  20160489.440    20160498.8134
  23289402.282    -9222921.721 8  -7171566.07846  23289401.483    23289414.2914
  20559500.607   -22364910.019 9 -17412347.78348  20559503.656    20559511.7174
  24362987.727    -1752019.811 7  -1327961.75145  24362998.129    24363012.2114
 00  4 20  0 52 30.0000000  0  6 09 23 17 06 26 10
  22708539.509    -9522171.636 8  -7148361.20946  22708544.220    22708555.2164
  22197931.523   -14397510.426 9 -11210782.36547  22197932.845    22197943.7964
  20155198.164   -23767039.443 9 -18509238.24748  20155201.737    20155211.2284
  23307319.632    -9128729.255 8  -7098169.45346  23307324.967    23307338.1814
  20570409.036   -22307580.931 9 -17367675.73648  20570412.472    20570421.0904
  24378038.984    -1672962.809 7  -1266358.99245  24378042.966    24378055.5734
 00  4 20  0 53  0.0000000  0  6 09 23 17 06 26 10
  22690418.812    -9617397.442 8  -7222562.97946  22690423.122    22690434.2284
  22188352.527   -14447846.151 9 -11250004.89147  22188354.903    22188365.2284
  20150004.719   -23794340.641 9 -18530511.91348  20150006.978    20150016.0834
  23325283.144    -9034353.100 8  -7024629.71546  23325284.846    23325297.6604
  20581400.068   -22249814.891 9 -17322663.19648  20581405.283    20581413.3194
  24393086.042    -1593866.042 7  -1204725.26945  24393093.640    24393107.5364
 00  4 20  0 53 30.0000000  0  6 09 23 17 06 26 10
  22672340.673    -9712410.748 8  -7296599.14146  22672342.310    22672354.5994
  22178790.130   -14498101.182 9 -11289164.54847  22178791.106    22178801.9474
  20144902.115   -23821151.113 9 -18551403.16348  20144904.823    20144913.9834
  23343280.646    -8939792.004 8  -6950945.82646  23343279.113    23343292.1124
  20592476.866   -22191624.736 9 -17277320.21048  20592478.662    20592486.8074
  24408143.939    -1514746.388 7  -1143073.71745  24408148.309    24408162.7594
 00  4 20  0 54  0.0000000  0  6 09 23 17 06 26 10
  22654298.050    -9807200.386 8  -7370461.01346  22654304.423    22654315.8404
  22169236.915   -14548274.556 8 -11328260.61847  22169242.120    22169253.6544
  20139893.852   -23847465.137 9 -18571907.46448  20139897.361    20139906.4644
  23361300.682    -8845061.174 8  -6877129.67046  23361305.701    23361317.6344
  20603630.868   -22133013.380 9 -17231649.05648  20603632.673    20603639.7574
  24423208.689    -1435624.325 7  -1081420.25145  24423205.709    24423220.3234
 00  4 20  0 54 30.0000000  0  6 09 23 17 06 26 10
  22636308.989    -9901747.758 8  -7444134.12146  22636311.579    22636324.0134
  22159709.420   -14598358.346 9 -11367286.88447  22159712.265    22159723.1354
  20134982.743   -23873280.303 9 -18592022.99548  20134984.948    20134994.0374
  23379358.602    -8750182.936 8  -6803198.66846  23379360.513    23379372.8144
  20614862.645   -22073991.330 9 -17185657.79948  20614863.876    20614871.3084
  24438252.464    -1356493.900 7  -1019760.26045  24438264.586    24438277.5524
 00  4 20  0 55  0.0000000  0  6 09 23 17 06 26 10
  22618364.708    -9996045.804 8  -7517612.95946  22618366.940    22618378.9754
  22150196.020   -14648350.382 9 -11406241.60447  22150199.084    22150210.3104
  20130166.031   -23898583.353 9 -18611739.54948  20130170.167    20130178.5884
  23397443.626    -8655153.213 8  -6729149.62446  23397444.167    23397457.0044
  20626166.493   -22014572.144 9 -17139357.12448  20626170.157    20626178.5084
  24453331.104    -1277350.127 7   -958089.90445  24453326.041    24453338.0904
 00  4 20  0 55 30.0000000  0  6 09 23 17 06 26 10
  22600468.915   -10090071.806 8  -7590879.83346  22600475.898    22600485.9724
  22140706.108   -14698232.100 9 -11445110.41447  22140707.058    22140717.7094
  20125449.574   -23923370.731 9 -18631054.28148  20125452.909    20125461.6924
  23415552.070    -8559993.013 8  -6654998.93546  23415553.394    23415565.0244
  20637551.102   -21954755.609 9 -17092746.81548  20637552.806    20637561.3874
  24468381.449    -1198182.964 7   -896401.28945  24468390.145    24468402.4964
 00  4 20  0 56  0.0000000  0  6 09 23 17 06 26 10
  22582628.213   -10183816.338 8  -7663927.37446  22582635.842    22582647.2494
  22131237.160   -14747980.976 8 -11483875.72647  22131238.762    22131250.0174
  20120830.352   -23947650.926 9 -18649973.84148  20120832.535    20120841.2384
  23433683.303    -8464714.634 8  -6580756.14945  23433683.970    23433694.6774
  20649012.393   -21894524.787 9 -17045813.70648  20649014.754    20649023.0644
  24483457.522    -1118979.461 7   -834684.40745  24483462.804    24483475.7404
 00  4 20  0 56 30.0000000  0  6 09 23 17 06 26 10
  22564853.660   -10277281.698 8  -7736757.33846  22564849.403    22564861.4304
  22121793.713   -14797607.226 9 -11522545.39647  22121795.871    22121806.2454
  20116306.910   -23971414.348 9 -18668490.72748  20116310.514    20116318.9074
  23451830.838    -8369322.878 8  -6506424.96945  23451836.974    23451847.5234
  20660549.346   -21833895.301 9 -16998569.95548  20660552.200    20660560.3254
  24498553.280    -1039718.394 7   -772922.63145  24498545.577    24498558.0654
 00  4 20  0 57  0.0000000  0  6 09 23 17 06 26 10
  22547107.308   -10370465.595 8  -7809367.98846  22547117.470    22547129.4104
  22112374.727   -14847108.739 9 -11561117.86447  22112377.011    22112386.3544
  20111884.599   -23994658.174 9 -18686602.72948  20111887.327    20111895.8154
  23470010.911    -8273824.109 8  -6432010.43746  23470010.102    23470021.2754
  20672162.581   -21772866.569 9 -16951015.10748  20672165.558    20672174.1244
  24513636.265     -960393.434 7   -711111.08545  24513640.435    24513653.5874
 00  4 20  0 57 30.0000000  0  6 09 23 17 06 26 10
  22529431.031   -10463365.818 8  -7881757.60346  22529439.972    22529450.7484
  22102977.952   -14896483.859 9 -11599591.84447  22102980.683    22102990.5424
  20107560.798   -24017378.196 9 -18704306.57348  20107563.631    20107572.4694
  23488204.675    -8178235.936 8  -6357526.26845  23488199.432    23488211.4194
  20683851.048   -21711436.877 9 -16903147.78448  20683855.261    20683863.9924
  24528746.248     -881001.721 7   -649247.50645  24528749.451    24528761.4054
 00  4 20  0 58  0.0000000  0  6 09 23 17 06 26 10
  22511818.230   -10555988.716 8  -7953931.14346  22511814.609    22511824.8354
  22093601.180   -14945748.460 9 -11637979.73747  22093605.389    22093616.0104
  20103338.341   -24039561.641 9 -18721592.31348  20103342.424    20103351.1064
  23506397.961    -8082553.912 8  -6282968.96545  23506406.496    23506419.6244
  20695618.042   -21649613.788 9 -16854973.91848  20695619.907    20695628.3684
  24543872.712     -801542.079 8   -587331.01145  24543869.968    24543881.0894
 00  4 20  0 58 30.0000000  0  6 09 23 17 06 26 10
  22494235.230   -10648334.857 8  -8025889.00846  22494240.516    22494252.1814
  22084244.304   -14994913.620 8 -11676290.12547  22084248.979    22084260.4364
  20099222.436   -24061204.078 9 -18738456.48348  20099224.330    20099232.3384
  23524627.047    -7986772.822 8  -6208334.44945  23524632.802    23524646.0584
  20707453.939   -21587413.749 9 -16806506.31948  20707456.487    20707464.3634
  24559004.343     -722028.092 7   -525372.20845  24558999.843    24559014.4064
 00  4 20  0 59  0.0000000  0  6 09 23 17 06 26 10
  22476718.044   -10740404.612 8  -8097631.50446  22476720.111    22476730.8494
  22074907.804   -15043974.476 9 -11714519.24547  22074913.368    22074924.0874
  20095201.891   -24082314.587 9 -18754906.16148  20095206.691    20095215.1194
  23542876.754    -7890890.771 8  -6133621.27145  23542879.634    23542891.5364
  20719364.810   -21524824.155 9 -16757735.19848  20719366.863    20719374.5084
  24574135.394     -642481.497 7   -463387.93945  24574137.149    24574149.9694
 00  4 20  0 59 30.0000000  0  6 09 23 17 06 26 10
  22459250.670   -10832208.487 8  -8169166.82046  22459251.223    22459261.1214
  22065592.373   -15092937.032 9 -11752671.74847  22065596.725    22065606.7374
  20091289.266   -24102884.714 9 -18770934.73848  20091292.175    20091300.8774
  23561146.761    -7794903.390 8  -6058825.99746  23561145.640    23561157.9104
  20731346.439   -21461849.087 9 -16708663.73148  20731350.361    20731358.7804
  24589269.405     -562913.764 7   -401387.20544  24589277.351    24589290.5484
 00  4 20  1  0  0.0000000  0  6 09 23 17 06 26 10
  22441829.878   -10923739.645 8  -8240489.65646  22441832.589    22441843.1684
  22056296.964   -15141797.682 9 -11790744.87247  22056298.991    22056308.6544
  20087477.484   -24122914.353 9 -18786542.15448  20087480.680    20087489.4274
  23579427.871    -7698800.939 8  -5983941.07045  23579433.183    23579446.0314
  20743401.486   -21398493.814 9 -16659296.01347  20743405.960    20743414.5904
  24604417.783     -483324.133 7   -339369.38644  24604421.230    24604438.7804
 00  4 20  1  0 30.0000000  0  6 09 23 17 06 26 10
  22424462.129   -11014993.091 8  -8311596.10046  22424468.201    22424478.9714
  22047020.496   -15190539.656 9 -11828725.53047  22047022.630    22047033.7994
  20083771.456   -24142399.106 9 -18801725.03448  20083772.881    20083781.5074
  23597739.958    -7602584.223 8  -5908967.09445  23597742.010    23597755.4154
  20755531.153   -21334761.934 9 -16609634.74948  20755534.024    20755542.4864
  24619572.452     -403714.300 7   -277335.90345  24619573.427    24619588.3544
 00  4 20  1  1  0.0000000  0  6 09 23 17 06 26 10
  22407152.218   -11105971.612 8  -8382488.31246  22407154.568    22407165.4364
  22037764.647   -15239167.076 8 -11866616.90647  22037768.417    22037779.7904
  20080166.020   -24161331.672 9 -18816477.70548  20080169.945    20080178.9574
  23616073.173    -7506260.987 8  -5833910.16545  23616072.237    23616084.6734
  20767732.558   -21270644.523 9 -16559673.14647  20767735.385    20767743.2534
  24634730.751     -324060.232 7   -215267.90845  24634731.009    24634742.4514
 00  4 20  1  1 30.0000000  0  6 09 23 17 06 26 10
  22389894.100   -11196649.225 8  -8453146.03346  22389899.139    22389909.8434
  22028535.044   -15287682.062 9 -11904420.70347  22028537.041    22028547.1704
  20076670.845   -24179703.241 9 -18830793.28648  20076674.039    20076683.1374
  23634422.070    -7409829.498 8  -5758768.88545  23634423.159    23634435.1654
  20780005.775   -21206152.900 9 -16509419.92547  20780007.331    20780015.2514
  24649910.450     -244331.657 7   -153141.87245  24649905.279    24649916.8694
 00  4 20  1  2  0.0000000  0  6 09 23 17 06 26 10
  22372704.619   -11287008.601 8  -8523555.81046  22372703.593    22372714.5664
  22019324.233   -15336085.838 9 -11942137.85947  22019326.377    22019335.5384
  20073278.385   -24197528.329 9 -18844683.00348  20073281.902    20073290.7264
  23652790.259    -7313288.857 8  -5683542.49846  23652795.136    23652806.4314
  20792344.898   -21141294.052 9 -16458880.56947  20792349.593    20792357.6124
  24665093.471     -164521.524 7    -90952.27344  24665089.247    24665103.3574
 00  4 20  1  2 30.0000000  0  6 09 23 17 06 26 10
  22355565.224   -11377046.552 8  -8593715.11846  22355570.397    22355581.1564
  22010130.217   -15384390.655 9 -11979777.92347  22010133.580    22010143.6694
  20069987.500   -24214821.435 9 -18858158.11248  20069991.163    20070000.0874
  23671183.187    -7216645.166 8  -5608235.82546  23671184.688    23671198.9504
  20804758.415   -21076072.291 9 -16408058.46747  20804761.263    20804769.2994
  24680282.387      -84642.182 7    -28708.75544  24680289.565    24680303.1924
 00  4 20  1  3  0.0000000  0  6 09 23 17 06 26 10
  22338498.334   -11466754.256 8  -8663617.06746  22338499.248    22338510.1654
  22000954.051   -15432601.541 9 -12017344.80547  22000959.093    22000969.3994
  20066795.615   -24231596.024 9 -18871229.14748  20066799.158    20066808.0124
  23689598.151    -7119894.129 8  -5532845.51445  23689595.567    23689609.3904
  20817238.280   -21010491.549 9 -16356956.64248  20817241.115    20817249.2164
  24695500.753       -4711.656 7     33574.67144  24695500.630    24695515.3454
 00  4 20  1  3 30.0000000  0  6 09 23 17 06 26 10
  22321490.500   -11556115.424 8  -8733249.00046  22321494.234    22321505.6794
  21991802.575   -15480707.686 9 -12054830.11347  21991805.237    21991815.3884
  20063700.968   -24247865.754 9 -18883906.81048  20063703.177    20063711.5714
  23708015.766    -7023037.211 8  -5457372.66245  23708027.183    23708040.5544
  20829779.333   -20944577.129 9 -16305594.79547  20829783.520    20829792.2754
  24710713.764       75236.694 7     95872.00145  24710714.082    24710730.0584
 00  4 20  1  4  0.0000000  0  6 09 23 17 06 26 10
  22304546.051   -11645149.566 8  -8802626.13946  22304551.685    22304562.6264
  21982671.497   -15528702.638 9 -12092228.75047  21982672.509    21982682.5004
  20060699.934   -24263634.923 9 -18896194.43948  20060702.197    20060710.7834
  23726476.408    -6926086.088 8  -5381826.44045  23726476.050    23726488.3274
  20842388.917   -20878321.787 9 -16253967.30947  20842391.669    20842399.9644
  24725935.407      155175.337 7    158161.71245  24725928.261    24725941.0844
 00  4 20  1  4 30.0000000  0  6 09 23 17 06 26 10
  22287674.894   -11733853.050 8  -8871745.58446  22287671.370    22287682.5954
  21973557.958   -15576583.082 9 -12129538.17647  21973561.009    21973570.5914
  20057796.190   -24278883.631 9 -18908076.50348  20057800.495    20057809.0904
  23744937.642    -6829055.186 8  -5306218.03945  23744940.691    23744954.1924
  20855066.241   -20811716.784 9 -16202067.32747  20855066.284    20855074.2614
  24741135.563      235103.383 7    220443.15344  24741136.778    24741154.4134
 00  4 20  1  5  0.0000000  0  6 09 23 17 06 26 10
  22270854.460   -11822224.406 8  -8940606.24946  22270855.688    22270865.8204
  21964471.296   -15624343.561 9 -12166754.13647  21964472.596    21964481.5154
  20055000.647   -24293588.056 9 -18919534.40048  20055002.475    20055011.0634
  23763421.926    -6731953.419 8  -5230554.40645  23763419.373    23763431.3204
  20867806.129   -20744756.848 9 -16149890.70647  20867808.587    20867816.3824
  24756340.451      315046.128 7    282736.09544  24756349.836    24756364.0124
 00  4 20  1  5 30.0000000  0  6 09 23 17 06 26 10
  22254095.024   -11910271.396 8  -9009214.16346  22254100.388    22254110.5094
  21955403.638   -15671990.875 9 -12203881.85147  21955405.345    21955415.1694
  20052306.803   -24307732.687 9 -18930556.12648  20052310.691    20052319.2024
  23781902.350    -6634791.280 8  -5154843.74345  23781908.237    23781921.9884
  20880620.777   -20677423.238 9 -16097422.91247  20880621.612    20880629.2534
  24771562.820      395032.068 7    345062.68144  24771570.556    24771586.2824
 00  4 20  1  6  0.0000000  0  6 09 23 17 06 26 10
  22237401.298   -11998009.717 8  -9077581.57146  22237403.956    22237414.5684
  21946358.944   -15719521.945 9 -12240918.94147  21946360.638    21946370.1174
  20049729.324   -24321292.108 9 -18941121.85348  20049730.448    20049739.1434
  23800406.266    -6537568.333 8  -5079085.69745  23800408.481    23800422.2774
  20893504.973   -20609690.592 9 -16044644.27947  20893510.557    20893518.8044
  24786797.842      475088.979 7    407444.57044  24786804.317    24786818.1344
 00  4 20  1  6 30.0000000  0  5 09 23 17 06 26
  22220763.673   -12085439.843 8  -9145708.82046  22220767.176    22220777.6454
  21937334.004   -15766942.528 9 -12277869.95047  21937336.545    21937345.9784
  20047261.222   -24334251.222 9 -18951219.77648  20047264.269    20047273.0124
  23818919.479    -6440275.903 8  -5003273.54345  23818924.015    23818936.6144
  20906468.614   -20541568.477 9 -15991562.14547  20906473.944    20906481.9744
 00  4 20  1  7  0.0000000  0  5 09 23 17 06 26
  22204181.749   -12172570.721 8  -9213602.89746  22204186.592    22204196.7354
  21928328.361   -15814251.719 9 -12314734.14247  21928333.056    21928343.3844
  20044907.199   -24346614.513 9 -18960853.46448  20044911.231    20044919.9074
  23837445.460    -6342907.064 8  -4927401.83745  23837451.651    23837465.2614
  20919506.387   -20473066.328 9 -15938183.81247  20919509.495    20919517.4824
 00  4 20  1  7 30.0000000  0  5 09 23 17 06 26
  22187657.037   -12259395.220 8  -9281258.21246  22187663.634    22187673.8414
  21919351.498   -15861443.540 9 -12351506.85547  21919353.295    21919363.2974
  20042666.444   -24358396.326 9 -18970034.05148  20042669.348    20042677.9584
  23855994.780    -6245463.379 8  -4851471.82345  23855994.517    23856008.5124
  20932610.677   -20404197.214 9 -15884519.52647  20932614.302    20932622.9074
 00  4 20  1  8  0.0000000  0  5 09 23 17 06 26
  22171199.905   -12345896.534 8  -9348661.71846  22171203.407    22171213.1174
  21910390.568   -15908519.968 9 -12388189.71647  21910395.037    21910404.8474
  20040534.972   -24369602.036 9 -18978765.73448  20040536.873    20040545.6274
  23874550.283    -6147950.408 7  -4775487.83345  23874550.427    23874564.5884
  20945779.819   -20334990.179 9 -15830591.92147  20945784.602    20945792.5304
 00  4 20  1  8 30.0000000  0  5 09 23 17 06 26
  22154808.818   -12432040.447 8  -9415786.70346  22154811.024    22154820.3664
  21901453.460   -15955492.796 9 -12424791.84447  21901456.483    21901465.5584
  20038508.549   -24380246.701 9 -18987060.24048  20038511.197    20038519.8974
  23893102.570    -6050381.741 7  -4699460.43645  23893116.917    23893131.1004
  20959014.162   -20265467.872 9 -15776418.62247  20959013.985    20959022.0104
 00  4 20  1  9  0.0000000  0  5 09 23 17 06 26
  22138490.110   -12517803.189 8  -9482614.67747  22138490.322    22138500.8784
  21892536.920   -16002349.512 9 -12461303.52347  21892539.539    21892549.2814
  20036586.082   -24390343.477 9 -18994927.81748  20036589.782    20036598.5274
  23911688.577    -5952780.151 8  -4623407.33245  23911692.185    23911703.9044
  20972297.963   -20195635.316 9 -15722003.60947  20972302.368    20972310.8134
 00  4 20  1  9 30.0000000  0  5 09 23 17 06 26
  22122240.701   -12603175.379 8  -9549138.32647  22122244.370    22122255.0074
  21883640.965   -16049089.328 9 -12497724.08647  21883645.777    21883655.2334
  20034770.080   -24399884.635 9 -19002362.48648  20034774.068    20034782.9344
  23930269.437    -5855146.334 8  -4547329.13445  23930269.817    23930282.7534
  20985646.108   -20125487.116 9 -15667342.67347  20985651.317    20985659.4354
 00  4 20  1 10  0.0000000  0  6 03 09 23 17 06 26
  24642088.299     -871306.00618   -668354.96155  24642086.272    24642098.3714
  22106070.925   -12688154.677 8  -9615355.81547  22106073.040    22106084.1314
  21874771.912   -16095709.422 9 -12534051.35847  21874773.838    21874783.7034
  20033063.552   -24408862.194 9 -19009358.01948  20033066.008    20033074.3674
  23948840.696    -5757480.386 7  -4471225.87745  23948854.310    23948870.0264
  20999057.985   -20055020.115 9 -15612433.31147  20999060.492    20999068.4424
 00  4 20  1 10 30.0000000  0  6 03 09 23 17 06 26
  24634348.295     -911937.761 7   -700016.02745  24634352.240    24634364.8024
  22089973.049   -12772749.743 8  -9681273.90747  22089975.410    22089985.3604
  21865921.514   -16142204.044 9 -12570280.74247  21865925.448    21865935.4704
  20031463.757   -24417266.569 9 -19015906.79548  20031466.744    20031475.0844
  23967442.188    -5659790.467 8  -4395103.97645  23967445.638    23967460.6194
  21012530.881   -19984224.222 9 -15557267.64447  21012532.907    21012540.7554
 00  4 20  1 11  0.0000000  0  6 03 09 23 17 06 26
  24626709.304     -952056.778 7   -731277.55645  24626716.739    24626731.3224
  22073943.155   -12856989.343 8  -9746915.03547  22073945.513    22073954.9414
  21857101.413   -16188575.931 9 -12606414.60147  21857101.969    21857111.1014
  20029973.312   -24425096.348 9 -19022007.83148  20029976.545    20029984.8454
  23986046.761    -5562058.704 8  -4318949.49245  23986044.353    23986057.2554
  21026066.463   -19913087.933 9 -15501836.81447  21026069.273    21026077.9934
 00  4 20  1 11 30.0000000  0  6 03 09 23 17 06 26
  24619175.607     -991679.048 7   -762152.01945  24619177.980    24619190.4084
  22057977.789   -12940885.021 8  -9812288.17547  22057980.597    22057990.3114
  21848297.197   -16234842.731 9 -12642466.64347  21848297.829    21848306.6124
  20028592.143   -24432350.884 9 -19027660.62048  20028595.822    20028604.3764
  24004648.459    -5464271.962 8  -4242752.15445  24004652.097    24004665.1224
  21039668.676   -19841615.328 9 -15446143.84047  21039669.977    21039678.2994
 00  4 20  1 12  0.0000000  0  6 03 09 23 17 06 26
  24611733.092    -1030803.093 7   -792638.27445  24611731.916    24611747.4164
  22042077.025   -13024434.987 8  -9877391.92447  22042080.791    22042090.9504
  21839507.441   -16281017.264 9 -12678446.76747  21839510.959    21839520.1544
  20027319.828   -24439048.591 9 -19032879.61148  20027321.400    20027329.8354
  24023260.915    -5366449.270 7  -4166526.79445  24023264.107    24023278.3204
  21053328.964   -19769824.283 9 -15390202.73347  21053331.493    21053340.0334
 00  4 20  1 12 30.0000000  0  6 03 09 23 17 06 26
  24604377.108    -1069414.688 7   -822725.25545  24604385.191    24604398.2614
  22026243.968   -13107650.481 8  -9942235.02847  22026245.927    22026255.3514
  21830738.920   -16327107.185 9 -12714360.93347  21830740.574    21830750.0844
  20026148.522   -24445193.973 9 -19037668.22648  20026152.169    20026160.3824
  24041886.122    -5268586.248 8  -4090269.96645  24041888.670    24041901.2084
  21067048.265   -19697717.208 9 -15334015.36047  21067053.112    21067061.2604
 00  4 20  1 13  0.0000000  0  6 03 09 23 17 06 26
  24597126.553    -1107523.349 7   -852420.33045  24597133.240    24597149.7334
  22010473.521   -13190530.061 8 -10006816.40147  22010474.552    22010484.0354
  21821984.151   -16373110.064 9 -12750207.31647  21821986.348    21821996.2884
  20025083.089   -24450799.466 9 -19042036.14448  20025085.167    20025094.1174
  24060511.839    -5170677.586 7  -4013977.56945  24060520.450    24060535.1294
  21080830.750   -19625303.936 9 -15277589.41347  21080832.792    21080841.1494
 00  4 20  1 13 30.0000000  0  6 03 09 23 17 06 26
  24589982.319    -1145122.229 7   -881718.13245  24589978.677    24589992.3944
  21994764.670   -13273056.850 8 -10071122.85047  21994769.764    21994779.9074
  21813248.127   -16419018.331 9 -12785980.07047  21813250.178    21813259.2804
  20024119.434   -24455857.073 9 -19045977.18548  20024122.634    20024131.5044
  24079156.511    -5072747.942 7  -3937668.87945  24079157.102    24079170.6924
  21094670.091   -19552591.155 9 -15220930.07647  21094669.991    21094677.3224
 00  4 20  1 14  0.0000000  0  7 03 21 09 23 17 06 26
  24582920.277    -1182197.232 7   -910607.76045  24582924.617    24582937.5564
  24978223.525     -197642.92817   -125098.45155  24978223.861    24978237.1014
  21979134.987   -13355219.234 8 -10135145.35047  21979134.545    21979145.0644
  21804531.210   -16464825.336 9 -12821673.80647  21804533.142    21804541.8974
  20023264.885   -24460353.635 9 -19049481.04648  20023267.179    20023275.6744
  24097796.961    -4974799.965 7  -3861345.89045  24097794.041    24097810.1394
  21108558.729   -19479574.490 9 -15164033.98947  21108563.766    21108572.6734
 00  4 20  1 14 30.0000000  0  7 03 21 09 23 17 06 26
  24575964.791    -1218752.231 7   -939092.17045  24575967.050    24575980.8244
  24963497.213     -275014.363 7   -185387.71945  24963496.045    24963514.4354
  21963573.516   -13437004.624 8 -10198874.12147  21963571.512    21963581.6164
  21795833.840   -16510518.981 9 -12857279.13547  21795837.403    21795847.2474
  20022518.608   -24464267.207 9 -19052530.57148  20022522.324    20022531.1044
  24116425.351    -4876824.250 7  -3785001.33745  24116438.394    24116452.9854
  21122514.669   -19406243.099 9 -15106892.65547  21122518.063    21122527.1164
 00  4 20  1 15  0.0000000  0  7 03 21 09 23 17 06 26
  24569105.107    -1254809.862 7   -967189.03445  24569106.777    24569119.5474
  24948765.514     -352404.417 7   -245691.52945  24948769.345    24948784.5244
  21948081.349   -13518388.340 8 -10262289.85447  21948084.134    21948094.4894
  21787161.187   -16556103.418 9 -12892799.31647  21787162.928    21787172.8604
  20021888.292   -24467584.571 9 -19055115.56248  20021891.010    20021900.0354
  24135069.868    -4778836.639 7  -3708647.45245  24135085.836    24135098.7544
  21136529.860   -19332599.305 9 -15049507.87447  21136532.561    21136540.8334
 00  4 20  1 15 30.0000000  0  7 03 21 09 23 17 06 26
  24562335.905    -1290366.973 7   -994895.88045  24562339.108    24562354.0624
  24934037.994     -429826.377 7   -306020.26445  24934038.817    24934052.7224
  21932673.171   -13599346.367 8 -10325373.93347  21932677.717    21932687.7654
  21778505.836   -16601581.297 9 -12928236.51747  21778508.764    21778518.9284
  20021369.646   -24470297.731 9 -19057229.74248  20021374.782    20021383.7044
  24153735.855    -4680839.364 8  -3632286.04345  24153734.880    24153749.2004
  21150602.213   -19258648.720 9 -14991884.07447  21150605.463    21150613.1374
 00  4 20  1 16  0.0000000  0  7 03 21 09 23 17 06 26
  24555670.451    -1325418.130 7  -1022208.47145  24555670.128    24555684.3224
  24919307.414     -507264.618 7   -366361.68045  24919303.756    24919316.7884
  21917355.286   -13679866.721 8 -10388116.95047  21917355.591    21917365.8664
  21769876.121   -16646942.007 9 -12963582.47747  21769877.829    21769886.8484
  20020969.598   -24472417.652 9 -19058881.57648  20020971.566    20020980.0794
  24172384.948    -4582825.168 8  -3555911.45345  24172386.594    24172401.0504
  21164729.215   -19184396.358 9 -14934025.12347  21164734.698    21164743.3754
 00  4 20  1 16 30.0000000  0  7 03 21 09 23 17 06 26
  24549094.585    -1359969.346 7  -1049131.46245  24549094.247    24549108.6214
  24904561.826     -584720.096 7   -426716.48845  24904563.705    24904577.4424
  21902109.875   -13759956.239 8 -10450524.25947  21902114.791    21902124.8714
  21761267.782   -16692168.413 9 -12998823.80747  21761270.509    21761280.2714
  20020676.437   -24473956.924 9 -19060080.91748  20020678.293    20020687.1394
  24191031.378    -4484801.072 7  -3479529.16645  24191039.404    24191053.1344
  21178921.316   -19109840.113 9 -14875929.32647  21178922.802    21178930.6614
 00  4 20  1 17  0.0000000  0  7 03 21 09 23 17 06 26
  24542610.899    -1394020.954 8  -1075665.16045  24542615.089    24542627.4424
  24889814.809     -662198.390 7   -487089.10345  24889819.639    24889833.7954
  21886949.529   -13839619.705 8 -10512599.58647  21886955.517    21886965.6944
  21752686.851   -16737251.173 9 -13033953.12547  21752691.340    21752701.1494
  20020489.243   -24474929.569 9 -19060838.80548  20020493.312    20020502.2694
  24209681.224    -4386772.276 7  -3403143.21845  24209692.022    24209708.5114
  21193162.161   -19034989.148 9 -14817603.91347  21193166.228    21193174.4304
 00  4 20  1 17 30.0000000  0  7 03 21 09 23 17 06 26
  24536228.083    -1427564.655 7  -1101803.12345  24536231.957    24536245.2404
  24875071.185     -739692.627 7   -547474.15745  24875070.905    24875086.6114
  21871875.677   -13918869.330 8 -10574352.43047  21871874.824    21871884.6514
  21744139.402   -16782172.965 9 -13068957.03047  21744142.981    21744152.8794
  20020410.608   -24475350.630 9 -19061166.91548  20020413.441    20020422.0854
  24228339.979    -4288736.017 7  -3326751.43145  24228349.221    24228364.1744
  21207463.270   -18959848.386 9 -14759052.67447  21207464.655    21207473.3514
 00  4 20  1 18  0.0000000  0  7 03 21 09 23 17 06 26
  24529942.302    -1460608.973 7  -1127551.93045  24529943.885    24529956.8754
  24860319.293     -817197.578 7   -607867.51245  24860323.563    24860338.7034
  21856864.322   -13997730.090 8 -10635802.24947  21856868.315    21856878.0214
  21735623.525   -16826930.473 9 -13103832.95547  21735625.414    21735635.6174
  20020437.002   -24475213.095 9 -19061059.76048  20020439.529    20020448.0964
  24246992.749    -4190703.494 7  -3250362.55645  24247004.370    24247018.4334
  21221817.815   -18884401.863 9 -14700263.16847  21221821.447    21221830.0444
 00  4 20  1 18 30.0000000  0  7 03 21 09 23 17 06 26
  24523743.072    -1493164.647 7  -1152919.96645  24523748.321    24523761.2034
  24845570.850     -894733.761 7   -668285.20245  24845569.404    24845583.2054
  21841931.241   -14076212.669 9 -10696957.42747  21841933.254    21841943.0014
  21727130.452   -16871542.235 9 -13138595.34947  21727136.324    21727146.1894
  20020572.818   -24474498.466 9 -19060502.90548  20020575.739    20020583.9524
  24265649.941    -4092686.383 8  -3173985.72545  24265656.972    24265671.3234
  21236231.048   -18808657.671 9 -14641241.71347  21236235.056    21236244.3524
 00  4 20  1 19  0.0000000  0  7 03 21 09 23 17 06 26
  24517649.036    -1525227.006 7  -1177903.61345  24517647.142    24517659.6304
  24830802.182     -972308.586 7   -728732.97845  24830805.921    24830818.7964
  21827070.341   -14154308.599 8 -10757811.30447  21827071.946    21827081.6904
  21718669.148   -16916031.633 9 -13173262.37747  21718670.962    21718680.2954
  20020821.928   -24473189.354 9 -19059482.81848  20020824.887    20020832.9714
  24284297.640    -3994693.357 7  -3097627.64845  24284303.299    24284318.0434
  21250698.840   -18732636.069 9 -14582004.09647  21250701.599    21250710.2994
 00  4 20  1 19 30.0000000  0  7 03 21 09 23 17 06 26
  24511638.263    -1556787.087 7  -1202495.83745  24511641.384    24511655.5174
  24816030.931    -1049931.938 7   -789218.61845  24816034.597    24816046.4544
  21812280.435   -14232018.458 8 -10818364.35447  21812284.578    21812293.0504
  21710222.174   -16960416.775 9 -13207848.05047  21710224.231    21710234.1754
  20021185.563   -24471271.181 9 -19057988.13548  20021189.377    20021198.2654
  24302938.907    -3896727.240 7  -3021290.55945  24302947.186    24302960.9834
  21265223.068   -18656328.799 9 -14522543.90947  21265222.739    21265231.1364
 00  4 20  1 20  0.0000000  0  8 03 21 09 23 17 06 26 29
  24505726.181    -1587836.637 7  -1226690.29145  24505733.885    24505747.3044
  24801250.024    -1127616.373 7   -849751.82445  24801253.044    24801267.1214
  21797573.593   -14309332.149 8 -10878608.69347  21797571.423    21797581.7654
  21701792.999   -17004712.155 9 -13242363.69547  21701795.690    21701804.6784
  20021668.140   -24468731.902 9 -19056009.51248  20021672.511    20021681.5714
  24321559.948    -3798799.700 7  -2944983.46245  24321581.707    24321595.6384
  21279795.906   -18579727.712 9 -14462854.72347  21279800.117    21279807.7944
  24536889.289    -1639149.97417  -1256647.14155  24536897.949    24536913.7704
 00  4 20  1 20 30.0000000  0  8 03 21 09 23 17 06 26 29
  24499924.055    -1618359.082 7  -1250473.97545  24499924.656    24499938.9214
  24786459.881    -1205359.795 7   -910331.05445  24786459.890    24786472.3394
  21782936.341   -14386238.883 8 -10938535.89747  21782937.076    21782946.9504
  21693380.705   -17048916.194 9 -13276808.22047  21693383.414    21693392.6614
  20022273.143   -24465572.201 9 -19053547.45948  20022274.096    20022283.0254
  24340199.984    -3700898.765 7  -2868697.12745  24340211.795    24340226.2204
  21294427.210   -18502849.773 9 -14402949.84247  21294429.481    21294437.1574
  24518968.922    -1733404.637 7  -1330092.07445  24518963.395    24518977.1224
 00  4 20  1 21  0.0000000  0  8 03 21 09 23 17 06 26 29
  24494212.087    -1648350.238 7  -1273843.71745  24494216.052    24494229.4984
  24771648.103    -1283156.404 7   -970951.57445  24771655.081    24771669.7044
  21768380.037   -14462738.432 8 -10998145.81947  21768379.274    21768389.1204
  21684988.230   -17093019.451 9 -13311174.19347  21684990.700    21685000.0384
  20022987.491   -24461806.863 9 -19050613.41148  20022990.494    20022999.5894
  24358837.140    -3603014.921 7  -2792424.10445  24358838.691    24358854.7104
  21309110.896   -18425682.523 9 -14342819.47647  21309113.706    21309120.9624
  24501047.210    -1827497.478 7  -1403410.87145  24501057.657    24501071.5554
 00  4 20  1 21 30.0000000  0  8 03 21 09 23 17 06 26 29
  24488611.866    -1677815.422 7  -1296803.60445  24488611.169    24488624.1714
  24756847.443    -1360993.137 7  -1031603.46545  24756842.331    24756857.3254
  21753895.564   -14538824.824 8 -11057433.82147  21753900.362    21753909.9184
  21676617.395   -17137009.227 9 -13345451.80747  21676619.540    21676628.7544
  20023815.515   -24457456.711 9 -19047223.67448  20023818.106    20023827.1964
  24377463.304    -3505138.734 7  -2716157.07345  24377463.288    24377478.0734
  21323852.555   -18348212.786 9 -14282453.41347  21323855.647    21323863.6874
  24483169.292    -1921448.511 7  -1476619.23645  24483179.418    24483192.7944
 00  4 20  1 22  0.0000000  0  8 03 21 09 23 17 06 26 29
  24483099.024    -1706754.208 7  -1319353.24445  24483103.419    24483117.7444
  24742024.038    -1438850.734 7  -1092271.56245  24742028.034    24742040.8024
  21739498.765   -14614489.272 9 -11116393.04147  21739502.042    21739511.7084
  21668272.354   -17180870.076 9 -13379629.02547  21668272.454    21668282.6514
  20024753.816   -24452534.516 9 -19043388.20948  20024755.249    20024763.8564
  24396093.790    -3407266.180 7  -2639892.85845  24396089.209    24396103.1724
  21338649.776   -18270465.424 9 -14221871.06047  21338649.509    21338658.1364
  24465330.102    -2015273.981 7  -1549729.68145  24465324.653    24465338.5884
 00  4 20  1 22 30.0000000  0  8 03 21 09 23 17 06 26 29
  24477694.930    -1735178.784 7  -1341502.23545  24477693.846    24477707.5794
  24727202.767    -1516719.244 7  -1152948.17245  24727207.123    24727221.9364
  21725182.623   -14689723.693 9 -11175017.17947  21725185.088    21725195.2234
  21659950.321   -17224599.212 9 -13413703.64147  21659951.975    21659960.9254
  20025795.249   -24447053.356 9 -19039117.20148  20025798.412    20025807.1464
  24414713.093    -3309387.052 7  -2563623.52145  24414713.228    24414728.9074
  21353489.984   -18192461.370 9 -14161088.64547  21353493.420    21353502.0694
  24447474.289    -2108970.998 7  -1622740.04645  24447492.497    24447507.2024
 00  4 20  1 23  0.0000000  0  8 03 21 09 23 17 06 26 29
  24472380.119    -1763094.213 7  -1363254.49545  24472382.850    24472395.9334
  24712377.453    -1594598.917 7  -1213633.44345  24712387.923    24712402.0464
  21710950.051   -14764509.263 9 -11233291.55647  21710954.536    21710964.0214
  21651651.420   -17268204.169 9 -13447681.48047  21651654.244    21651663.5744
  20026942.656   -24441022.295 9 -19034417.70748  20026945.825    20026954.8974
  24433350.844    -3211518.787 7  -2487362.64745  24433337.667    24433353.5404
  21368382.066   -18114200.716 9 -14100106.33347  21368385.880    21368394.7254
  24429674.440    -2202541.387 7  -1695651.73745  24429686.738    24429700.9544
 00  4 20  1 23 30.0000000  0  8 03 21 09 23 17 06 26 29
  24467165.390    -1790489.755 7  -1384601.60345  24467168.314    24467180.6424
  24697577.538    -1672478.924 7  -1274318.96545  24697567.495    24697582.9044
  21696812.321   -14838831.724 9 -11291205.05047  21696811.232    21696820.7874
  21643375.371   -17311690.019 9 -13481566.52147  21643378.595    21643388.1014
  20028197.901   -24434425.361 9 -19029277.25548  20028201.272    20028210.0974
  24451955.781    -3113667.125 7  -2411114.75745  24451958.594    24451972.6074
  21383320.713   -18035696.135 9 -14038933.89247  21383324.972    21383333.1644
  24411892.808    -2295977.544 7  -1768458.85645  24411906.108    24411920.8614
 00  4 20  1 24  0.0000000  0  8 03 21 09 23 17 06 26 29
  24462050.115    -1817363.907 7  -1405542.49145  24462053.773    24462069.7304
  24682742.717    -1750368.734 7  -1335012.16245  24682745.543    24682760.9134
  21682751.503   -14912693.137 9 -11348759.29547  21682755.806    21682765.0004
  21635123.403   -17355062.505 9 -13515363.22547  21635124.892    21635133.9694
  20029566.162   -24427240.062 9 -19023678.29148  20029568.938    20029577.4614
  24470569.085    -3015856.390 7  -2334898.71445  24470571.084    24470585.8224
  21398308.655   -17956954.348 9 -13977576.59247  21398308.797    21398317.6764
  24394151.164    -2389259.811 7  -1841146.02145  24394154.424    24394170.8134
 00  4 20  1 24 30.0000000  0  8 03 21 09 23 17 06 26 29
  24457040.277    -1843727.543 7  -1426085.53445  24457040.837    24457051.8384
  24667902.546    -1828279.589 7  -1395721.74245  24667919.070    24667935.1604
  21668785.977   -14986097.248 9 -11405957.21247  21668787.539    21668796.9964
  21626891.621   -17398332.718 9 -13549080.24747  21626891.597    21626900.2224
  20031048.997   -24419450.052 9 -19017608.12648  20031051.267    20031059.7184
  24489171.368    -2918096.309 7  -2258722.11945  24489173.617    24489190.8684
  21413338.061   -17877955.555 9 -13916019.07247  21413341.496    21413350.5364
  24376431.774    -2482381.430 7  -1913708.03945  24376436.397    24376449.8324
 00  4 20  1 25  0.0000000  0  8 03 21 09 23 17 06 26 29
  24452112.773    -1869568.027 7  -1446220.85945  24452119.912    24452135.3614
  24653089.890    -1906209.568 7  -1456446.22045  24653091.428    24653106.1344
  21654902.216   -15059051.477 9 -11462804.56347  21654904.605    21654913.9204
  21618673.332   -17441498.460 9 -13582715.78647  21618676.850    21618685.7334
  20032649.868   -24411035.407 9 -19011051.19048  20032652.090    20032660.8884
  24507754.526    -2820395.935 7  -2182592.05645  24507766.320    24507781.6294
  21428420.952   -17798692.337 9 -13854255.52047  21428425.023    21428433.8404
  24358747.104    -2575339.748 7  -1986142.79645  24358746.064    24358759.0864
 00  4 20  1 25 30.0000000  0  7 03 21 09 23 17 26 29
  24447297.643    -1894894.610 7  -1465955.85345  24447301.203    24447314.5354
  24638252.876    -1984157.681 7  -1517184.85145  24638257.062    24638272.3664
  21641102.533   -15131561.794 9 -11519306.02347  21641106.306    21641115.7264
  21610482.770   -17484547.089 9 -13616260.02547  21610484.694    21610493.5804
  20034369.186   -24401989.530 9 -19004002.45248  20034373.343    20034382.3414
  21443554.894   -17719167.077 9 -13792287.77647  21443558.251    21443566.9784
  24341079.510    -2668137.918 7  -2058452.79745  24341087.702    24341099.5194
 00  4 20  1 26  0.0000000  0  7 03 21 09 23 17 26 29
  24442581.949    -1919716.757 7  -1485297.72545  24442578.069    24442590.4724
  24623410.404    -2062135.198 7  -1577946.39745  24623418.124    24623431.7414
  21627390.869   -15203621.191 9 -11575456.09947  21627393.501    21627401.9484
  21602314.881   -17527474.044 9 -13649709.58147  21602316.067    21602325.4604
  20036210.581   -24392319.438 9 -18996467.32148  20036213.713    20036222.1824
  21458738.759   -17639383.813 9 -13730119.01447  21458741.063    21458748.8994
  24323459.275    -2760781.439 8  -2130642.29745  24323458.524    24323468.7974
 00  4 20  1 26 30.0000000  0  7 03 21 09 23 17 26 29
  24437934.214    -1944029.326 7  -1504242.51345  24437949.828    24437966.0664
  24608578.446    -2140141.084 7  -1638730.03545  24608573.622    24608588.2534
  21613765.214   -15275217.246 9 -11631245.14147  21613769.227    21613777.4884
  21594169.014   -17570274.422 9 -13683060.57147  21594171.448    21594180.5024
  20038169.392   -24382036.718 9 -18988454.77748  20038170.421    20038178.9094
  21473972.094   -17559345.253 9 -13667751.31747  21473972.371    21473979.6504
  24305855.041    -2853275.974 8  -2202715.68345  24305857.052    24305867.8054
 00  4 20  1 27  0.0000000  0  7 03 21 09 23 17 26 29
  24433423.228    -1967829.272 7  -1522787.90045  24433422.543    24433436.0464
  24593725.992    -2218173.929 7  -1699534.71045  24593723.533    24593740.4734
  21600230.461   -15346336.291 8 -11686662.48247  21600235.605    21600244.7434
  21586051.409   -17612940.034 9 -13716306.54447  21586052.478    21586061.7994
  20040238.374   -24371164.538 9 -18979982.92848  20040239.488    20040247.7694
  21489244.163   -17479054.697 9 -13605187.27547  21489251.161    21489258.5314
  24288283.111    -2945617.399 7  -2274669.78645  24288281.346    24288296.4664
 00  4 20  1 27 30.0000000  0  7 03 21 09 23 17 26 29
  24428983.583    -1991121.791 7  -1540937.87945  24428987.435    24429004.8034
  24578864.727    -2296243.965 7  -1760368.32345  24578866.592    24578881.4654
  21586793.194   -15416972.677 9 -11741703.72147  21586793.555    21586802.8684
  21577957.701   -17655473.553 9 -13749449.61047  21577958.803    21577967.9944
  20042415.260   -24359721.402 9 -18971066.15948  20042417.030    20042425.5284
  21504571.616   -17398522.082 9 -13542434.63347  21504575.764    21504584.0464
  24270723.394    -3037804.280 7  -2346503.51345  24270740.435    24270751.6884
 00  4 20  1 28  0.0000000  0  7 03 21 09 23 17 26 29
  24424655.489    -2013902.711 7  -1558689.12345  24424654.233    24424669.5584
  24563984.323    -2374362.565 7  -1821239.81845  24564001.003    24564016.5204
  21573441.814   -15487134.345 9 -11796375.07147  21573442.499    21573451.7284
  21569884.627   -17697881.448 9 -13782494.71247  21569888.464    21569897.7664
  20044700.304   -24347705.343 9 -18961702.96448  20044703.313    20044712.0314
  21519942.330   -17317749.435 9 -13479494.92947  21519945.889    21519954.3624
  24253230.909    -3129820.637 7  -2418204.28745  24253228.868    24253244.3594
 00  4 20  1 28 30.0000000  0  7 03 21 09 23 17 26 29
  24420414.991    -2036168.786 8  -1576039.24545  24420418.525    24420430.4954
  24549125.269    -2452525.637 7  -1882145.93245  24549127.230    24549142.6484
  21560174.313   -15556838.125 9 -11850689.61147  21560178.375    21560187.1624
  21561841.856   -17740159.249 9 -13815438.30347  21561843.446    21561852.5924
  20047092.212   -24335128.242 9 -18951902.58948  20047096.542    20047105.3154
  21535359.269   -17236735.374 9 -13416367.11847  21535362.486    21535370.3564
  24235739.022    -3221658.658 7  -2489766.18845  24235752.787    24235767.1464
 00  4 20  1 29  0.0000000  0  7 03 21 09 23 17 26 29
  24416284.651    -2057914.290 7  -1592983.76345  24416279.663    24416293.9974
  24534248.295    -2530736.145 7  -1943089.03845  24534246.221    24534259.2904
  21546999.637   -15626092.319 9 -11904653.84247  21546999.848    21547008.5974
  21553822.454   -17782302.495 9 -13848277.01847  21553824.210    21553832.6834
  20049597.191   -24321972.240 9 -18941651.13348  20049600.200    20049608.8394
  21550820.937   -17155486.238 9 -13353056.09847  21550823.255    21550831.2994
  24218308.370    -3313313.358 7  -2561185.15545  24218312.041    24218325.3024
 00  4 20  1 29 30.0000000  0  7 03 21 09 23 17 26 29
  24412231.759    -2079137.099 7  -1609520.97445  24412239.614    24412253.4084
  24519344.261    -2608996.608 7  -2004071.04245  24519353.417    24519364.9044
  21533903.907   -15694906.785 9 -11958275.41147  21533904.274    21533913.3464
  21545825.956   -17824312.160 9 -13881011.65547  21545829.381    21545838.2544
  20052218.421   -24308204.076 9 -18930922.66848  20052220.065    20052228.8034
  21566326.042   -17074012.648 9 -13289570.21747  21566327.450    21566335.4614
  24200898.415    -3404791.553 7  -2632466.68145  24200903.721    24200918.1124
 00  4 20  1 30  0.0000000  0  7 03 21 09 23 17 26 29
  24408304.717    -2099827.721 7  -1625643.50645  24408303.141    24408318.1634
  24504447.841    -2687292.106 7  -2065080.35345  24504453.681    24504465.8984
  21520893.527   -15763275.180 9 -12011549.41147  21520894.053    21520903.3594
  21537858.410   -17866187.305 9 -13913641.48847  21537860.674    21537869.8134
  20054959.341   -24293803.010 9 -18919701.02248  20054960.647    20054969.2544
  21581873.608   -16992304.727 9 -13225901.77647  21581876.883    21581884.3854
  24183527.160    -3496094.371 7  -2703611.53845  24183531.373    24183543.0534
 00  4 20  1 30 30.0000000  0  7 03 21 09 23 17 26 29
  24404458.258    -2119973.266 7  -1641341.29045  24404469.426    24404483.9284
  24489547.816    -2765608.001 7  -2126105.51845  24489551.120    24489563.7594
  21507969.753   -15831180.810 9 -12064462.79647  21507972.568    21507981.7924
  21529915.220   -17907929.449 9 -13946167.62847  21529917.755    21529926.2864
  20057818.145   -24278771.534 9 -18907988.15148  20057821.162    20057829.5104
  21597466.783   -16910353.527 9 -13162043.69447  21597471.403    21597478.8724
  24166184.073    -3587232.984 7  -2774628.39145  24166186.111    24166199.1714
 00  4 20  1 31  0.0000000  0  7 03 21 09 23 17 26 29
  24400742.336    -2139573.433 7  -1656614.10045  24400740.962    24400751.8584
  24474643.766    -2843940.166 7  -2187143.36545  24474643.571    24474656.8734
  21495137.618   -15898608.762 9 -12117003.98147  21495141.387    21495150.0474
  21521996.467   -17949541.076 9 -13978592.35147  21521999.039    21522007.6814
  20060802.350   -24263089.825 9 -18895768.62048  20060805.314    20060813.4954
  21613107.932   -16828162.063 9 -13097998.40947  21613111.464    21613119.3274
  24148857.242    -3678203.171 7  -2845514.00545  24148874.667    24148888.2554
 00  4 20  1 31 30.0000000  0  7 03 21 09 23 17 26 29
  24397107.784    -2158637.359 7  -1671469.09745  24397111.467    24397125.9524
  24459732.026    -2922281.497 7  -2248188.38245  24459735.835    24459750.1084
  21482403.250   -15965549.694 9 -12169165.67447  21482402.775    21482411.7744
  21514102.363   -17991030.679 9 -14010921.96647  21514103.574    21514112.0114
  20063903.900   -24246781.413 9 -18883060.75548  20063908.367    20063917.0794
  21628793.987   -16745733.658 8 -13033768.49347  21628796.819    21628804.7174
  24131592.476    -3769009.780 7  -2916272.21045  24131596.160    24131608.4234
 00  4 20  1 32  0.0000000  0  7 03 21 09 23 17 26 29
  24393573.746    -2177162.216 7  -1685904.04245  24393587.289    24393600.6894
  24444825.002    -3000626.268 7  -2309236.05045  24444827.773    24444841.3634
  21469754.579   -16031990.532 9 -12220937.66847  21469758.553    21469768.1854
  21506228.900   -18032403.480 9 -14043160.43347  21506231.270    21506239.1234
  20067123.546   -24229873.419 9 -18869885.69248  20067125.982    20067134.8784
  21644522.131   -16663068.759 8 -12969354.28247  21644527.223    21644535.6284
  24114348.412    -3859642.078 8  -2986894.61745  24114348.208    24114360.9694
 00  4 20  1 32 30.0000000  0  7 03 21 09 23 17 26 29
  24390163.183    -2195161.825 8  -1699929.67745  24390162.612    24390175.5864
  24429923.760    -3078987.408 8  -2370296.52045  24429916.035    24429927.0834
  21457209.815   -16097929.105 9 -12272318.29447  21457211.540    21457220.6964
  21498379.185   -18073657.011 9 -14075305.95647  21498380.555    21498388.9394
  20070451.301   -24212381.825 9 -18856255.87748  20070454.641    20070463.3054
  21660298.890   -16580172.448 9 -12904759.77247  21660302.385    21660310.5954
  24097130.025    -3950099.476 8  -3057380.71445  24097135.711    24097147.6484
 00  4 20  1 33  0.0000000  0  7 03 21 09 23 17 26 29
  24386829.866    -2212649.153 7  -1713556.15345  24386835.413    24386847.6694
  24414996.640    -3157370.843 7  -2431374.38745  24415000.076    24415012.1474
  21444756.324   -16163367.663 9 -12323309.28447  21444759.195    21444767.7364
  21490551.491   -18114784.961 9 -14107353.64147  21490554.156    21490562.6844
  20073891.874   -24194304.226 9 -18842169.42748  20073894.809    20073903.0284
  21676114.578   -16497063.970 9 -12840000.00747  21676117.749    21676125.6094
  24079955.191    -4040381.717 7  -3127730.30545  24079954.067    24079968.2474
 00  4 20  1 33 30.0000000  0  7 03 21 09 23 17 26 29
  24383609.655    -2229619.641 7  -1726779.89045  24383605.551    24383617.8294
  24400073.609    -3235775.055 7  -2492468.39945  24400080.365    24400092.1544
  21432397.959   -16228304.633 9 -12373909.44447  21432401.416    21432410.2734
  21482750.832   -18155788.940 9 -14139304.75047  21482751.851    21482759.6724
  20077440.446   -24175656.741 9 -18827638.91648  20077443.132    20077451.6934
  21691967.917   -16413744.590 9 -12775075.83847  21691972.692    21691980.3324
  24062785.611    -4130502.399 7  -3197954.03045  24062804.479    24062817.8544
 00  4 20  1 34  0.0000000  0  7 03 21 09 23 17 26 29
  24380468.398    -2246070.704 7  -1739598.92245  24380473.385    24380489.9534
  24385149.881    -3314202.215 7  -2553580.26345  24385154.483    24385168.7704
  21420139.553   -16292738.498 9 -12424117.57947  21420140.204    21420148.5624
  21474971.114   -18196662.128 9 -14171153.91347  21474973.515    21474981.7074
  20081098.074   -24156435.091 9 -18812661.00348  20081100.589    20081109.3514
  21707869.608   -16330203.502 9 -12709978.83047  21707869.986    21707878.0174
  24045688.723    -4220457.535 8  -3268048.75145  24045686.947    24045700.5884
 00  4 20  1 34 30.0000000  0  7 03 21 09 23 17 26 29
  24377434.994    -2262007.954 7  -1752017.52345  24377442.470    24377455.7524
  24370226.329    -3392653.787 7  -2614711.16345  24370225.812    24370239.1764
  21407968.296   -16356672.455 9 -12473936.18347  21407974.439    21407983.1494
  21467220.812   -18237388.090 9 -14202888.37347  21467223.436    21467231.9164
  20084865.234   -24136629.830 9 -18797228.30948  20084869.418    20084877.8984
  21723803.647   -16246442.920 8 -12644710.83447  21723808.634    21723817.2684
  24028598.716    -4310248.697 7  -3338015.71045  24028601.166    24028613.5124
 00  4 20  1 35  0.0000000  0  7 03 21 09 23 17 26 29
  24374506.424    -2277436.638 7  -1764039.86145  24374506.467    24374519.9254
  24355286.971    -3471125.367 7  -2675857.66345  24355293.270    24355306.9714
  21395899.206   -16420112.674 9 -12523370.03347  21395901.915    21395910.7294
  21459500.776   -18277968.177 9 -14234509.20347  21459501.671    21459510.2644
  20088750.674   -24116228.668 9 -18781331.29148  20088751.890    20088760.2834
  21739788.589   -16162475.717 8 -12579281.94647  21739786.721    21739796.0384
  24011536.894    -4399871.088 7  -3407851.12345  24011544.738    24011558.7154
 00  4 20  1 35 30.0000000  0  7 03 21 09 23 17 26 29
  24371661.480    -2292366.011 7  -1775673.08945  24371664.653    24371678.3184
  24340355.447    -3549618.945 8  -2737021.32045  24340358.010    24340369.9054
  21383918.636   -16483066.248 9 -12572424.68147  21383922.029    21383930.9714
  21451801.369   -18318415.227 9 -14266026.33047  21451804.471    21451812.9634
  20092744.733   -24095228.447 9 -18764967.49048  20092747.881    20092756.5834
  21755801.612   -16078294.726 8 -12513686.50147  21755806.173    21755814.2464
  23994521.212    -4489318.828 8  -3477550.48145  23994524.798    23994535.4714
 00  4 20  1 36  0.0000000  0  7 03 21 09 23 17 26 29
  24368907.340    -2306805.579 7  -1786924.66345  24368916.960    24368930.6004
  24325409.960    -3628143.427 7  -2798209.00845  24325413.316    24325427.2034
  21372031.995   -16545533.629 9 -12621100.50047  21372034.699    21372043.1584
  21444132.488   -18358724.737 9 -14297436.46647  21444133.812    21444142.7944
  20096860.482   -24073606.135 9 -18748118.93648  20096862.404    20096870.9624
  21771860.250   -15993904.079 8 -12447927.53147  21771865.525    21771873.4394
  23977541.145    -4578571.397 8  -3547097.73245  23977540.320    23977552.6264
 00  4 20  1 36 30.0000000  0  7 03 21 09 23 17 26 29
  24366262.382    -2320749.359 7  -1797789.90345  24366262.782    24366276.7474
  24310457.499    -3706703.894 7  -2859424.74545  24310463.710    24310477.8184
  21360235.850   -16607512.641 9 -12669395.76947  21360240.331    21360249.2444
  21436486.081   -18398897.356 9 -14328739.82148  21436489.485    21436498.2884
  20101095.076   -24051348.251 9 -18730775.12048  20101098.140    20101106.8134
  21787959.984   -15909317.413 9 -12382015.85747  21787962.708    21787970.3804
  23960593.777    -4667628.930 8  -3616493.04945  23960592.775    23960604.1014
 00  4 20  1 37  0.0000000  0  7 03 21 09 23 17 26 29
  24363700.873    -2334187.212 7  -1808260.88045  24363705.962    24363719.4954
  24295501.641    -3785298.578 7  -2920667.13645  24295506.905    24295522.1754
  21348536.092   -16668999.688 9 -12717307.68147  21348539.696    21348548.7404
  21428866.258   -18438951.465 9 -14359950.66248  21428867.220    21428876.1174
  20105452.060   -24028455.729 9 -18712936.79048  20105454.462    20105463.1564
  21804094.002   -15824539.319 9 -12315954.96947  21804095.155    21804103.2774
  23943674.562    -4756499.428 8  -3685742.62645  23943681.157    23943693.9534
 00  4 20  1 37 30.0000000  0  7 03 21 09 23 17 26 29
  24361247.984    -2347092.555 7  -1818316.98145  24361250.482    24361263.5924
  24280538.869    -3863928.079 7  -2981936.70945  24280545.480    24280558.5924
  21336934.570   -16729975.888 9 -12764821.52147  21336936.186    21336945.6064
  21421266.009   -18478884.510 9 -14391067.27747  21421267.839    21421277.0454
  20109928.032   -24004939.282 9 -18694612.29548  20109929.535    20109938.1174
  21820264.381   -15739565.182 8 -12249741.39747  21820264.488    21820273.0504
  23926798.282    -4845193.528 7  -3754854.70445  23926801.969    23926815.2444
 00  4 20  1 38  0.0000000  0  7 03 21 09 23 17 26 29
  24358902.984    -2359442.002 7  -1827939.85045  24358900.807    24358915.2444
  24265569.709    -3942594.228 8  -3043234.91245  24265575.575    24265588.8094
  21325428.642   -16790419.661 9 -12811920.49247  21325434.161    21325442.9624
  21413691.483   -18518677.970 9 -14422075.06148  21413695.477    21413704.3064
  20114517.979   -23980809.892 9 -18675810.18948  20114521.142    20114529.5264
  21836467.168   -15654405.745 8 -12183383.49547  21836469.773    21836478.5714
  23909961.277    -4933713.353 7  -3823830.99045  23909956.941    23909969.5224
 00  4 20  1 38 30.0000000  0  7 03 21 09 23 17 26 29
  24356652.135    -2371232.888 7  -1837127.51545  24356655.416    24356670.5814
  24250599.284    -4021285.064 8  -3104552.36545  24250601.778    24250614.2114
  21314026.933   -16850336.283 9 -12858608.70747  21314032.068    21314040.9704
  21406143.247   -18558345.227 9 -14452984.39347  21406146.934    21406155.9454
  20119221.512   -23956089.878 9 -18656547.86348  20119225.037    20119233.6944
  21852706.520   -15569057.099 8 -12116878.15247  21852711.055    21852719.8544
  23893135.495    -5022070.996 8  -3892680.87945  23893143.359    23893155.5904
 00  4 20  1 39  0.0000000  0  7 03 21 09 23 17 26 29
  24354511.951    -2382469.963 7  -1845883.60345  24354518.992    24354530.9004
  24235617.133    -4099988.652 7  -3165879.72345  24235621.948    24235637.9094
  21302727.481   -16909727.207 9 -12904887.27647  21302730.299    21302739.4164
  21398621.970   -18597889.038 9 -14483797.53947  21398621.940    21398630.2294
  20124038.973   -23930782.889 9 -18636828.15248  20124040.919    20124049.4674
  21868986.229   -15483523.832 8 -12050228.81047  21868988.002    21868996.4044
  23876364.486    -5110264.434 8  -3961402.80945  23876361.914    23876372.9984
 00  4 20  1 39 30.0000000  0  7 03 21 09 23 17 26 29
  24352479.858    -2393153.188 7  -1854208.15245  24352484.421    24352497.8364
  24220635.900    -4178710.109 7  -3227220.97345  24220642.594    24220656.9274
  21291522.741   -16968589.312 9 -12950753.77247  21291529.110    21291538.7664
  21391119.275   -18637300.942 9 -14514507.98048  21391122.124    21391130.6154
  20128966.402   -23904888.069 9 -18616650.37348  20128968.828    20128976.9794
  21885298.007   -15397806.013 8 -11983435.75447  21885300.069    21885308.0494
  23859606.539    -5198274.694 8  -4029982.05445  23859613.133    23859624.8264
 00  4 20  1 40  0.0000000  0  7 03 21 09 23 17 26 29
  24350550.338    -2403305.734 7  -1862119.18945  24350552.301    24350567.0224
  24205662.388    -4257444.955 8  -3288572.69545  24205661.241    24205676.4064
  21280425.562   -17026924.809 9 -12996209.92347  21280428.145    21280437.4634
  21383643.711   -18676590.126 9 -14545122.95648  21383646.050    21383654.2404
  20134004.967   -23878399.260 9 -18596009.73448  20134009.472    20134017.8614
  21901645.401   -15311899.940 8 -11916496.00547  21901647.322    21901655.1984
  23842902.981    -5286080.452 8  -4098401.94245  23842904.635    23842916.5954
 00  4 20  1 40 30.0000000  0  7 03 21 09 23 17 26 29
  24348719.592    -2412948.364 7  -1869632.89445  24348717.949    24348732.4724
  24190674.227    -4336192.029 8  -3349933.95945  24190675.935    24190688.4994
  21269424.233   -17084739.518 9 -13041260.27847  21269427.072    21269435.5814
  21376188.691   -18715766.216 9 -14575649.76148  21376190.603    21376199.3204
  20139161.193   -23851310.330 9 -18574901.46648  20139164.207    20139172.3164
  21918029.214   -15225804.173 8 -11849408.42247  21918030.663    21918038.2984
  23826235.302    -5373681.053 8  -4166661.95045  23826234.444    23826244.4744
 00  4 20  1 41  0.0000000  0  7 03 21 09 23 17 26 29
  24346982.916    -2422079.038 7  -1876747.65945  24346979.707    24346993.4594
  24175684.296    -4414961.475 8  -3411312.57645  24175686.087    24175698.8774
  21258525.076   -17142009.646 9 -13085886.28247  21258528.722    21258537.3294
  21368754.600   -18754813.002 9 -14606075.80847  21368759.917    21368768.2704
  20144431.687   -23823616.843 9 -18553322.12848  20144434.215    20144442.4444
  21934444.466   -15139534.157 8 -11782185.04447  21934447.556    21934455.4784
  23809600.635    -5461075.783 8  -4234761.55845  23809602.675    23809615.0634
 00  4 20  1 41 30.0000000  0  7 03 21 09 23 17 26 29
  24345338.157    -2430706.834 7  -1883470.55845  24345338.446    24345351.9574
  24160692.943    -4493757.457 8  -3472711.89645  24160692.708    24160704.4714
  21247732.353   -17198725.670 9 -13130080.50847  21247735.815    21247744.8664
  21361355.705   -18793724.083 9 -14636396.02748  21361355.691    21361363.6204
  20149812.946   -23795334.200 9 -18531283.69448  20149816.288    20149824.4624
  21950897.547   -15053083.511 8 -11714820.95947  21950898.291    21950906.3974
  23793005.632    -5548268.795 7  -4302703.99045  23793010.596    23793021.5734
 00  4 20  1 42  0.0000000  0  7 03 21 09 23 17 26 29
  24343782.091    -2438846.816 7  -1889813.35445  24343788.660    24343803.1854
  24145696.480    -4572570.725 8  -3534124.70645  24145695.254    24145707.6074
  21237045.914   -17254887.937 9 -13173843.24847  21237048.492    21237057.4144
  21353974.214   -18832493.927 9 -14666606.38547  21353977.784    21353986.5404
  20155307.648   -23766466.977 9 -18508789.74948  20155309.541    20155317.8204
  21967378.262   -14966462.490 8 -11647324.04647  21967381.578    21967389.4914
  23776448.934    -5635286.502 8  -4370509.81845  23776452.161    23776461.7584
 00  4 20  1 42 30.0000000  0  7 03 21 09 23 17 26 29
  24342328.022    -2446489.555 7  -1895768.69745  24342334.199    24342348.5444
  24130694.831    -4651401.888 8  -3595551.51645  24130693.292    24130706.0674
  21226464.067   -17310500.344 9 -13217177.52747  21226466.134    21226474.0664
  21346628.918   -18871107.023 9 -14696694.37547  21346629.665    21346638.2854
  20160911.236   -23737013.394 9 -18485838.89848  20160914.159    20160922.4364
  21983894.108   -14879677.521 8 -11579699.36847  21983896.156    21983904.5964
  23759918.504    -5722147.178 8  -4438193.28845  23759922.352    23759934.8324
 00  4 20  1 43  0.0000000  0  7 03 21 09 23 17 26 29
  24340976.822    -2453626.356 7  -1901329.80545  24340976.598    24340990.0784
  24115685.367    -4730246.023 8  -3656988.42845  24115688.906    24115701.3194
  21215986.952   -17365561.784 9 -13260082.46647  21215988.253    21215996.4064
  21339311.429   -18909554.865 9 -14726653.58847  21339313.394    21339321.5934
  20166625.767   -23706978.142 9 -18462434.80648  20166629.568    20166637.7794
  22000438.082   -14792720.883 8 -11511941.06647  22000443.184    22000452.0994
  23743420.902    -5808855.800 8  -4505758.24845  23743422.378    23743434.0264
 00  4 20  1 43 30.0000000  0  7 03 21 09 23 17 26 29
  24339708.176    -2460265.130 7  -1906502.88345  24339713.111    24339727.7414
  24100682.407    -4809105.464 8  -3718437.26945  24100681.759    24100694.2094
  21205610.928   -17420086.076 9 -13302568.86247  21205611.926    21205620.7994
  21332026.059   -18947841.769 9 -14756487.49147  21332028.067    21332036.2394
  20172454.857   -23676353.837 9 -18438571.71948  20172457.066    20172465.5864
  22017022.183   -14705579.802 8 -11444039.00447  22017025.443    22017034.3874
  23726946.143    -5895400.699 8  -4573195.66245  23726952.314    23726965.3094
 00  4 20  1 44  0.0000000  0  7 03 21 09 23 17 26 29
  24338547.120    -2466392.626 7  -1911277.57545  24338548.187    24338561.3794
  24085669.937    -4887987.021 8  -3779903.30445  24085671.908    24085684.7484
  21195335.897   -17474078.027 9 -13344640.44347  21195337.869    21195346.6604
  21324770.475   -18985964.696 9 -14786193.62347  21324772.976    21324781.2104
  20178400.283   -23645114.990 9 -18414229.77548  20178402.156    20178410.2524
  22033635.350   -14618260.006 8 -11375997.66147  22033641.941    22033650.6654
  23710509.760    -5981763.248 8  -4640490.99145  23710519.574    23710529.4844
 00  4 20  1 44 30.0000000  0  7 03 21 09 23 17 26 29
  24337477.188    -2471998.197 7  -1915645.50945  24337480.988    24337494.4634
  24070655.368    -4966895.875 8  -3841390.58345  24070656.091    24070669.4214
  21185163.744   -17527529.312 9 -13386290.73447  21185166.243    21185174.5794
  21317545.993   -19023923.681 9 -14815771.80548  21317549.652    21317557.8184
  20184462.412   -23613255.701 9 -18389404.37748  20184464.644    20184472.9964
  22050295.125   -14530750.108 8 -11307808.20646  22050294.388    22050302.7884
  23694121.120    -6067921.594 8  -4707627.21045  23694123.485    23694133.4514
 00  4 20  1 45  0.0000000  0  7 03 21 09 23 17 26 29
  24336513.135    -2477085.078 7  -1919609.23445  24336513.022    24336527.6224
  24055626.410    -5045840.400 8  -3902905.66345  24055633.543    24055645.7274
  21175092.776   -17580440.153 9 -13427519.89547  21175097.476    21175106.3424
  21310355.969   -19061722.541 9 -14845225.31048  21310356.335    21310364.8074
  20190637.896   -23580785.278 9 -18364102.77848  20190643.111    20190651.9414
  22066979.100   -14443060.639 8 -11239478.76546  22066981.523    22066989.6484
  23677772.674    -6153863.425 8  -4774594.68445  23677769.284    23677779.0734
 00  4 20  1 45 30.0000000  0  7 03 21 09 23 17 26 29
  24335639.610    -2481648.779 7  -1923165.26945  24335644.953    24335658.4744
  24040604.732    -5124815.552 8  -3964444.54445  24040605.298    24040617.0954
  21165132.259   -17632807.077 9 -13468325.24547  21165132.416    21165141.0694
  21303188.724   -19099371.511 9 -14874562.13247  21303191.897    21303200.2234
  20196937.532   -23547696.571 9 -18338319.38348  20196940.012    20196948.4694
  22083694.293   -14355220.285 8 -11171031.73247  22083697.406    22083706.1424
  23661449.027    -6239583.253 8  -4841389.15645  23661456.190    23661469.6624
 00  4 20  1 46  0.0000000  0  7 03 21 09 23 17 26 29
  24334874.400    -2485673.794 7  -1926301.62345  24334877.898    24334892.7194
  24025571.164    -5203806.991 8  -4025996.20746  24025574.546    24025585.8534
  21155272.942   -17684622.959 9 -13508701.19247  21155272.297    21155280.8774
  21296053.625   -19136871.801 9 -14903783.15047  21296056.008    21296063.8634
  20203350.760   -23513997.063 9 -18312060.03248  20203352.719    20203360.9784
  22100431.948   -14267246.136 8 -11102480.45247  22100438.753    22100446.7194
  23645182.093    -6325104.135 8  -4908028.60745  23645183.276    23645194.5154
 00  4 20  1 46 30.0000000  0  7 03 21 09 23 17 26 29
  24334214.593    -2489168.848 7  -1929025.04645  24334212.173    24334227.7374
  24010531.761    -5282809.607 8  -4087556.53846  24010539.904    24010552.3024
  21145515.964   -17735887.846 9 -13548647.79947  21145517.317    21145525.2094
  21288941.974   -19174236.885 9 -14932898.76448  21288945.709    21288953.7504
  20209872.356   -23479716.100 9 -18285347.60148  20209876.293    20209884.4414
  22117201.011   -14179142.144 8 -11033827.98547  22117204.419    22117212.5334
  23628941.092    -6410440.384 8  -4974524.21945  23628943.829    23628955.3594
 00  4 20  1 47  0.0000000  0  7 03 21 09 23 17 26 29
  24333644.365    -2492139.229 7  -1931339.57145  24333647.361    24333661.8034
  23995500.950    -5361816.670 8  -4149120.33445  23995505.150    23995516.2934
  21135863.135   -17786605.192 9 -13588167.74447  21135865.636    21135873.9424
  21281856.080   -19211478.853 9 -14961918.45948  21281858.685    21281867.2004
  20216508.162   -23444848.688 9 -18258178.19448  20216511.371    20216519.9744
  22133990.380   -14090920.375 8 -10965083.77447  22133991.833    22134000.4614
  23612728.796    -6495596.882 8  -5040879.77245  23612738.315    23612751.0614
 00  4 20  1 47 30.0000000  0  7 03 21 09 23 17 26 29
  24333175.232    -2494583.598 7  -1933244.16845  24333182.354    24333195.9884
  23980476.440    -5440813.254 8  -4210675.97646  23980472.974    23980485.0904
  21126315.295   -17836770.641 9 -13627257.64447  21126319.489    21126328.4254
  21274793.664   -19248594.739 9 -14990839.87147  21274795.321    21274803.8074
  20223259.240   -23409374.159 9 -18230535.70548  20223261.653    20223270.4714
  22150803.480   -14002560.239 8 -10896231.71546  22150806.040    22150814.8654
  23596567.919    -6580574.976 8  -5107096.27645  23596568.329    23596579.2044
 00  4 20  1 48  0.0000000  0  7 03 21 09 23 17 26 29
  24332810.564    -2496505.209 7  -1934741.47145  24332817.262    24332829.2164
  23965435.529    -5519813.433 8  -4272234.41546  23965438.752    23965451.9074
  21116874.549   -17886380.015 9 -13665914.24547  21116879.046    21116887.7544
  21267753.076   -19285575.262 9 -15019655.78647  21267758.032    21267766.5024
  20230127.558   -23373288.367 9 -18202416.88548  20230128.884    20230136.9854
  22167651.145   -13914033.195 8 -10827249.62347  22167652.306    22167660.4064
  23580434.660    -6665364.112 8  -5173165.50145  23580432.155    23580443.7714
 00  4 20  1 48 30.0000000  0  7 03 21 09 23 17 26 29
  24332531.360    -2497915.082 7  -1935839.99545  24332548.735    24332562.5254
  23950399.295    -5598821.575 8  -4333799.12846  23950404.899    23950416.9914
  21107544.031   -17935421.012 9 -13704127.94847  21107547.109    21107555.4734
  21260745.629   -19322416.256 9 -15048363.00247  21260747.248    21260755.9264
  20237111.781   -23336577.258 9 -18173810.82848  20237115.011    20237123.0164
  22184532.430   -13825325.631 8 -10758126.80547  22184532.802    22184541.7544
  23564336.061    -6749943.914 8  -5239071.63545  23564338.148    23564349.2184
 00  4 20  1 49  0.0000000  0  7 03 21 09 23 17 26 29
  24332382.407    -2498809.690 7  -1936537.04245  24332376.051    24332391.1044
  23935366.055    -5677834.629 8  -4395367.65346  23935369.753    23935380.8724
  21098324.149   -17983875.576 9 -13741884.70047  21098326.151    21098334.8654
  21253765.228   -19359095.488 9 -15076944.17947  21253767.410    21253776.1284
  20244221.998   -23299216.644 9 -18144698.68648  20244224.518    20244232.5884
  22201444.187   -13736441.593 8 -10688866.50047  22201447.126    22201455.6814
  23548275.053    -6834315.388 8  -5304815.42645  23548282.127    23548293.1484
 00  4 20  1 49 30.0000000  0  7 03 21 09 23 17 26 29
  24332306.746    -2499176.723 7  -1936823.01145  24332308.609    24332321.8704
  23920331.947    -5756858.702 8  -4456944.70645  23920330.598    23920342.8194
  21089214.131   -18031734.757 9 -13779177.51547  21089218.608    21089227.6264
  21246817.425   -19395599.129 9 -15105388.50547  21246821.401    21246829.8264
  20251451.833   -23261225.179 9 -18115094.96648  20251454.037    20251462.0914
  22218388.449   -13647391.055 8 -10619476.48847  22218392.751    22218401.8084
  23532266.067    -6918480.343 8  -5370398.29945  23532265.910    23532276.7734
 00  4 20  1 50  0.0000000  0  7 03 21 09 23 17 26 29
  24332340.224    -2499020.894 7  -1936701.60345  24332336.876    24332351.9854
  23905285.961    -5835901.929 8  -4518536.68045  23905289.077    23905301.3534
  21080226.673   -18078985.894 9 -13815996.52647  21080227.545    21080235.9394
  21239904.467   -19431944.216 9 -15133709.32647  21239905.205    21239913.0964
  20258793.748   -23222638.185 9 -18085027.21448  20258796.902    20258804.9114
  22235362.623   -13558198.742 8 -10549976.03646  22235365.086    22235374.4244
  23516288.038    -7002434.384 8  -5435816.80045  23516289.653    23516301.2134
 00  4 20  1 50 30.0000000  0  7 03 21 09 23 17 26 29
  24332458.786    -2498354.726 7  -1936182.49245  24332465.586    24332477.0804
  23890248.395    -5914957.820 8  -4580138.55945  23890245.550    23890256.7134
  21071347.231   -18125638.707 9 -13852349.29947  21071349.266    21071357.5544
  21233016.427   -19468136.970 9 -15161911.53448  21233018.093    21233026.0534
  20266243.635   -23183480.635 9 -18054514.84848  20266248.003    20266256.5914
  22252360.099   -13468883.514 8 -10480379.84146  22252361.432    22252370.9114
  23500346.334    -7086186.277 8  -5501077.84345  23500352.170    23500363.3924
 00  4 20  1 51  0.0000000  0  7 03 21 09 23 17 26 29
  24332676.415    -2497182.734 7  -1935269.17745  24332687.847    24332700.0604
  23875198.197    -5994034.891 8  -4641756.94945  23875197.054    23875208.9974
  21062578.925   -18171712.385 9 -13888250.81947  21062581.821    21062590.1484
  21226155.748   -19504183.321 9 -15189999.60748  21226158.594    21226166.3214
  20273801.014   -23143768.611 9 -18023570.43048  20273804.837    20273813.5534
  22269372.330   -13379457.632 8 -10410697.40747  22269379.286    22269388.0154
  23484455.160    -7169738.404 8  -5566183.20245  23484452.449    23484463.4514
 00  4 20  1 51 30.0000000  0  7 03 21 09 23 17 26 29
  24333006.254    -2495512.318 7  -1933967.57345  24333006.377    24333018.1224
  23860140.704    -6073136.011 8  -4703394.01545  23860144.709    23860156.3554
  21053919.805   -18217220.205 9 -13923711.40647  21053921.767    21053930.6284
  21219320.846   -19540107.352 9 -15217992.14548  21219322.437    21219330.6854
  20281463.090   -23103519.005 9 -17992207.09348  20281464.532    20281472.9934
  22286412.595   -13289907.503 8 -10340918.03447  22286419.954    22286428.6884
  23468591.750    -7253080.819 8  -5631125.15945  23468591.926    23468604.2794
 00  4 20  1 52  0.0000000  0  7 03 21 09 23 17 26 29
  24333408.057    -2493364.189 7  -1932293.73945  24333414.882    24333426.0454
  23845079.515    -6152265.414 8  -4765053.12945  23845084.443    23845098.9084
  21045363.518   -18262173.349 9 -13958739.77247  21045367.765    21045376.0144
  21212505.257   -19575911.333 9 -15245891.30848  21212509.282    21212517.1554
  20289227.198   -23062715.856 9 -17960412.44648  20289229.036    20289237.5364
  22303485.277   -13200216.038 8 -10271028.55346  22303487.507    22303495.3214
  23452770.031    -7336205.614 8  -5695897.50545  23452773.361    23452785.2264
 00  4 20  1 52 30.0000000  0  7 03 21 09 23 17 26 29
  24333912.518    -2490737.929 7  -1930247.31645  24333914.632    24333925.8454
  23830017.639    -6231418.520 8  -4826730.67945  23830023.052    23830036.0514
  21036914.662   -18306589.394 9 -13993349.63747  21036915.716    21036923.8844
  21205721.499   -19611567.867 9 -15273675.61648  21205724.073    21205731.8394
  20297104.379   -23021323.879 9 -17928158.98348  20297105.998    20297114.1044
  22320580.245   -13110373.250 8 -10201021.16346  22320584.078    22320591.5994
  23436991.937    -7419126.100 8  -5760510.67545  23436995.736    23437006.2364
 00  4 20  1 53  0.0000000  0  7 03 21 09 23 17 26 29
  24334509.900    -2487621.706 7  -1927819.08445  24334507.941    24334520.8794
  23814955.662    -6310592.588 8  -4888424.60945  23814957.458    23814968.2084
  21028565.786   -18350455.839 9 -14027531.21147  21028568.286    21028576.1184
  21198965.731   -19647069.729 9 -15301339.43248  21198968.570    21198976.2754
  20305095.402   -22979325.598 9 -17895433.08348  20305097.707    20305106.1624
  22337709.452   -13020372.705 8 -10130890.97746  22337710.990    22337718.6714
  23421252.564    -7501836.711 8  -5824960.30546  23421255.879    23421266.7114
 00  4 20  1 53 30.0000000  0  7 03 21 09 23 17 26 29
  24335196.504    -2483998.530 7  -1924995.77845  24335196.467    24335209.0024
  23799887.084    -6389785.539 8  -4950133.33945  23799887.885    23799898.8314
  21020326.164   -18393756.019 9 -14061271.55247  21020328.402    21020336.7774
  21192240.358   -19682411.670 9 -15328878.64248  21192243.045    21192250.8854
  20313203.533   -22936713.431 9 -17862228.81748  20313206.302    20313214.6344
  22354864.170   -12930212.367 8 -10060636.22446  22354867.679    22354875.9284
  23405556.082    -7584333.354 8  -5889243.21446  23405558.348    23405568.2044
 00  4 20  1 54  0.0000000  0  7 03 21 09 23 17 26 29
  24335982.419    -2479850.154 7  -1921763.19545  24335986.267    24335999.6904
  23784814.011    -6468995.678 8  -5011855.36645  23784814.251    23784826.5064
  21012194.666   -18436484.653 9 -14094566.55047  21012197.325    21012205.3284
  21185549.568   -19717577.497 9 -15356280.35648  21185551.210    21185559.6514
  20321432.855   -22893475.207 9 -17828536.71848  20321434.378    20321442.5884
  22372052.530   -12839911.980 8  -9990272.34146  22372051.211    22372059.6274
  23389893.600    -7666629.582 8  -5953369.98245  23389896.377    23389906.6134
 00  4 20  1 54 30.0000000  0  7 03 21 09 23 17 26 29
  24336872.161    -2475159.554 7  -1918108.20045  24336879.345    24336890.5334
  23769735.727    -6548217.029 8  -5073586.14145  23769738.640    23769751.1744
  21004172.763   -18478630.003 9 -14127407.01947  21004177.123    21004185.5184
  21178888.585   -19752571.685 9 -15383548.60548  21178891.826    21178899.8754
  20329776.159   -22849617.497 9 -17794361.90248  20329780.185    20329788.7934
  22389256.305   -12749486.792 8  -9919811.17946  22389258.373    22389267.1814
  23374271.387    -7748736.085 8  -6017348.91746  23374272.322    23374282.7074
 00  4 20  1 55  0.0000000  0  7 03 21 09 23 17 26 29
  24337877.683    -2469923.859 7  -1914028.41445  24337874.839    24337888.0494
  23754663.643    -6627448.282 8  -5135324.56546  23754662.106    23754673.1714
  20996268.833   -18520180.359 9 -14159783.85547  20996270.786    20996278.4894
  21172259.228   -19787412.021 9 -15410696.73848  21172262.409    21172269.9884
  20338237.902   -22805158.282 9 -17759718.37648  20338240.692    20338249.3124
  22406485.169   -12658949.955 8  -9849263.00946  22406486.663    22406495.5684
  23358683.811    -7830632.255 8  -6081163.94446  23358688.222    23358697.9284
 00  4 20  1 55 30.0000000  0  7 03 21 09 23 17 26 29
  24338969.730    -2464154.297 7  -1909532.54645  24338973.724    24338986.2354
  23739581.551    -6706682.320 8  -5197065.22646  23739584.195    23739595.8234
  20988475.459   -18561142.060 9 -14191702.00947  20988476.122    20988483.6974
  21165659.554   -19822096.793 9 -15437723.77048  21165661.630    21165669.6164
  20346811.955   -22760100.984 9 -17724608.78248  20346814.759    20346823.4594
  22423734.694   -12568308.977 8  -9778633.69646  22423735.507    22423744.0004
  23343144.444    -7912325.596 8  -6144820.93646  23343143.504    23343153.4994
 00  4 20  1 56  0.0000000  0  7 03 21 09 23 17 26 29
  24340166.940    -2457874.058 7  -1904638.80745  24340168.578    24340180.7004
  23724505.989    -6785907.049 8  -5258798.62146  23724507.270    23724519.8474
  20980791.790   -18601519.112 9 -14223164.60747  20980792.284    20980800.0124
  21159090.102   -19856619.497 9 -15464624.58948  21159092.105    21159099.9894
  20355499.123   -22714456.356 9 -17689041.56348  20355500.631    20355509.1554
  22441003.251   -12477564.154 8  -9707923.41246  22441003.700    22441011.5404
  23327627.399    -7993820.906 8  -6208323.61546  23327634.194    23327643.9754
 00  4 20  1 56 30.0000000  0  7 03 21 09 23 17 26 29
  24341452.163    -2451106.643 7  -1899365.42145  24341456.713    24341468.5694
  23709427.732    -6865115.821 8  -5320519.66246  23709434.282    23709445.9194
  20973219.086   -18641302.099 9 -14254164.28847  20973221.869    20973229.5134
  21152551.711   -19890975.365 9 -15491395.51248  21152554.271    21152562.6594
  20364293.205   -22668236.197 9 -17653025.87448  20364296.112    20364304.4614
  22458291.259   -12386710.770 8  -9637128.64446  22458292.703    22458301.0814
  23312164.585    -8075101.510 8  -6271658.99146  23312165.803    23312177.2654
 00  4 20  1 57  0.0000000  0  7 03 21 09 23 17 26 29
  24342837.933    -2443857.007 7  -1893716.39445  24342835.479    24342850.7374
  23694360.790    -6944302.549 8  -5382223.47546  23694366.143    23694377.0494
  20965764.811   -18680484.470 9 -14284695.95247  20965765.719    20965773.6534
  21146045.551   -19925155.483 9 -15518029.56248  21146049.993    21146058.2124
  20373197.541   -22621438.706 9 -17616560.31248  20373201.251    20373209.6014
  22475596.431   -12295740.970 8  -9566243.08746  22475603.539    22475612.0424
  23296740.627    -8156165.072 8  -6334825.24346  23296741.333    23296751.5394
 00  4 20  1 57 30.0000000  0  7 03 21 09 23 17 26 29
  24344307.149    -2436123.549 7  -1887690.22845  24344305.649    24344318.5634
  23679296.701    -7023469.098 8  -5443911.54846  23679301.297    23679311.6794
  20958420.359   -18719056.772 9 -14314752.25047  20958424.890    20958433.4714
  21139577.489   -19959156.069 9 -15544523.40448  21139579.675    21139588.0714
  20382213.752   -22574068.104 9 -17579648.15248  20382215.423    20382224.0044
  22492933.609   -12204644.715 8  -9495259.03346  22492938.771    22492947.2044
  23281346.243    -8237024.362 8  -6397832.34046  23281353.457    23281365.0714
 00  4 20  1 58  0.0000000  0  7 03 21 09 23 17 26 29
  24345868.994    -2427893.556 7  -1881277.20445  24345872.537    24345884.6544
  23664238.276    -7102626.146 8  -5505592.19946  23664238.342    23664248.4794
  20951201.095   -18757004.149 9 -14344321.59147  20951204.172    20951212.4544
  21133140.400   -19992982.909 9 -15570881.97648  21133142.595    21133151.1534
  20391336.854   -22526128.885 9 -17542292.94948  20391338.094    20391346.7184
  22510293.305   -12113423.569 8  -9424177.65446  22510297.275    22510306.7204
  23266000.786    -8317670.952 8  -6460673.70446  23266006.488    23266017.2864
 00  4 20  1 58 30.0000000  0  7 03 21 09 23 17 26 29
  24347525.094    -2419158.419 7  -1874470.51145  24347535.108    24347547.7724
  23649175.433    -7181780.681 8  -5567270.90246  23649174.870    23649184.9404
  20944100.446   -18794317.182 9 -14373396.61847  20944103.589    20944111.7934
  21126733.439   -20026646.299 9 -15597113.05748  21126736.912    21126745.0284
  20400568.115   -22477613.702 9 -17504488.94848  20400570.113    20400578.9314
  22527680.023   -12022083.984 8  -9353004.03246  22527679.333    22527687.4284
  23250698.978    -8398112.353 8  -6523355.16246  23250699.002    23250708.8654
 00  4 20  1 59  0.0000000  0  7 03 21 09 23 17 26 29
  24349295.308    -2409918.425 7  -1867270.46045  24349293.602    24349304.7974
  23634106.254    -7260944.233 8  -5628956.51446  23634109.003    23634120.8794
  20937118.358   -18831005.863 9 -14401985.14947  20937121.428    20937129.9084
  21120359.054   -20060154.117 9 -15623222.97748  21120360.646    21120368.9004
  20409908.403   -22428525.253 9 -17466238.21648  20409911.454    20409920.0994
  22545083.229   -11930639.419 8  -9281748.47046  22545080.323    22545088.7534
  23235423.959    -8478359.766 8  -6585885.46446  23235427.714    23235438.2274
 00  4 20  1 59 30.0000000  0  7 03 21 09 23 17 26 29
  24351136.601    -2400193.033 7  -1859692.21845  24351145.228    24351154.8094
  23619040.678    -7340130.082 8  -5690659.48046  23619041.309    23619051.3904
  20930256.266   -18867076.514 9 -14430092.11447  20930257.448    20930265.2964
  21114012.810   -20093503.052 9 -15649209.44048  21114014.442    21114022.2884
  20419358.656   -22378871.997 9 -17427547.39748  20419360.279    20419368.7714
  22562501.336   -11839095.161 8  -9210415.31946  22562500.641    22562509.0824
  23220193.093    -8558407.400 8  -6648260.09846  23220195.505    23220205.7574
 00  4 20  2  0  0.0000000  0  7 03 21 09 23 17 26 29
  24353089.710    -2389993.649 7  -1851744.57245  24353084.012    24353098.0714
  23603966.507    -7419340.282 8  -5752381.56246  23603968.966    23603979.0754
  20923508.473   -18902535.365 9 -14457722.33647  20923510.441    20923518.3454
  21107695.808   -20126688.667 9 -15675068.44948  21107699.433    21107707.9584
  20428914.465   -22328642.691 9 -17388407.69648  20428918.307    20428927.0174
  22579932.232   -11747464.685 8  -9139014.96546  22579937.120    22579945.9214
  23204997.006    -8638261.666 8  -6710484.02546  23204999.743    23205010.1584
 00  4 20  2  0 30.0000000  0  7 03 21 09 23 17 26 29
  24355107.372    -2379341.245 7  -1843443.96145  24355111.095    24355125.4354
  23588884.876    -7498577.384 8  -5814124.61146  23588890.626    23588901.2924
  20916872.243   -18937395.489 9 -14484886.02447  20916876.348    20916884.7834
  21101412.921   -20159708.537 9 -15700798.08448  21101416.284    21101424.4204
  20438583.737   -22277831.747 9 -17348814.79048  20438587.258    20438596.1704
  22597382.048   -11655760.041 8  -9067556.76146  22597387.968    22597395.7614
  23189839.017    -8717926.135 8  -6772560.08246  23189840.463    23189849.6904
 00  4 20  2  1  0.0000000  0  7 03 21 09 23 17 26 29
  24357228.736    -2368236.570 7  -1834790.90645  24357225.570    24357237.1264
  23573803.991    -7577838.813 8  -5875886.59146  23573806.606    23573817.8804
  20910350.426   -18971667.210 9 -14511591.22147  20910354.667    20910362.6924
  21095163.371   -20192557.964 9 -15726394.78848  21095165.108    21095173.1424
  20448367.082   -22226437.523 9 -17308767.36548  20448367.521    20448376.1844
  22614850.607   -11563976.779 8  -8996037.34146  22614853.862    22614862.5774
  23174715.264    -8797379.438 8  -6834471.57946  23174719.172    23174730.6564
 00  4 20  2  1 30.0000000  0  7 03 21 09 23 17 26 29
  24359425.032    -2356657.749 7  -1825768.38545  24359427.737    24359442.8194
  23558722.282    -7657111.621 8  -5937657.45446  23558721.726    23558732.9274
  20903945.208   -19005341.838 9 -14537831.14347  20903946.832    20903954.9724
  21088939.094   -20225252.157 9 -15751870.60648  21088942.806    21088951.4984
  20458255.498   -22174456.897 9 -17268263.00548  20458259.254    20458267.7194
  22632335.916   -11472109.387 8  -8924452.35246  22632335.683    22632344.7114
  23159637.442    -8876608.135 8  -6896208.06646  23159643.359    23159653.4714
 00  4 20  2  2  0.0000000  0  7 03 21 09 23 17 26 29
  24361727.693    -2344577.048 7  -1816354.67145  24361728.844    24361739.2364
  23543633.200    -7736381.380 8  -5999425.95846  23543636.384    23543647.8444
  20897650.404   -19038421.267 9 -14563607.26547  20897651.891    20897659.8544
  21082745.514   -20257808.439 9 -15777239.13848  21082747.909    21082756.2094
  20468261.835   -22121882.432 9 -17227295.92448  20468263.901    20468272.3924
  22649826.365   -11380168.854 8  -8852810.35746  22649831.531    22649839.5984
  23144604.692    -8955607.170 8  -6957765.61846  23144610.145    23144620.9534
 00  4 20  2  2 30.0000000  0  7 03 21 09 23 17 26 29
  24364112.602    -2331981.141 7  -1806539.61045  24364124.431    24364136.8254
  23528554.075    -7815638.586 8  -6061184.68146  23528555.060    23528566.3794
  20891468.034   -19070908.280 9 -14588921.78847  20891469.569    20891477.7024
  21076578.245   -20290218.558 9 -15802493.65748  21076579.993    21076588.6254
  20478376.406   -22068727.603 9 -17185876.64148  20478378.493    20478387.3314
  22667345.757   -11288139.083 8  -8781098.90246  22667343.810    22667352.2254
  23129618.340    -9034357.749 8  -7019129.55146  23129623.518    23129633.9094
 00  4 20  2  3  0.0000000  0  7 03 21 09 23 17 26 29
  24366621.811    -2318846.192 7  -1796304.50645  24366623.376    24366639.1124
  23513475.132    -7894874.906 8  -6122927.11646  23513476.396    23513487.9284
  20885398.877   -19102791.313 9 -14613765.67947  20885402.365    20885410.6984
  21070438.124   -20322470.969 9 -15827625.35248  21070442.567    21070451.1274
  20488599.494   -22014995.192 9 -17144007.27748  20488603.388    20488612.3794
  22684875.604   -11195994.505 8  -8709297.96646  22684877.774    22684887.2274
  23114682.361    -9112855.475 8  -7080296.47746  23114686.651    23114697.0994
 00  4 20  2  3 30.0000000  0  7 03 21 09 23 17 26 29
  24369221.183    -2305174.061 7  -1785650.87345  24369224.422    24369238.9974
  23498394.568    -7974091.645 8  -6184654.27746  23498400.648    23498413.1834
  20879444.534   -19134062.850 9 -14638133.07147  20879451.810    20879459.5784
  21064336.933   -20354548.747 9 -15852620.96648  21064338.691    21064346.8064
  20498930.223   -21960696.479 9 -17101696.62548  20498936.169    20498944.8824
  22702431.708   -11103731.367 8  -8637404.62046  22702434.971    22702444.5204
  23099792.628    -9191119.955 8  -7141281.65146  23099793.423    23099803.1924
 00  4 20  2  4  0.0000000  0  7 03 21 09 23 17 26 29
  24371910.646    -2290990.299 7  -1774598.57944  24371921.329    24371938.7074
  23483327.980    -8053301.372 8  -6246376.02246  23483327.509    23483339.5924
  20873612.135   -19164728.983 9 -14662028.70548  20873616.389    20873624.6154
  21058272.206   -20386415.915 9 -15877452.41448  21058274.735    21058282.1824
  20509374.718   -21905828.003 9 -17058941.98148  20509377.996    20509386.5304
  22720015.809   -11011339.033 8  -8565410.66846  22720017.385    22720024.8504
  23084940.382    -9269161.475 8  -7202093.05846  23084943.364    23084952.6804
 00  4 20  2  4 30.0000000  0  7 03 21 09 23 17 26 29
  24374713.358    -2276322.012 7  -1763168.66045  24374715.261    24374727.5054
  23468247.493    -8132515.360 8  -6308101.03046  23468254.197    23468266.1774
  20867897.261   -19194780.968 9 -14685445.78848  20867897.397    20867905.4694
  21052251.624   -20418055.811 9 -15902106.82648  21052253.691    21052261.1174
  20519923.530   -21850395.678 9 -17015747.98448  20519926.469    20519934.8294
  22737620.385   -10918817.390 8  -8493315.95146  22737623.264    22737632.4364
  23070132.931    -9346990.091 8  -7262738.59546  23070131.876    23070141.7514
 00  4 20  2  5  0.0000000  0  7 03 21 09 23 17 26 29
  24377593.616    -2261183.874 7  -1751372.73245  24377595.131    24377609.1634
  23453177.270    -8211741.081 8  -6369835.16846  23453177.712    23453189.6974
  20862293.573   -19224212.021 9 -14708379.02647  20862296.928    20862304.4064
  21046269.494   -20449480.052 9 -15926593.21348  21046273.585    21046281.1774
  20530577.486   -21794403.508 9 -16972117.73848  20530581.073    20530589.7434
  22755248.852   -10826186.570 8  -8421136.08246  22755250.682    22755259.5574
  23055353.044    -9424614.129 8  -7323224.71746  23055359.167    23055369.6884
 00  4 20  2  5 30.0000000  0  7 03 21 09 23 17 26 29
  24380564.327    -2245589.407 7  -1739221.18144  24380564.005    24380575.6554
  23438097.135    -8290985.272 8  -6431583.73446  23438097.503    23438109.0544
  20856813.573   -19253027.442 9 -14730832.55247  20856813.271    20856820.9034
  21040328.246   -20480710.633 9 -15950928.67148  21040330.797    21040338.5414
  20541341.155   -21737850.294 9 -16928050.30948  20541342.663    20541351.3854
  22772892.570   -10733472.020 8  -8348891.02446  22772893.784    22772902.6784
  23040624.286    -9502036.817 8  -7383553.91746  23040626.836    23040636.0674
 00  4 20  2  6  0.0000000  0  7 03 21 09 23 17 26 29
  24383620.740    -2229535.255 7  -1726711.45545  24383617.817    24383630.7594
  23423010.101    -8370249.371 8  -6493347.79546  23423014.830    23423023.9494
  20851444.496   -19281220.880 9 -14752801.42747  20851448.259    20851456.1274
  21034419.887   -20511766.266 9 -15975127.87548  21034421.161    21034428.7164
  20552211.230   -21680730.194 9 -16883541.13748  20552212.614    20552221.0644
  22790545.313   -10640688.284 8  -8276592.01346  22790549.822    22790559.0594
  23025924.890    -9579249.638 8  -7443719.64146  23025933.250    23025943.4644
 00  4 20  2  6 30.0000000  0  7 03 21 09 23 17 26 29
  24386757.437    -2213004.482 7  -1713830.33445  24386764.292    24386778.7674
  23407927.669    -8449519.738 8  -6555116.74146  23407929.466    23407940.2334
  20846202.101   -19308784.153 9 -14774279.25647  20846203.234    20846211.0104
  21028537.306   -20542676.909 9 -15999213.98448  21028539.079    21028546.4504
  20563187.092   -21623046.188 9 -16838592.58048  20563189.496    20563197.6064
  22808215.988   -10547839.134 8  -8204242.01646  22808218.805    22808227.2434
  23011280.802    -9656254.341 8  -7503723.16746  23011280.634    23011290.3064
 00  4 20  2  7  0.0000000  0  7 03 21 09 23 17 26 29
  24390008.524    -2195978.890 7  -1700563.58245  24390004.587    24390017.4464
  23392842.220    -8528787.542 8  -6616883.75646  23392845.065    23392855.6524
  20841074.428   -19335721.001 9 -14795268.95448  20841077.659    20841085.1954
  21022682.588   -20573448.613 9 -16023191.78348  21022683.365    21022690.8784
  20574272.092   -21564793.185 9 -16793200.65248  20574274.932    20574282.8644
  22825896.358   -10454911.975 8  -8131831.25746  22825902.505    22825910.8524
  22996661.596    -9733046.783 8  -7563561.30546  22996667.819    22996675.8884
 00  4 20  2  7 30.0000000  0  7 03 21 09 23 17 26 29
  24393332.968    -2178458.055 7  -1686910.96744  24393339.720    24393351.1434
  23377758.371    -8608044.616 8  -6678642.42946  23377763.409    23377774.0644
  20836068.147   -19362025.005 9 -14815765.53048  20836071.738    20836079.7834
  21016854.545   -20604070.025 9 -16047052.73648  21016855.805    21016864.2104
  20585466.660   -21505965.328 9 -16747360.78948  20585469.327    20585478.0934
  22843601.629   -10361905.876 8  -8059358.91846  22843600.668    22843608.2984
  22982091.870    -9809628.113 8  -7623234.90646  22982094.066    22982103.7274
 00  4 20  2  8  0.0000000  0  7 03 21 09 23 17 26 29
  24396766.703    -2160448.485 7  -1672877.44244  24396766.634    24396778.1774
  23362687.690    -8687275.909 8  -6740381.00346  23362686.864    23362696.7724
  20831183.216   -19387691.063 9 -14835765.00948  20831187.124    20831195.5144
  21011058.970   -20634522.169 9 -16070781.72248  21011061.120    21011069.2554
  20596766.319   -21446577.179 9 -16701084.34148  20596770.153    20596779.5934
  22861309.166   -10268816.015 8  -7986821.31946  22861314.314    22861322.8384
  22967558.951    -9885992.167 8  -7682739.21346  22967562.688    22967571.3164
 00  4 20  2  8 30.0000000  0  7 03 21 09 23 17 26 29
  24400280.136    -2141966.605 7  -1658475.86644  24400282.549    24400293.2704
  23347613.372    -8766466.302 8  -6802087.67246  23347617.457    23347626.2134
  20826421.514   -19412722.462 9 -14855269.93948  20826423.746    20826432.4404
  21005297.299   -20664798.251 9 -16094373.40748  21005300.018    21005308.5014
  20608173.801   -21386635.054 9 -16654376.20948  20608176.675    20608185.8974
  22879043.258   -10175645.332 8  -7914220.77746  22879044.757    22879053.0754
  22953065.603    -9962136.926 8  -7742072.66046  22953073.313    22953080.8594
 00  4 20  2  9  0.0000000  0  7 03 21 09 23 17 26 29
  24403884.179    -2123030.927 7  -1643720.72145  24403885.728    24403898.9164
  23332545.899    -8845619.984 8  -6863765.80746  23332553.834    23332564.6234
  20821777.917   -19437124.413 9 -14874284.39748  20821780.594    20821788.5714
  20999574.759   -20694872.046 9 -16117807.45548  20999577.063    20999585.3044
  20619679.362   -21326154.589 9 -16607248.59248  20619685.724    20619694.8844
  22896784.988   -10082418.968 8  -7841576.83846  22896784.308    22896793.3294
  22938622.306   -10038047.371 8  -7801223.50946  22938627.570    22938636.5874
 00  4 20  2  9 30.0000000  0  7 03 21 09 23 17 26 29
  24407567.737    -2103649.752 7  -1628618.45545  24407574.711    24407582.9274
  23317500.075    -8924735.096 8  -6925413.87546  23317500.126    23317508.6974
  20817256.517   -19460893.246 9 -14892805.51748  20817257.558    20817265.4864
  20993889.386   -20724737.933 9 -16141079.62648  20993893.708    20993902.0584
  20631292.328   -21265156.864 9 -16559717.91548  20631293.657    20631302.1694
  22914522.816    -9989153.963 8  -7768902.79146  22914531.430    22914540.5834
  22924226.498   -10113722.471 8  -7860190.98646  22924227.165    22924236.2374
 00  4 20  2 10  0.0000000  0  7 03 21 09 23 17 26 29
  24411346.763    -2083821.583 7  -1613167.91745  24411349.833    24411358.2944
  23302448.177    -9003815.908 8  -6987035.13146  23302450.871    23302460.0474
  20812849.651   -19484041.730 9 -14910843.24948  20812852.453    20812860.5964
  20988246.766   -20754408.472 9 -16164199.65848  20988247.584    20988256.2304
  20642999.548   -21203635.587 9 -16511779.27248  20643001.031    20643009.4114
  22932289.013    -9895850.753 8  -7696199.05246  22932287.209    22932294.7864
  22909868.480   -10189163.350 8  -7918975.91946  22909870.859    22909880.1154
 00  4 20  2 10 30.0000000  0  7 03 21 09 23 17 26 29
  24415206.879    -2063533.901 7  -1597359.23245  24415209.148    24415219.5734
  23287404.401    -9082879.932 8  -7048643.34546  23287404.601    23287415.9584
  20808563.007   -19506572.718 9 -14928399.81548  20808565.247    20808573.1034
  20982635.540   -20783882.764 9 -16187166.86348  20982638.950    20982647.3414
  20654806.151   -21141580.043 9 -16463424.30648  20654809.228    20654818.3914
  22950046.065    -9802518.710 8  -7623472.79846  22950048.596    22950056.5844
  22895558.181   -10264373.226 8  -7977580.86646  22895559.698    22895567.5124
 00  4 20  2 11  0.0000000  0  7 03 21 09 23 17 26 29
  24419150.402    -2042768.519 7  -1581178.42145  24419159.303    24419170.5164
  23272354.538    -9161939.632 8  -7110248.19546  23272360.276    23272371.0414
  20804394.172   -19528477.260 9 -14945468.23948  20804396.731    20804404.4934
  20977064.463   -20813160.152 9 -16209980.29248  20977067.632    20977075.9914
  20666718.251   -21078986.260 9 -16414649.95547  20666720.183    20666729.4674
  22967809.457    -9709148.021 8  -7550716.40546  22967815.669    22967824.0724
  22881287.982   -10339356.294 8  -8036009.09646  22881290.963    22881298.9924
 00  4 20  2 11 30.0000000  0  7 03 21 09 23 17 26 29
  24423211.792    -2021517.339 7  -1564619.14045  24423204.288    24423214.7834
  23257315.554    -9240998.227 8  -7171852.16046  23257316.762    23257325.8804
  20800347.885   -19549742.484 9 -14962038.51048  20800349.770    20800357.7074
  20971528.673   -20842267.138 9 -16232660.93148  20971529.004    20971537.1364
  20678734.027   -21015831.914 9 -16365438.79748  20678738.476    20678747.6534
  22985591.599    -9615716.757 8  -7477912.82346  22985594.400    22985602.4644
  22867060.686   -10414124.847 8  -8094270.16446  22867062.306    22867071.8144
 00  4 20  2 12  0.0000000  0  7 03 21 09 23 17 26 29
  24427339.465    -1999783.188 7  -1547683.46145  24427339.766    24427350.4414
  23242266.071    -9320066.596 8  -7233463.77146  23242269.297    23242279.7304
  20796422.779   -19570371.011 9 -14978112.64148  20796424.570    20796432.3324
  20966020.772   -20871204.676 9 -16255209.64848  20966021.868    20966030.3394
  20690864.658   -20952092.091 9 -16315771.42448  20690868.081    20690876.7114
  23003384.500    -9522210.044 8  -7405050.42946  23003389.135    23003397.5464
  22852872.228   -10488670.353 8  -8152357.42746  22852876.046    22852885.1644
 00  4 20  2 12 30.0000000  0  7 03 21 09 23 17 26 29
  24431564.716    -1977572.373 7  -1530376.27245  24431564.817    24431578.2424
  23227215.344    -9399138.135 8  -7295077.78546  23227221.217    23227232.5504
  20792620.599   -19590352.867 9 -14993682.87448  20792622.473    20792630.2964
  20960548.753   -20899958.387 9 -16277614.93048  20960550.098    20960558.4304
  20703104.586   -20887779.902 9 -16265658.06347  20703106.517    20703114.5764
  23021200.254    -9428609.530 8  -7332114.91546  23021200.352    23021209.4174
  22838728.899   -10562988.227 8  -8210267.30446  22838734.075    22838742.0574
 00  4 20  2 13  0.0000000  0  7 03 21 09 23 17 26 29
  24435877.979    -1954898.871 7  -1512708.56445  24435880.413    24435891.6494
  23212176.460    -9478203.380 8  -7356686.91046  23212176.764    23212186.7574
  20788937.396   -19609688.187 9 -15008749.31848  20788942.551    20788950.4834
  20955108.248   -20928537.670 9 -16299884.36948  20955111.716    20955119.6434
  20715451.525   -20822892.955 9 -16215096.82547  20715453.798    20715462.0424
  23039026.569    -9334900.882 8  -7259095.22446  23039032.738    23039040.6034
  22824632.041   -10637078.270 8  -8267999.64646  22824634.859    22824643.5994
 00  4 20  2 13 30.0000000  0  7 03 21 09 23 17 26 29
  24440273.285    -1931771.086 7  -1494686.89845  24440281.209    24440293.5844
  23197132.556    -9557263.919 8  -7418292.39946  23197132.424    23197142.4884
  20785382.473   -19628388.834 9 -15023321.21348  20785384.051    20785391.4674
  20949705.720   -20956933.490 9 -16322010.97548  20949708.341    20949715.9654
  20727909.373   -20757428.950 9 -16164085.93947  20727910.855    20727919.1594
  23056881.524    -9241096.489 8  -7186000.92346  23056883.395    23056891.5484
  22810580.360   -10710931.092 8  -8325547.13946  22810580.588    22810590.0464
 00  4 20  2 14  0.0000000  0  7 03 21 09 23 17 26 29
  24444761.915    -1908187.343 7  -1476309.88544  24444768.012    24444780.2284
  23182089.837    -9636313.316 8  -7479889.22146  23182088.583    23182099.9124
  20781941.723   -19646468.239 9 -15037409.02048  20781943.709    20781951.1444
  20944339.334   -20985124.708 9 -16343978.39148  20944343.817    20944351.5304
  20740472.516   -20691408.262 9 -16112641.27047  20740474.227    20740483.1034
  23074746.373    -9147210.603 8  -7112843.10546  23074749.113    23074758.2754
  22796567.059   -10784545.234 8  -8382908.63446  22796571.767    22796581.5244
 00  4 20  2 14 30.0000000  0  7 03 21 09 23 17 26 29
  24449342.596    -1884148.815 7  -1457578.47745  24449344.015    24449353.9634
  23167046.597    -9715344.664 8  -7541471.99746  23167049.290    23167060.7504
  20778618.691   -19663919.288 9 -15051007.21448  20778622.923    20778630.3644
  20939014.785   -21013116.448 9 -16365790.07048  20939016.982    20939024.7844
  20753138.038   -20624849.575 9 -16060777.38547  20753140.147    20753149.0024
  23092618.121    -9053267.369 8  -7039640.63146  23092625.604    23092634.9254
  22782605.810   -10857938.880 8  -8440098.34646  22782605.048    22782615.4834
 00  4 20  2 15  0.0000000  0  7 03 21 09 23 17 26 29
  24454000.996    -1859651.804 7  -1438489.88145  24454004.442    24454014.6684
  23152006.223    -9794372.343 8  -7603051.86546  23152011.201    23152021.5364
  20775416.810   -19680743.412 9 -15064116.88248  20775421.027    20775428.8844
  20933725.585   -21040912.317 9 -16387449.12448  20933727.847    20933735.4194
  20765901.382   -20557758.272 9 -16008498.47947  20765907.100    20765915.9704
  23110502.964    -8959301.654 8  -6966420.57746  23110506.177    23110515.3394
  22768675.013   -10931112.412 8  -8497116.53746  22768681.352    22768690.5624
 00  4 20  2 15 30.0000000  0  7 03 21 09 23 17 26 29
  24458755.095    -1834695.445 7  -1419043.27245  24458754.170    24458767.6954
  23136972.113    -9873389.356 8  -7664623.41646  23136974.892    23136984.6004
  20772338.424   -19696939.216 9 -15076736.95448  20772339.045    20772346.7184
  20928473.608   -21068504.956 9 -16408950.02248  20928477.235    20928485.0444
  20778767.318   -20490160.388 9 -15955824.81847  20778770.606    20778779.1864
  23128384.444    -8865328.938 8  -6893195.16846  23128388.263    23128397.8824
  22754794.922   -11004067.516 8  -8553964.53846  22754798.312    22754807.5024
 00  4 20  2 16  0.0000000  0  7 03 21 09 23 17 26 29
  24463582.040    -1809294.599 7  -1399250.40445  24463587.842    24463599.7114
  23121938.748    -9952384.840 8  -7726178.21346  23121942.073    23121952.1814
  20769373.000   -19712498.497 9 -15088861.02448  20769378.078    20769385.8424
  20923262.507   -21095900.073 9 -16430296.97248  20923264.219    20923271.6864
  20791726.800   -20422071.014 9 -15902768.20147  20791727.554    20791736.0384
  23146271.087    -8771341.076 8  -6819957.89946  23146275.191    23146283.3454
  22740949.686   -11076814.909 8  -8610650.67446  22740954.649    22740964.3074
 00  4 20  2 16 30.0000000  0  7 03 21 09 23 17 26 29
  24468502.171    -1783460.258 7  -1379119.70845  24468504.825    24468516.2844
  23106913.107   -10031357.250 8  -7787715.00546  23106913.731    23106925.0674
  20766539.412   -19727410.869 9 -15100481.01748  20766540.430    20766548.4474
  20918085.540   -21123101.845 9 -16451493.02048  20918087.442    20918095.4594
  20804777.541   -20353481.499 9 -15849321.85447  20804779.731    20804788.0054
  23164161.071    -8677332.651 8  -6746704.61146  23164163.858    23164172.9394
  22727145.991   -11149360.404 8  -8667179.49846  22727149.039    22727158.4854
 00  4 20  2 17  0.0000000  0  7 03 21 09 23 17 26 29
  24473489.224    -1757194.885 7  -1358653.15545  24473500.134    24473513.9524
  23091891.716   -10110300.739 8  -7849229.24146  23091892.542    23091902.7434
  20763821.587   -19741676.829 9 -15111597.32248  20763825.801    20763833.8334
  20912946.769   -21150100.999 9 -16472531.15648  20912949.987    20912957.7874
  20817922.896   -20284387.312 9 -15795482.25947  20817927.689    20817936.2584
  23182057.540    -8583290.552 8  -6673425.06046  23182059.530    23182067.9124
  22713383.032   -11221685.422 8  -8723536.49746  22713385.696    22713396.3724
 00  4 20  2 17 30.0000000  0  7 03 21 09 23 17 26 29
  24478579.250    -1730502.447 7  -1337853.83645  24478580.328    24478594.9864
  23076876.277   -10189194.761 8  -7910704.91746  23076879.661    23076889.3494
  20761233.103   -19755289.575 9 -15122204.62148  20761235.221    20761242.7414
  20907848.309   -21176893.972 9 -16493408.87448  20907851.367    20907858.9074
  20831172.842   -20214764.777 9 -15741230.97147  20831176.431    20831185.2984
  23199957.959    -8489182.591 8  -6600094.14246  23199966.751    23199975.2054
  22699664.197   -11293788.235 8  -8779720.36446  22699665.494    22699675.1764
 00  4 20  2 18  0.0000000  0  7 03 21 09 23 17 26 29
  24483735.671    -1703381.634 7  -1316720.68545  24483741.729    24483753.9554
  23061873.150   -10268053.265 8  -7972152.94046  23061873.530    23061882.3074
  20758769.183   -19768240.784 9 -15132296.44448  20758770.538    20758778.1204
  20902789.547   -21203477.855 9 -16514123.43448  20902792.069    20902799.9684
  20844528.707   -20144584.504 9 -15686545.06947  20844531.599    20844540.3234
  23217883.045    -8395003.728 8  -6526707.95646  23217888.446    23217898.4644
  22685980.781   -11365664.205 8  -8835727.49146  22685987.066    22685996.7824
 00  4 20  2 18 30.0000000  0  7 03 21 09 23 17 26 29
  24488975.018    -1675824.563 7  -1295247.59645  24488983.938    24488998.9104
  23046869.129   -10346879.538 8  -8033575.88946  23046872.880    23046881.7854
  20756429.040   -19780532.986 9 -15141874.75948  20756431.698    20756439.0064
  20897771.385   -21229850.720 9 -16534673.68448  20897773.418    20897781.6824
  20857988.310   -20073841.560 9 -15631420.72947  20857993.948    20858002.1394
  23235813.936    -8300767.743 8  -6453277.30846  23235821.982    23235830.2874
  22672352.448   -11437300.208 8  -8891547.63646  22672355.787    22672364.6314
 00  4 20  2 19  0.0000000  0  7 03 21 09 23 17 26 29
  24494310.908    -1647825.793 7  -1273430.38345  24494314.017    24494325.4874
  23031878.401   -10425671.529 8  -8094972.17146  23031879.071    23031888.4344
  20754214.335   -19792177.196 9 -15150948.14548  20754215.606    20754223.5854
  20892791.993   -21256013.100 9 -16555060.06348  20892795.361    20892803.2004
  20871556.484   -20002548.178 9 -15575867.47647  20871560.333    20871569.0784
  23253760.308    -8206481.446 8  -6379807.38146  23253764.223    23253771.9284
  22658768.878   -11508674.545 8  -8947163.87946  22658773.819    22658782.6604
 00  4 20  2 19 30.0000000  0  7 03 21 09 23 17 26 29
  24499727.410    -1619380.871 7  -1251265.39444  24499726.086    24499737.6764
  23016889.632   -10504428.195 8  -8156340.91946  23016892.635    23016901.9974
  20752117.369   -19803180.420 9 -15159522.05448  20752121.703    20752129.8884
  20887853.247   -21281967.164 9 -16575284.05048  20887856.369    20887864.5884
  20885227.514   -19930709.509 9 -15519889.32247  20885230.896    20885239.8204
  23271702.841    -8112160.601 8  -6306310.57246  23271712.854    23271720.2444
  22645237.260   -11579799.864 8  -9002586.09246  22645239.553    22645248.5894
 00  4 20  2 20  0.0000000  0  7 03 21 09 23 17 26 29
  24505224.046    -1590485.954 7  -1228749.83544  24505222.274    24505236.0024
  23001909.058   -10583154.399 8  -8217685.91446  23001910.864    23001920.6424
  20750145.812   -19813550.280 9 -15167602.42848  20750148.570    20750156.0914
  20882951.658   -21307726.642 9 -16595356.19448  20882954.378    20882962.4424
  20898994.534   -19858356.319 9 -15463510.23047  20898999.162    20899008.1084
  23289662.776    -8017836.151 8  -6232811.05846  23289662.061    23289670.3984
  22631750.356   -11650685.105 8  -9057821.23246  22631750.272    22631760.3954
 00  4 20  2 20 30.0000000  0  7 03 21 09 23 17 26 29
  24510812.308    -1561140.588 7  -1205883.31644  24510809.783    24510821.2784
  22986934.951   -10661834.524 8  -8278994.98846  22986937.933    22986948.5584
  20748288.452   -19823303.375 9 -15175202.20648  20748292.579    20748300.2914
  20878085.878   -21333299.651 9 -16615283.15048  20878087.904    20878096.2044
  20912859.708   -19785510.788 9 -15406747.50547  20912861.657    20912870.1564
  23307606.538    -7923509.386 8  -6159309.70346  23307611.964    23307619.9064
  22618304.836   -11721333.958 8  -9112872.18246  22618305.283    22618315.3244
 00  4 20  2 21  0.0000000  0  7 03 21 09 23 17 26 29
  24516480.785    -1531334.597 7  -1182657.86344  24516477.143    24516495.3254
  22971970.652   -10740468.827 8  -8340268.34946  22971974.213    22971983.9954
  20746551.228   -19832436.155 9 -15182318.62048  20746554.552    20746562.1114
  20873254.421   -21358688.793 9 -16635066.92548  20873256.586    20873264.7584
  20926817.705   -19712166.718 9 -15349596.31547  20926818.016    20926827.0714
  23325557.172    -7829169.673 8  -6085798.28546  23325564.417    23325572.5024
  22604900.918   -11791755.828 8  -9167746.28746  22604905.012    22604913.8404
 00  4 20  2 21 30.0000000  0  7 03 21 09 23 17 26 29
  24522237.958    -1501069.363 7  -1159074.49844  24522240.820    24522252.4654
  22957013.032   -10819072.729 8  -8401518.03346  22957016.213    22957026.2684
  20744935.546   -19840929.933 9 -15188937.11548  20744938.605    20744945.6664
  20868460.869   -21383887.815 9 -16654702.53448  20868461.692    20868469.4574
  20940867.881   -19638312.761 9 -15292047.81847  20940871.703    20940881.1924
  23343524.597    -7734804.513 8  -6012267.07346  23343521.718    23343530.5424
  22591542.263   -11861961.449 8  -9222451.87346  22591545.600    22591554.0944
 00  4 20  2 22  0.0000000  0  7 03 21 09 23 17 26 29
  24528081.131    -1470363.309 7  -1135147.69744  24528083.836    24528095.7844
  22942060.452   -10897654.420 8  -8462750.32146  22942062.432    22942072.5694
  20743441.369   -19848781.749 9 -15195055.38348  20743444.722    20743451.4034
  20863701.304   -21408893.806 9 -16674187.73448  20863702.988    20863710.8424
  20955020.233   -19563951.554 9 -15234104.04847  20955022.651    20955031.5014
  23361487.892    -7640393.306 8  -5938699.90246  23361488.044    23361495.8304
  22578227.969   -11931938.353 8  -9276979.22246  22578229.526    22578237.5624
 00  4 20  2 22 30.0000000  0  7 03 21 09 23 17 26 29
  24533999.907    -1439227.387 7  -1110885.91444  24534008.127    24534022.4824
  22927109.493   -10976222.854 8  -8523972.28746  22927110.674    22927122.2284
  20742070.714   -19855991.885 9 -15200673.62748  20742072.333    20742079.8624
  20858984.013   -21433686.635 9 -16693506.75448  20858985.187    20858992.8534
  20969268.096   -19489074.464 9 -15175758.29047  20969271.194    20969279.6994
  23379458.374    -7545922.964 8  -5865086.62746  23379463.744    23379472.8754
  22564958.535   -12001668.921 8  -9331314.61346  22564959.743    22564969.0434
 00  4 20  2 23  0.0000000  0  7 03 21 09 23 17 26 29
  24540010.826    -1407681.631 7  -1086304.74644  24540011.327    24540025.4624
  22912153.176   -11054801.784 8  -8585202.50146  22912158.623    22912168.9394
  20740821.654   -19862550.852 9 -15205784.47748  20740824.036    20740831.8274
  20854307.713   -21458251.977 9 -16712648.53148  20854310.258    20854318.0634
  20983615.675   -19413680.755 9 -15117009.98147  20983618.627    20983627.1504
  23397451.515    -7451391.392 8  -5791425.67846  23397453.010    23397461.7844
  22551731.133   -12071160.120 8  -9385463.48146  22551735.774    22551745.3124
 00  4 20  2 23 30.0000000  0  7 03 21 09 23 17 26 29
  24546083.694    -1375743.627 7  -1061417.94444  24546089.539    24546099.0684
  22897202.741   -11133382.743 8  -8646434.32246  22897205.409    22897213.8724
  20739694.987   -19868473.899 9 -15210399.79948  20739696.954    20739704.4634
  20849676.099   -21482594.095 9 -16731616.31548  20849678.114    20849685.7174
  20998059.010   -19337784.934 9 -15057870.41147  20998061.059    20998069.6234
  23415448.137    -7356804.923 8  -5717721.94146  23415452.595    23415461.3164
  22538552.377   -12140415.503 8  -9439428.62446  22538557.224    22538566.2694
 00  4 20  2 24  0.0000000  0  7 03 21 09 23 17 26 29
  24552229.667    -1343414.270 7  -1036226.16244  24552239.335    24552250.2984
  22882255.611   -11211943.822 8  -8707650.67846  22882255.519    22882264.3514
  20738685.070   -19873774.058 9 -15214529.74648  20738688.261    20738695.8604
  20845085.485   -21506713.443 9 -16750410.50348  20845088.323    20845095.6734
  21012590.995   -19261402.560 9 -14998351.70647  21012596.199    21012604.6604
  23433452.026    -7262180.845 8  -5643988.88046  23433458.728    23433467.5314
  22525417.145   -12209449.615 8  -9493221.32046  22525419.534    22525429.6574
 00  4 20  2 24 30.0000000  0  7 03 21 09 23 17 26 29
  24558467.191    -1310682.383 7  -1010720.80744  24558469.795    24558483.7624
  22867311.822   -11290471.182 8  -8768840.69346  22867311.961    22867321.6504
  20737797.688   -19878443.753 9 -15218168.43848  20737799.663    20737807.2574
  20840538.153   -21530606.030 9 -16769027.98548  20840541.454    20840549.1764
  21027221.137   -19184538.431 9 -14938457.60247  21027222.834    21027231.2144
  23451464.019    -7167538.684 8  -5570241.76646  23451467.939    23451476.6064
  22512321.541   -12278280.503 8  -9546855.66446  22512321.893    22512331.0694
 00  4 20  2 25  0.0000000  0  7 03 21 09 23 17 26 29
  24564776.501    -1277539.133 7   -984894.93844  24564779.770    24564791.8504
  22852377.656   -11368943.359 8  -8829987.72146  22852379.419    22852388.6104
  20737031.122   -19882475.437 9 -15221309.97748  20737032.281    20737039.7644
  20836034.421   -21554277.877 9 -16787473.60048  20836036.937    20836044.6804
  21041936.598   -19107191.212 9 -14878187.07347  21041941.110    21041950.2114
  23469480.538    -7072886.667 8  -5496486.88346  23469479.908    23469488.4064
  22499262.205   -12346915.277 8  -9600337.18046  22499261.599    22499270.3424
 00  4 20  2 25 30.0000000  0  7 03 21 09 23 17 26 29
  24571163.101    -1243964.482 7   -958732.91244  24571166.390    24571180.2954
  22837464.222   -11447330.580 8  -8891068.53946  22837463.726    22837471.5324
  20736386.620   -19885859.466 9 -15223946.85448  20736388.226    20736396.0564
  20831570.162   -21577735.878 9 -16805752.54148  20831573.002    20831580.3784
  21056749.099   -19029364.773 9 -14817543.13047  21056751.179    21056760.2454
  23487492.607    -6978240.646 8  -5422736.82246  23487489.897    23487499.4354
  22486238.511   -12415339.226 8  -9653654.46946  22486240.937    22486249.3084
 00  4 20  2 26  0.0000000  0  7 03 21 09 23 17 26 29
  24577630.504    -1209965.746 7   -932240.36144  24577637.871    24577647.4044
  22822560.450   -11525641.197 8  -8952089.69646  22822560.924    22822569.6734
  20735868.640   -19888574.455 9 -15226062.40348  20735871.644    20735879.4114
  20827148.803   -21600968.893 9 -16823856.06348  20827151.810    20827159.3794
  21071649.584   -18951063.151 9 -14756528.90747  21071651.536    21071660.6254
  23505489.221    -6883602.726 8  -5348993.05446  23505498.771    23505508.4574
  22473255.918   -12483538.651 8  -9706796.76946  22473262.797    22473271.0634
 00  4 20  2 26 30.0000000  0  7 03 21 09 23 17 26 29
  24584186.926    -1175555.674 7   -905427.22644  24584184.192    24584195.5714
  22807670.881   -11603884.090 8  -9013058.05746  22807670.942    22807680.1294
  20735480.276   -19890612.689 9 -15227650.60248  20735483.347    20735491.4384
  20822770.956   -21623982.567 9 -16841788.71848  20822772.287    20822780.1124
  21086642.011   -18872276.095 9 -14695136.42247  21086644.634    21086653.4194
  23523503.552    -6788961.925 8  -5275247.06145  23523509.236    23523517.2954
  22460329.609   -12551486.865 8  -9759743.35646  22460331.983    22460340.7354
 00  4 20  2 27  0.0000000  0  7 03 21 09 23 17 26 29
  24590813.190    -1140729.701 7   -878290.03444  24590810.750    24590820.3974
  22792791.384   -11682063.837 8  -9073977.20746  22792793.554    22792802.8154
  20735222.526   -19891982.290 9 -15228717.78748  20735222.925    20735230.9044
  20818430.105   -21646783.964 9 -16859555.97948  20818433.449    20818440.9994
  21101729.551   -18792988.714 9 -14633354.10747  21101732.372    21101741.0394
  23541520.660    -6694312.956 8  -5201494.60245  23541520.193    23541528.3084
  22447452.027   -12619167.901 8  -9812481.72946  22447452.502    22447460.9254
 00  4 20  2 27 30.0000000  0  7 03 21 09 23 17 26 29
  24597504.478    -1105498.647 7   -850837.26144  24597514.879    24597529.1824
  22777924.117   -11760191.547 8  -9134855.83546  22777927.721    22777935.4764
  20735088.813   -19892685.117 9 -15229265.42048  20735089.540    20735096.9714
  20814133.148   -21669373.391 9 -16877158.12648  20814134.697    20814142.7934
  21116911.192   -18713205.786 9 -14571185.63047  21116914.141    21116923.1024
  23559520.487    -6599649.733 8  -5127731.09445  23559533.996    23559543.3754
  22434618.263   -12686583.639 8  -9865013.35946  22434622.836    22434632.8434
 00  4 20  2 28  0.0000000  0  7 03 21 09 23 17 26 29
  24604295.978    -1069875.215 7   -823078.74144  24604293.327    24604305.4324
  22763065.282   -11838279.930 8  -9195703.84146  22763066.218    22763074.7824
  20735078.158   -19892727.168 9 -15229298.15948  20735081.203    20735089.0054
  20809875.854   -21691741.048 9 -16894587.47748  20809878.088    20809885.7144
  21132191.361   -18632914.733 9 -14508621.20947  21132192.975    21132202.0114
  23577554.221    -6504959.363 8  -5053946.33745  23577553.127    23577562.3214
  22421840.205   -12753738.732 8  -9917341.91246  22421845.054    22421853.0994
 00  4 20  2 28 30.0000000  0  7 03 21 09 23 17 26 29
  24611148.793    -1033843.590 7   -795002.20344  24611152.901    24611163.7594
  22748213.828   -11916321.653 8  -9256515.54246  22748215.624    22748224.1794
  20735192.856   -19892126.488 9 -15228830.05948  20735195.324    20735203.3114
  20805660.404   -21713890.501 9 -16911846.74948  20805663.567    20805671.0554
  21147566.940   -18552104.149 9 -14445651.97047  21147571.254    21147580.1994
  23595575.558    -6410241.010 8  -4980139.80545  23595578.045    23595586.6554
  22409108.584   -12820654.878 8  -9969484.27446  22409111.449    22409119.6074
 00  4 20  2 29  0.0000000  0  7 03 21 09 23 17 26 29
  24618089.185     -997394.319 7   -766600.06344  24618087.052    24618099.5904
  22733372.383   -11994308.053 8  -9317284.09846  22733375.606    22733384.1134
  20735427.940   -19890888.777 9 -15227865.57348  20735431.187    20735438.8164
  20801488.529   -21735812.338 9 -16928928.69048  20801492.002    20801499.2474
  21163042.241   -18470786.113 9 -14382287.30847  21163045.855    21163054.2194
  23613613.287    -6315510.094 8  -4906323.44745  23613604.096    23613612.1074
  22396416.987   -12887354.198 8 -10021457.69246  22396418.927    22396426.8924
 00  4 20  2 29 30.0000000  0  7 03 21 09 23 17 26 29
  24625092.167     -960549.832 7   -737890.04944  24625096.511    24625108.3654
  22718542.249   -12072249.087 8  -9378017.24746  22718544.289    22718552.9124
  20735785.872   -19889009.797 9 -15226401.39648  20735788.880    20735796.2794
  20797362.428   -21757495.870 9 -16945824.90948  20797365.710    20797372.8554
  21178610.181   -18388983.430 9 -14318544.99947  21178612.274    21178621.3864
  23631627.141    -6220762.166 8  -4832493.93645  23631634.192    23631642.5504
  22383763.979   -12953847.938 8 -10073270.90646  22383765.376    22383773.7784
 00  4 20  2 30  0.0000000  0  7 03 21 09 23 17 26 29
  24632168.900     -923310.931 7   -708872.68444  24632182.786    24632193.8264
  22703715.618   -12150145.590 8  -9438715.67746  22703720.415    22703729.5574
  20736263.899   -19886501.323 9 -15224446.71648  20736266.167    20736273.2954
  20793279.831   -21778944.438 9 -16962538.07648  20793284.232    20793291.8844
  21194268.451   -18306699.659 9 -14254427.82947  21194270.055    21194279.0874
  23649666.657    -6125999.912 8  -4758653.27545  23649666.077    23649674.7784
  22371145.939   -13020146.228 8 -10124931.82246  22371148.618    22371158.1904
 00  4 20  2 30 30.0000000  0  7 03 21 09 23 17 26 29
  24639346.393     -885676.592 7   -679547.23544  24639346.966    24639355.4214
  22688905.286   -12227994.171 8  -9499376.78746  22688906.430    22688914.9534
  20736860.018   -19883369.858 9 -15222006.58648  20736862.031    20736869.1374
  20789242.369   -21800166.455 9 -16979074.68348  20789245.810    20789253.4714
  21210013.043   -18223951.025 9 -14189948.42047  21210016.781    21210025.5504
  23667691.922    -6031229.077 8  -4684805.86145  23667700.648    23667708.5024
  22358566.275   -13086241.092 8 -10176434.22346  22358570.971    22358581.2534
 00  4 20  2 31  0.0000000  0  7 03 21 09 23 17 26 29
  24646582.052     -847656.249 7   -649920.91944  24646581.424    24646592.5504
  22674095.365   -12305808.852 8  -9560011.45946  22674098.318    22674106.2974
  20737576.671   -19879605.429 9 -15219073.22648  20737578.419    20737585.8314
  20785249.911   -21821151.726 9 -16995426.76648  20785252.290    20785260.1094
  21225846.590   -18140748.195 9 -14125115.07947  21225849.888    21225858.2394
  23685731.405    -5936457.541 8  -4610957.90045  23685734.170    23685743.6764
  22346037.552   -13152097.427 8 -10227750.74646  22346039.701    22346048.6824
 00  4 20  2 31 30.0000000  0  6 21 09 23 17 26 29
  22659293.387   -12383603.644 8  -9620630.65646  22659294.168    22659301.9264
  20738410.853   -19875211.114 9 -15215649.04848  20738414.373    20738422.0354
  20781301.754   -21841905.582 9 -17011598.60548  20781303.052    20781310.6554
  21241766.803   -18057093.030 9 -14059929.28047  21241768.830    21241777.7534
  23703765.981    -5841686.829 8  -4537110.63345  23703770.163    23703778.1384
  22333549.192   -13217699.026 8 -10278868.78346  22333555.355    22333564.5254
 00  4 20  2 32  0.0000000  0  6 21 09 23 17 26 29
  22644494.362   -12461363.028 8  -9681222.25346  22644497.169    22644506.5404
  20739368.773   -19870180.837 9 -15211729.32048  20739371.468    20739379.2094
  20777394.424   -21862433.727 9 -17027594.58448  20777396.485    20777404.2464
  21257776.451   -17972973.472 9 -13994381.61847  21257775.966    21257785.0044
  23721806.985    -5746927.022 8  -4463271.84345  23721801.952    23721811.1674
  22321118.826   -13283028.645 8 -10329774.88446  22321123.432    22321132.8124
 00  4 20  2 32 30.0000000  0  6 21 09 23 17 26 29
  22629704.804   -12539085.924 8  -9741785.40146  22629707.045    22629715.9914
  20740452.509   -19864496.720 9 -15207300.11248  20740453.227    20740460.4104
  20773532.611   -21882731.128 9 -17043410.71648  20773534.105    20773541.6554
  21273871.502   -17888391.281 9 -13928473.47147  21273871.629    21273880.3924
  23739823.865    -5652188.410 8  -4389449.57645  23739829.897    23739839.7254
  22308742.054   -13348074.621 8 -10380459.96946  22308746.140    22308754.4064
 00  4 20  2 33  0.0000000  0  7 21 09 23 17 15 26 29
  22614924.856   -12616765.635 8  -9802314.93446  22614925.830    22614933.7254
  20741656.205   -19858143.707 9 -15202349.68248  20741661.739    20741669.4994
  20769712.066   -21902795.262 9 -17059045.20948  20769716.031    20769723.6004
  21290050.226   -17803348.653 9 -13862206.52747  21290055.157    21290064.1054
  24244302.952    -1185405.83317   -646072.87255  24244304.029    24244317.6644
  23757854.228    -5557482.474 8  -4315652.78345  23757851.555    23757861.7954
  22296412.167   -13412858.805 8 -10430941.08346  22296417.835    22296425.5454
 00  4 20  2 33 30.0000000  0  7 21 09 23 17 15 26 29
  22600153.102   -12694381.616 8  -9862794.82346  22600154.941    22600162.8684
  20742997.863   -19851119.159 9 -15196875.98048  20742998.750    20743006.3184
  20765938.163   -21922636.005 9 -17074505.43248  20765940.470    20765947.8314
  21306323.268   -17717849.155 9 -13795583.57147  21306325.169    21306333.8784
  24224218.161    -1290944.850 7   -728310.91145  24224219.521    24224234.0074
  23775871.419    -5462793.149 8  -4241868.88245  23775870.599    23775880.1194
  22284130.324   -13477410.761 8 -10481241.22146  22284133.488    22284141.7264
 00  4 20  2 34  0.0000000  0  7 21 09 23 17 15 26 29
  22585397.071   -12771918.314 8  -9923212.93546  22585400.372    22585408.7544
  20744459.721   -19843424.632 9 -15190880.22648  20744462.696    20744470.5114
  20762206.507   -21942245.093 9 -17089785.15248  20762208.871    20762216.4544
  21322678.642   -17631886.104 9 -13728599.39647  21322683.235    21322692.0924
  24204185.982    -1396278.150 7   -810388.63745  24204175.781    24204188.9004
  23793883.736    -5368110.586 8  -4168090.25245  23793888.304    23793897.2724
  22271888.580   -13541742.764 8 -10531369.97646  22271891.539    22271901.1234
 00  4 20  2 34 30.0000000  0  7 21 09 23 17 15 26 29
  22570656.754   -12849382.313 8  -9983574.39346  22570659.576    22570668.0824
  20746048.630   -19835078.622 9 -15184376.80948  20746050.874    20746058.6104
  20758522.013   -21961612.598 9 -17104876.71748  20758523.279    20758531.0114
  21339120.400   -17545476.158 8 -13661267.00447  21339126.104    21339135.5334
  24184167.580    -1501402.984 7   -892303.91845  24184171.680    24184184.6534
  23811900.923    -5273424.014 8  -4094308.48045  23811906.943    23811915.7264
  22259685.030   -13605870.654 8 -10581339.65146  22259688.148    22259697.2414
 00  4 20  2 35  0.0000000  0  7 21 09 23 17 15 26 29
  22555928.813   -12926770.921 8 -10043877.08046  22555932.612    22555941.4674
  20747757.113   -19826097.126 9 -15177378.21948  20747760.243    20747768.0434
  20754884.983   -21980731.206 9 -17119774.42448  20754885.415    20754892.7064
  21355652.266   -17458622.035 9 -13593588.49247  21355654.165    21355663.1244
  24164209.459    -1606316.640 7   -974054.67745  24164206.740    24164220.2564
  23829934.617    -5178719.980 8  -4020513.11245  23829928.926    23829936.5504
  22247525.003   -13669790.270 8 -10631147.04446  22247525.531    22247533.4844
 00  4 20  2 35 30.0000000  0  7 21 09 23 17 15 26 29
  22541217.695   -13004083.167 8 -10104120.27746  22541220.406    22541229.2884
  20749584.629   -19816498.938 9 -15169899.07648  20749586.558    20749594.2804
  20751294.541   -21999589.220 9 -17134468.89448  20751296.970    20751303.9044
  21372263.724   -17371322.257 9 -13525562.75247  21372266.943    21372275.7244
  24144280.998    -1711015.934 7  -1055638.42645  24144283.601    24144296.3374
  23847952.518    -5083979.054 8  -3946688.96445  23847956.186    23847965.0504
  22235405.869   -13733481.670 8 -10680776.65246  22235405.073    22235412.9044
 00  4 20  2 36  0.0000000  0  7 21 09 23 17 15 26 29
  22526516.600   -13081327.010 8 -10164310.18146  22526520.757    22526529.7394
  20751525.698   -19806287.297 9 -15161941.91448  20751529.949    20751537.4254
  20747754.911   -22018182.001 9 -17148956.66548  20747758.425    20747765.6844
  21388960.837   -17283578.812 9 -13457191.28347  21388963.945    21388972.9554
  24124403.378    -1815498.245 7  -1137053.05845  24124401.012    24124413.5484
  23865989.933    -4989213.122 8  -3872845.42745  23865990.124    23865998.7984
  22223326.149   -13796937.929 8 -10730222.99246  22223329.888    22223337.2384
 00  4 20  2 36 30.0000000  0  7 21 09 23 17 15 26 29
  22511832.054   -13158509.198 8 -10224452.06846  22511833.630    22511842.6644
  20753587.145   -19795455.378 9 -15153501.42348  20753591.019    20753598.9804
  20744267.356   -22036515.971 9 -17163242.85048  20744269.647    20744276.5874
  21405741.067   -17195401.613 9 -13388481.83047  21405743.907    21405752.6634
  24104562.809    -1919760.697 7  -1218296.36045  24104559.836    24104573.0654
  23884024.345    -4894430.123 8  -3798988.56045  23884026.213    23884034.2124
  22211302.561   -13860144.962 8 -10779475.14846  22211301.580    22211309.9804
 00  4 20  2 37  0.0000000  0  7 21 09 23 17 15 26 29
  22497152.663   -13235620.806 8 -10284538.95346  22497159.652    22497168.8754
  20755769.608   -19783992.916 9 -15144569.60748  20755772.081    20755780.3194
  20740827.217   -22054598.380 9 -17177333.05248  20740829.108    20740835.6774
  21422605.781   -17106778.148 9 -13319424.61947  21422608.065    21422616.7194
  24084754.149    -2023800.520 7  -1299366.15145  24084762.492    24084774.8694
  23902059.735    -4799642.227 8  -3725127.84845  23902062.876    23902072.0364
  22199322.208   -13923089.353 8 -10828522.63747  22199323.379    22199332.3304
 00  4 20  2 37 30.0000000  0  7 21 09 23 17 15 26 29
  22482495.966   -13312663.161 8 -10344571.84346  22482499.445    22482508.7004
  20758073.936   -19771893.929 9 -15135141.79648  20758074.437    20758082.3904
  20737431.535   -22072437.988 9 -17191234.02548  20737433.905    20737441.2114
  21439553.533   -17017716.006 9 -13250025.60147  21439556.413    21439565.2294
  24065006.901    -2127614.896 7  -1380260.26645  24065006.050    24065017.9624
  23920094.027    -4704857.960 8  -3651269.97645  23920101.192    23920108.8424
  22187391.261   -13985782.223 8 -10877374.15747  22187393.849    22187401.7454
 00  4 20  2 38  0.0000000  0  7 21 09 23 17 15 26 29
  22467843.481   -13389649.280 8 -10404560.94047  22467849.035    22467858.9384
  20760494.997   -19759154.251 9 -15125214.75248  20760498.313    20760506.1954
  20734078.228   -22090053.791 9 -17204960.55248  20734081.731    20734089.4344
  21456585.905   -16928216.826 9 -13180286.02647  21456587.367    21456596.2914
  24045289.393    -2231200.927 7  -1460976.50845  24045294.767    24045305.7994
  23938130.710    -4610099.619 8  -3577432.21945  23938133.091    23938140.5894
  22175507.890   -14048234.093 8 -10926037.85747  22175509.169    22175517.3854
 00  4 20  2 38 30.0000000  0  7 21 09 23 17 15 26 29
  22453208.382   -13466577.284 8 -10464504.76147  22453210.626    22453219.1494
  20763044.308   -19745782.199 9 -15114794.94148  20763043.143    20763050.9934
  20730770.834   -22107445.209 9 -17218512.20748  20730772.380    20730779.8694
  21473700.458   -16838274.429 8 -13110201.08047  21473702.625    21473712.0014
  24025627.791    -2334555.729 7  -1541512.54945  24025627.433    24025638.1974
  23956163.449    -4515361.211 8  -3503610.00345  23956161.856    23956169.7594
  22163669.648   -14110441.996 8 -10974511.47047  22163671.571    22163679.4714
 00  4 20  2 39  0.0000000  0  7 21 09 23 17 15 26 29
  22438579.831   -13543439.333 8 -10524397.15646  22438583.174    22438592.8504
  20765704.117   -19731784.000 9 -15103887.23548  20765707.131    20765714.8044
  20727502.813   -22124607.459 9 -17231885.36348  20727506.250    20727513.5844
  21490897.735   -16747894.323 8 -13039775.06047  21490901.353    21490910.7884
  24005999.648    -2437676.353 7  -1621866.08045  24006002.595    24006015.2084
  23974180.509    -4420642.052 8  -3429802.85945  23974185.640    23974193.9704
  22151871.722   -14172423.530 8 -11022808.69047  22151877.523    22151884.2174
 00  4 20  2 39 30.0000000  0  7 21 09 23 17 15 26 29
  22423969.252   -13620240.329 8 -10584242.01147  22423969.048    22423977.9624
  20768488.826   -19717156.933 9 -15092489.49848  20768490.437    20768498.2344
  20724279.657   -22141539.627 9 -17245079.22748  20724283.813    20724292.1624
  21508178.284   -16657083.371 8 -12969013.32347  21508181.975    21508191.6504
  23986426.554    -2540560.154 8  -1702035.09745  23986426.456    23986436.8294
  23992210.707    -4325938.189 8  -3356007.55245  23992207.485    23992215.4174
  22140116.164   -14234193.668 8 -11070941.20147  22140122.662    22140129.6554
 00  4 20  2 40  0.0000000  0  7 21 09 23 17 15 26 29
  22409364.069   -13696976.278 8 -10644036.14547  22409366.633    22409375.9864
  20771392.337   -19701896.993 9 -15080598.60948  20771394.102    20771402.2464
  20721106.911   -22158227.911 9 -17258083.33048  20721108.600    20721116.1664
  21525544.450   -16565830.739 8 -12897907.44347  21525546.791    21525556.3254
  23966899.016    -2643203.939 8  -1782017.14745  23966892.859    23966903.6374
  24010221.281    -4231251.103 8  -3282225.40545  24010224.993    24010234.0534
  22128406.420   -14295740.242 8 -11118899.49047  22128410.105    22128417.7174
 00  4 20  2 40 30.0000000  0  7 21 09 23 17 15 26 29
  22394774.236   -13773627.423 8 -10703764.24147  22394780.382    22394788.8014
  20774417.575   -19685998.306 9 -15068209.99748  20774419.740    20774427.4544
  20717982.813   -22174651.335 9 -17270880.69148  20717983.429    20717990.6944
  21542992.392   -16474151.497 8 -12826469.12247  21542993.535    21543002.3364
  23947404.521    -2745604.832 8  -1861809.89345  23947406.845    23947417.4254
  24028240.283    -4136578.294 8  -3208454.36345  24028240.431    24028249.8214
  22116739.708   -14357066.239 8 -11166685.89546  22116740.469    22116747.2004
 00  4 20  2 41  0.0000000  0  7 21 09 23 17 15 26 29
  22380210.364   -13850190.449 8 -10763423.68047  22380210.813    22380219.5554
  20777565.037   -19669449.706 9 -15055314.95947  20777568.545    20777576.1214
  20714906.625   -22190811.242 9 -17283472.76948  20714908.166    20714915.5734
  21560512.109   -16382064.940 8 -12754713.42347  21560516.348    21560525.5234
  23927957.902    -2847760.070 7  -1941411.23845  23927966.769    23927978.7124
  24046249.862    -4041938.689 8  -3134709.28645  24046250.256    24046258.2804
  22105110.399   -14418172.376 8 -11214301.00047  22105112.394    22105119.3104
 00  4 20  2 41 30.0000000  0  7 21 09 23 17 15 26 29
  22365654.524   -13926670.412 8 -10823018.35447  22365656.871    22365666.4614
  20780839.836   -19652246.207 9 -15041909.62047  20780842.841    20780849.6334
  20711881.049   -22206711.792 9 -17295862.75748  20711882.669    20711889.7334
  21578115.483   -16289576.096 8 -12682644.24147  21578116.474    21578125.5814
  23908574.982    -2949667.229 8  -2020819.21445  23908574.460    23908586.8134
  24064249.595    -3947327.383 8  -3060986.22945  24064253.550    24064262.6784
  22093524.733   -14479044.563 8 -11261733.75747  22093528.554    22093537.2594
 00  4 20  2 42  0.0000000  0  7 21 09 23 17 15 26 29
  22351116.431   -14003060.412 8 -10882542.93947  22351120.499    22351129.5784
  20784238.649   -19634401.183 9 -15028004.39947  20784238.570    20784245.6974
  20708904.885   -22222352.989 9 -17308050.58948  20708906.232    20708913.4654
  21595793.291   -16196695.776 8 -12610270.01747  21595791.401    21595800.6844
  23889226.039    -3051322.918 8  -2100031.25545  23889230.515    23889241.7224
  24082253.324    -3852755.672 8  -2987294.00445  24082250.401    24082259.8294
  22081989.217   -14539672.004 8 -11308975.84847  22081991.033    22081999.3324
 00  4 20  2 42 30.0000000  0  7 21 09 23 17 15 26 29
  22336597.960   -14079355.240 8 -10941993.38447  22336601.357    22336609.4644
  20787749.344   -19615926.109 9 -15013608.22747  20787753.300    20787761.4334
  20705972.321   -22237747.409 9 -17320046.19048  20705976.257    20705984.1994
  21613532.355   -16103436.326 8 -12537600.36547  21613538.178    21613547.3644
  23869926.696    -3152724.497 7  -2179045.28845  23869932.559    23869944.8434
  24100240.373    -3758217.774 8  -2913628.12345  24100240.868    24100248.8024
  22070500.182   -14600051.931 8 -11356025.06347  22070501.740    22070509.1714
 00  4 20  2 43  0.0000000  0  7 21 09 23 17 15 26 29
  22322097.470   -14155563.686 8 -11001376.52047  22322100.077    22322108.1174
  20791387.918   -19596820.146 9 -14998720.43347  20791389.486    20791397.0974
  20703090.481   -22252894.917 9 -17331849.54548  20703094.070    20703101.8104
  21631359.169   -16009781.430 8 -12464622.55847  21631359.805    21631369.0164
  23850680.547    -3253868.889 8  -2257858.89645  23850686.763    23850696.4714
  24118219.316    -3663699.521 7  -2839977.60045  24118227.380    24118235.3884
  22059058.020   -14660176.477 8 -11402875.30047  22059059.934    22059066.8664
 00  4 20  2 43 30.0000000  0  7 21 09 23 17 15 26 29
  22307610.397   -14231688.104 8 -11060694.16347  22307613.474    22307622.5674
  20795140.368   -19577092.389 9 -14983348.14148  20795143.543    20795151.4084
  20700259.205   -22267789.716 9 -17343455.90648  20700259.617    20700266.9834
  21649258.085   -15915715.103 8 -12391324.17747  21649259.974    21649268.9714
  23831494.642    -3354753.452 8  -2336470.10745  23831490.050    23831497.9324
  24136204.790    -3569195.917 8  -2766338.52045  24136211.290    24136218.9074
  22047663.084   -14720045.632 8 -11449526.51847  22047666.563    22047674.7904
 00  4 20  2 44  0.0000000  0  7 21 09 23 17 15 26 29
  22293145.806   -14307719.768 9 -11119939.54247  22293145.755    22293154.6344
  20799013.232   -19556746.609 9 -14967494.26647  20799015.014    20799022.9714
  20697474.945   -22282419.942 9 -17354855.97448  20697475.629    20697483.0034
  21667236.283   -15821228.544 8 -12317698.32647  21667240.370    21667248.9704
  23812340.511    -3455375.008 8  -2414876.38545  23812342.843    23812351.6934
  24154181.146    -3474717.539 8  -2692718.97945  24154189.555    24154197.6104
  22036319.213   -14779664.942 8 -11495983.02347  22036321.893    22036330.4594
 00  4 20  2 44 30.0000000  0  7 21 09 23 17 15 26 29
  22278691.078   -14383658.053 8 -11179112.14347  22278695.287    22278704.1844
  20803003.159   -19535770.367 9 -14951149.13647  20803007.112    20803014.7614
  20694739.690   -22296783.657 9 -17366048.44648  20694742.450    20694749.6284
  21685298.852   -15726315.849 8 -12243740.42947  21685302.072    21685311.4084
  23793247.631    -3555730.930 8  -2493075.62945  23793245.004    23793255.6474
  24172160.638    -3380255.769 8  -2619112.34845  24172165.027    24172173.4614
  22025018.861   -14839045.648 8 -11542253.60147  22025021.231    22025029.9814
 00  4 20  2 45  0.0000000  0  7 21 09 23 17 15 26 29
  22264259.928   -14459511.605 8 -11238218.69747  22264260.739    22264268.9874
  20807116.116   -19514157.698 9 -14934308.07747  20807119.802    20807126.9574
  20692057.313   -22310877.817 9 -17377030.89648  20692060.307    20692067.3674
  21703441.505   -15630973.153 8 -12169447.48947  21703445.406    21703454.3924
  23774187.226    -3655817.991 7  -2571065.40645  23774198.104    23774209.3614
  24190127.140    -3285821.856 7  -2545527.43145  24190134.418    24190143.0344
  22013760.641   -14898199.542 8 -11588347.48047  22013765.242    22013772.6584
 00  4 20  2 45 30.0000000  0  7 21 09 23 17 15 26 29
  22249840.289   -14535275.203 8 -11297255.17347  22249843.308    22249851.7084
  20811349.075   -19491917.722 9 -14916978.20647  20811351.694    20811359.2224
  20689424.885   -22324712.238 9 -17387810.80448  20689427.264    20689434.4414
  21721663.508   -15535216.427 8 -12094831.90447  21721666.493    21721675.4714
  23755202.734    -3755633.766 7  -2648843.77945  23755201.861    23755214.3274
  24208087.041    -3191433.766 7  -2471978.13345  24208095.415    24208104.7014
  22002550.419   -14957121.750 8 -11634260.83447  22002552.778    22002560.3214
 00  4 20  2 46  0.0000000  0  7 21 09 23 17 15 26 29
  22235442.373   -14610943.049 8 -11356217.05047  22235444.026    22235452.8304
  20815703.651   -19469043.655 9 -14899154.23547  20815704.626    20815712.2844
  20686840.208   -22338295.556 9 -17398395.04148  20686842.394    20686849.3274
  21739962.795   -15439061.964 8 -12019906.40647  21739964.619    21739973.8274
  23736259.351    -3855175.192 8  -2726408.35745  23736261.337    23736273.6254
  24226044.286    -3097085.950 8  -2398460.42645  24226048.981    24226057.4534
  21991383.713   -15015813.685 8 -11679994.74247  21991384.280    21991392.3154
 00  4 20  2 46 30.0000000  0  7 21 09 23 17 15 26 29
  22221057.806   -14686518.819 8 -11415107.15647  22221062.216    22221071.0404
  20820175.851   -19445530.907 9 -14880832.58747  20820178.750    20820186.6974
  20684305.310   -22351625.054 9 -17408781.73448  20684305.876    20684313.1314
  21758333.819   -15342522.362 8 -11944680.78547  21758335.395    21758344.9104
  23717375.888    -3954439.402 8  -2803756.93145  23717373.251    23717382.8824
  24243991.324    -3002778.321 8  -2324973.97445  24243995.821    24244003.7454
  21980253.199   -15074277.843 8 -11725551.15047  21980258.240    21980266.7564
 00  4 20  2 47  0.0000000  0  7 21 09 23 17 15 26 29
  22206699.920   -14761998.086 8 -11473922.09047  22206699.328    22206708.0464
  20824772.463   -19421387.793 9 -14862019.74248  20824773.657    20824780.6664
  20681818.379   -22364693.346 9 -17418964.61948  20681819.238    20681826.0504
  21776775.959   -15245609.632 8 -11869164.45247  21776777.387    21776787.3224
  23698536.840    -4053423.443 8  -2880887.19545  23698535.631    23698544.5284
  24261932.158    -2908510.836 8  -2251518.93845  24261934.208    24261942.2004
  21969179.527   -15132494.719 8 -11770914.87147  21969179.512    21969188.4724
 00  4 20  2 47 30.0000000  0  7 21 09 23 17 15 26 29
  22192353.642   -14837370.410 8 -11532653.71447  22192356.162    22192364.4154
  20829485.642   -19396618.968 9 -14842719.33848  20829487.042    20829494.4424
  20679382.322   -22377485.654 9 -17428932.60848  20679384.630    20679391.9284
  21795285.566   -15148337.592 8 -11793368.11847  21795287.399    21795297.1714
  23679747.312    -4152124.174 8  -2957796.77445  23679753.277    23679763.7234
  24279863.224    -2814276.030 8  -2178089.08945  24279867.436    24279874.3694
  21958146.367   -15190466.142 8 -11816087.34147  21958148.814    21958157.0254
 00  4 20  2 48  0.0000000  0  7 21 09 23 17 15 26 29
  22178029.175   -14912628.698 8 -11591296.49347  22178034.358    22178042.9424
  20834317.076   -19371225.762 9 -14822932.40848  20834319.093    20834326.5994
  20677004.773   -22389980.600 9 -17438668.92748  20677006.900    20677013.9734
  21813862.811   -15050699.943 8 -11717286.92747  21813867.551    21813876.9364
  23661018.834    -4250538.774 7  -3034483.30545  23661025.447    23661038.0224
  24297788.886    -2720068.885 8  -2104680.90245  24297794.032    24297801.2904
  21947158.527   -15248205.260 8 -11861078.78247  21947161.408    21947169.7954
 00  4 20  2 48 30.0000000  0  7 21 09 23 17 15 26 29
  22163733.873   -14987773.872 8 -11649851.10647  22163735.032    22163743.1584
  20839265.183   -19345218.221 9 -14802666.76948  20839268.353    20839275.7204
  20674686.806   -22402168.707 9 -17448166.51648  20674688.156    20674694.8674
  21832514.123   -14952690.830 8 -11640916.26347  21832518.692    21832527.7214
  23642339.261    -4348664.841 7  -3110944.99045  23642351.411    23642364.1294
  24315708.317    -2625883.297 8  -2031289.46945  24315715.672    24315725.5504
  21936214.496   -15305709.640 8 -11905887.33947  21936217.831    21936226.7444
 00  4 20  2 49  0.0000000  0  7 21 09 23 17 15 26 29
  22149451.186   -15062809.021 8 -11708320.02847  22149456.665    22149465.0224
  20844329.983   -19318609.731 9 -14781932.86148  20844331.878    20844339.0614
  20672423.222   -22414058.854 9 -17457431.38348  20672425.274    20672432.4834
  21851240.989   -14854300.973 8 -11564248.92147  21851241.665    21851250.9954
  23623739.009    -4446499.074 8  -3187179.33145  23623736.535    23623745.2314
  24333630.472    -2531711.684 8  -1957908.97445  24333637.290    24333645.9434
  21925315.896   -15362980.099 8 -11950513.59547  21925319.766    21925328.1744
 00  4 20  2 49 30.0000000  0  7 21 09 23 17 15 26 29
  22135195.118   -15137738.653 8 -11766706.65847  22135197.610    22135206.3554
  20849507.131   -19291397.249 9 -14760728.31348  20849509.647    20849517.5874
  20670215.619   -22425661.285 9 -17466472.30848  20670217.331    20670224.8234
  21870031.143   -14755525.251 8 -11487280.87947  21870038.025    21870046.9214
  23605163.209    -4544038.558 8  -3263184.01345  23605174.415    23605184.5864
  24351545.511    -2437565.244 8  -1884548.12945  24351553.049    24351561.4004
  21914459.220   -15420030.454 8 -11994968.30747  21914464.098    21914471.6054
 00  4 20  2 50  0.0000000  0  7 21 09 23 17 15 26 29
  22120955.541   -15212570.023 8 -11825016.73547  22120957.570    22120966.4414
  20854801.352   -19263579.745 9 -14739052.31348  20854803.494    20854811.0034
  20668055.802   -22436999.200 9 -17475306.95148  20668059.716    20668066.9054
  21888903.478   -14656359.844 8 -11410009.19047  21888907.698    21888917.3054
  23586659.346    -4641280.461 7  -3338956.74545  23586669.072    23586680.5654
  24369466.972    -2343447.941 8  -1811209.99645  24369462.506    24369472.1814
  21903653.123   -15476847.207 8 -12039241.02647  21903651.901    21903659.5674
 00  4 20  2 50 30.0000000  0  7 21 09 23 17 15 26 29
  22106729.893   -15287322.433 8 -11883265.47847  22106732.376    22106741.4954
  20860209.553   -19235157.740 9 -14716905.27648  20860212.014    20860219.2314
  20665946.631   -22448089.739 9 -17483949.01848  20665949.114    20665956.5054
  21907848.780   -14556814.694 8 -11332441.59947  21907851.169    21907860.7754
  23568224.042    -4738221.819 8  -3414495.31945  23568221.871    23568233.5514
  24387363.687    -2249361.325 7  -1737895.74245  24387366.536    24387375.1004
  21892883.252   -15533418.151 8 -12083322.23647  21892886.443    21892893.4704
 00  4 20  2 51  0.0000000  0  7 21 09 23 17 15 26 29
  22092520.298   -15361992.766 8 -11941450.16147  22092523.309    22092530.7124
  20865733.831   -19206132.669 9 -14694288.32148  20865735.185    20865742.6854
  20663883.405   -22458938.016 9 -17492402.15548  20663884.927    20663891.9554
  21926861.978   -14456899.566 8 -11254585.71847  21926864.136    21926874.1864
  23549829.064    -4834859.683 8  -3489797.38545  23549833.493    23549843.6264
  24405252.998    -2155323.601 8  -1664619.55645  24405260.805    24405269.6244
  21882165.094   -15589746.625 8 -12127214.47847  21882167.658    21882175.3234
 00  4 20  2 51 30.0000000  0  8 21 09 23 17 15 26 29 05
  22078327.702   -15436574.487 8 -11999565.61147  22078330.210    22078338.3804
  20871372.511   -19176501.518 9 -14671199.09648  20871374.075    20871381.0414
  20661865.748   -22469535.249 9 -17500659.70748  20661868.401    20661875.6834
  21945943.238   -14356622.729 8 -11176448.01546  21945946.544    21945956.1644
  23531501.783    -4931191.076 8  -3564860.69245  23531502.220    23531512.5314
  24423139.505    -2061340.808 8  -1591386.20045  24423145.450    24423153.4314
  21871494.190   -15645830.737 8 -12170916.27447  21871495.333    21871502.8474
  24566538.101     -485727.49217   -369091.12655  24566541.741    24566556.1184
 00  4 20  2 52  0.0000000  0  8 21 09 23 17 15 26 29 05
  22064151.441   -15511065.263 8 -12057610.22347  22064154.827    22064163.6684
  20877127.292   -19146265.687 9 -14647638.69148  20877127.507    20877135.0524
  20659901.129   -22479866.045 9 -17508709.56048  20659902.415    20659909.8114
  21965096.531   -14255987.427 8 -11098030.96947  21965097.330    21965106.4104
  23513226.323    -5027213.159 8  -3639683.00445  23513229.264    23513238.5984
  24441018.135    -1967403.713 7  -1518188.43945  24441020.128    24441029.7304
  21860867.627   -15701670.429 8 -12214427.61647  21860869.438    21860876.4484
  24551234.889     -566159.088 7   -431764.94245  24551236.009    24551248.0454
 00  4 20  2 52 30.0000000  0  8 21 09 23 17 15 26 29 05
  22049996.428   -15585451.268 8 -12115573.33547  22050000.032    22050008.9884
  20882993.001   -19115429.139 9 -14623610.19948  20882995.476    20883002.8804
  20657989.460   -22489906.929 9 -17516533.58448  20657991.614    20657998.9224
  21984311.012   -14154991.651 8 -11019333.06147  21984316.019    21984326.2604
  23495020.265    -5122923.266 8  -3714262.16045  23495015.470    23495027.3894
  24458887.109    -1873506.260 7  -1445021.60445  24458888.190    24458897.6984
  21850284.591   -15757280.219 8 -12257759.89447  21850286.691    21850293.8144
  24535935.980     -646560.988 7   -494415.63245  24535936.099    24535947.2644
 00  4 20  2 53  0.0000000  0  8 21 09 23 17 15 26 29 05
  22035868.262   -15659713.226 8 -12173439.75347  22035868.961    22035877.2394
  20888976.791   -19083982.290 9 -14599106.13948  20888979.711    20888986.8194
  20656136.852   -22499643.162 9 -17524120.41048  20656138.932    20656146.3154
  22003600.133   -14053633.269 8 -10940352.57547  22003604.241    22003613.3914
  23476859.728    -5218318.497 8  -3788595.97545  23476863.687    23476873.5514
  24476744.779    -1779641.819 7  -1371880.46645  24476750.199    24476759.4354
  21839743.840   -15812666.313 8 -12300917.80547  21839747.144    21839755.2004
  24520636.808     -726928.259 7   -557039.31745  24520641.509    24520652.6184
 00  4 20  2 53 30.0000000  0  8 21 09 23 17 15 26 29 05
  22021758.055   -15733859.596 8 -12231216.12647  22021759.014    22021767.6064
  20895075.763   -19051923.841 9 -14574125.50648  20895079.937    20895087.4454
  20654344.206   -22509061.079 9 -17531459.11248  20654346.916    20654354.0374
  22022962.360   -13951911.475 8 -10861088.91446  22022960.253    22022970.8874
  23458768.127    -5313395.991 8  -3862682.24645  23458769.849    23458780.3044
  24494615.278    -1685802.413 7  -1298758.91345  24494607.550    24494616.6844
  21829250.067   -15867820.928 8 -12343895.31847  21829251.871    21829259.4224
  24505355.284     -807247.501 7   -619625.53245  24505358.108    24505370.0214
 00  4 20  2 54  0.0000000  0  8 21 09 23 17 15 26 29 05
  22007671.191   -15807882.163 8 -12288895.99847  22007672.801    22007680.9084
  20901294.208   -19019259.650 9 -14548672.86547  20901295.409    20901302.7984
  20652611.519   -22518167.734 9 -17538555.28548  20652614.105    20652621.1054
  22042382.262   -13849829.440 8 -10781544.54746  22042386.020    22042395.3124
  23440732.218    -5408152.799 8  -3936518.61345  23440737.862    23440747.8844
  24512456.645    -1591982.671 7  -1225652.66445  24512462.405    24512470.9574
  21818798.905   -15922739.716 8 -12386689.13847  21818801.495    21818808.1914
  24490092.465     -887515.961 7   -682172.23345  24490081.670    24490097.7424
 00  4 20  2 54 30.0000000  0  8 21 09 23 17 15 26 29 05
  21993607.822   -15881777.039 8 -12346476.34447  21993610.911    21993619.3914
  20907625.512   -18985986.948 9 -14522746.07647  20907627.046    20907634.4514
  20650937.047   -22526970.613 9 -17545414.59448  20650938.749    20650945.9404
  22061876.188   -13747387.771 8 -10701719.93246  22061880.056    22061889.4964
  23422765.808    -5502585.940 8  -4010102.74345  23422766.173    23422777.8394
  24530312.373    -1498186.379 7  -1152564.74645  24530310.090    24530319.1634
  21808393.391   -15977424.857 8 -12429300.91747  21808395.051    21808401.6844
  24474811.622     -967722.279 7   -744670.48245  24474818.881    24474831.3944
 00  4 20  2 55  0.0000000  0  8 21 09 23 17 15 26 29 05
  21979568.962   -15955557.227 8 -12403967.47547  21979571.692    21979580.4224
  20914069.886   -18952102.604 9 -14496342.67547  20914074.672    20914082.6714
  20649313.931   -22535489.916 9 -17552052.96348  20649317.689    20649324.7684
  22081434.682   -13644594.791 8 -10621621.58846  22081440.581    22081451.4254
  23404858.283    -5596692.339 8  -4083432.33945  23404859.400    23404868.2054
  24548150.801    -1404431.066 7  -1079508.68045  24548152.006    24548160.0004
  21798033.085   -16031866.930 8 -12471723.29347  21798034.934    21798041.8024
  24459565.690    -1047848.690 7   -807106.46145  24459572.173    24459584.6894
 00  4 20  2 55 30.0000000  0  8 21 09 23 17 15 26 29 05
  21965553.468   -16029211.568 8 -12461360.47447  21965555.120    21965564.1934
  20920633.332   -18917621.577 9 -14469474.34547  20920636.540    20920644.2804
  20647746.803   -22543738.528 9 -17558480.41148  20647747.865    20647755.3174
  22101065.615   -13541456.830 8 -10541254.43146  22101068.003    22101076.9304
  23387015.597    -5690469.390 8  -4156505.27145  23387016.719    23387025.5394
  24565971.682    -1310726.031 7  -1006491.70445  24565983.012    24565991.5634
  21787719.101   -16086061.949 8 -12513953.10047  21787721.245    21787728.6774
  24444337.642    -1127905.113 7   -869487.99145  24444336.787    24444351.1754
 00  4 20  2 56  0.0000000  0  8 21 09 23 17 15 26 29 05
  21951562.334   -16102729.750 8 -12518647.32847  21951565.097    21951574.7804
  20927311.548   -18882531.657 9 -14442131.55047  20927313.826    20927321.0834
  20646225.926   -22551724.267 9 -17564703.05648  20646227.615    20646235.2904
  22120753.815   -13437981.326 8 -10460624.22546  22120758.771    22120768.2014
  23369228.439    -5783914.123 8  -4229319.21445  23369231.874    23369242.7274
  24583806.145    -1217075.834 7   -933517.51045  24583804.257    24583812.1924
  21777452.172   -16140018.490 8 -12555997.04447  21777453.696    21777461.7564
  24429116.865    -1207907.670 7   -931827.46045  24429112.709    24429126.0974
 00  4 20  2 56 30.0000000  0  8 21 09 23 17 15 26 29 05
  21937595.322   -16176123.851 8 -12575837.40747  21937598.788    21937607.4824
  20934105.025   -18846828.279 9 -14414310.73247  20934107.997    20934115.5994
  20644759.098   -22559433.860 9 -17570710.43748  20644760.921    20644768.0334
  22140512.338   -13334180.706 8 -10379740.69246  22140511.583    22140521.0344
  23351509.040    -5877023.620 8  -4301871.93045  23351513.379    23351523.5854
  24601614.287    -1123496.434 7   -860598.68945  24601611.843    24601621.1744
  21767231.256   -16193737.970 8 -12597856.28147  21767231.125    21767238.7014
  24413874.063    -1287861.958 7   -994129.32345  24413896.447    24413911.8414
 00  4 20  2 57  0.0000000  0  8 21 09 23 17 15 26 29 05
  21923651.914   -16249395.373 8 -12632931.92047  21923655.766    21923664.2744
  20941009.649   -18810531.694 9 -14386027.67547  20941015.187    20941022.7184
  20643344.110   -22566862.648 9 -17576499.12448  20643347.673    20643354.9074
  22160317.743   -13230065.330 8 -10298611.90146  22160323.467    22160333.2494
  23333859.057    -5969795.024 8  -4374161.25345  23333860.271    23333870.7754
  24619395.627    -1029988.673 7   -787735.49145  24619405.571    24619415.1004
  21757052.032   -16247209.316 8 -12639522.15547  21757056.072    21757062.8314
  24398694.471    -1367772.830 7  -1056397.36645  24398691.458    24398704.5724
 00  4 20  2 57 30.0000000  0  8 21 09 23 17 15 26 29 05
  21909739.576   -16322530.338 9 -12689920.13847  21909739.316    21909746.5524
  20948031.911   -18773647.997 9 -14357287.11147  20948033.263    20948041.5374
  20641987.790   -22573991.935 9 -17582054.44348  20641990.936    20641998.0474
  22180192.185   -13125641.721 8 -10217242.92946  22180194.951    22180204.6364
  23316274.818    -6062225.652 8  -4446185.04645  23316271.373    23316281.1364
  24637189.466     -936548.297 7   -714924.92945  24637186.420    24637196.2894
  21746925.437   -16300439.069 9 -12680999.79547  21746927.122    21746933.7774
  24383495.042    -1447634.451 7  -1118627.07745  24383493.724    24383505.6814
 00  4 20  2 58  0.0000000  0  8 21 09 23 17 15 26 29 05
  21895840.311   -16395551.715 9 -12746819.83147  21895843.103    21895850.9614
  20955161.229   -18736177.410 9 -14328089.24247  20955164.284    20955171.9724
  20640689.282   -22580813.842 9 -17587370.24548  20640692.537    20640699.9724
  22200120.497   -13020911.742 8 -10135635.22846  22200124.511    22200134.6804
  23298741.359    -6154312.543 8  -4517940.90245  23298745.223    23298758.0214
  24654948.121     -843179.473 7   -642169.99545  24654954.558    24654963.3354
  21736842.806   -16353427.783 8 -12722289.66947  21736843.467    21736850.5074
  24368303.867    -1527427.488 7  -1180803.36645  24368308.087    24368323.1484
 00  4 20  2 58 30.0000000  0  8 21 09 23 17 15 26 29 05
  21881965.373   -16468453.001 9 -12803626.02747  21881970.165    21881978.6354
  20962399.001   -18698146.795 9 -14298454.98247  20962401.897    20962408.8274
  20639451.804   -22587328.175 9 -17592446.35248  20639453.177    20639460.2484
  22220109.739   -12915869.643 8 -10053784.33346  22220112.970    22220123.2904
  23281277.841    -6246052.798 7  -4589426.74345  23281287.789    23281299.8094
  24672700.417     -749882.886 7   -569471.41345  24672708.207    24672716.5184
  21726800.403   -16406171.173 8 -12763388.39747  21726805.801    21726813.3274
  24353143.851    -1607137.018 8  -1242914.51345  24353142.104    24353154.4584
 00  4 20  2 59  0.0000000  0  8 21 09 23 17 15 26 29 05
  21868121.819   -16541221.563 9 -12860328.98947  21868123.192    21868131.6534
  20969744.676   -18659550.403 9 -14268379.85447  20969746.043    20969752.8694
  20638269.603   -22593544.604 9 -17597290.29648  20638270.015    20638277.5984
  22240162.988   -12810505.430 8  -9971682.43546  22240163.259    22240173.0944
  23263895.483    -6337443.372 8  -4660640.05445  23263899.168    23263907.6124
  24690453.831     -656646.346 7   -496819.66445  24690450.178    24690459.5354
  21716816.144   -16458677.089 8 -12804302.08647  21716814.896    21716821.9434
  24337978.817    -1686741.644 7  -1304943.92145  24337992.905    24338004.9964
 00  4 20  2 59 30.0000000  0  8 21 09 23 17 15 26 29 05
  21854297.816   -16613853.921 9 -12916925.70147  21854302.119    21854309.9664
  20977199.491   -18620366.694 9 -14237847.08047  20977202.374    20977209.5544
  20637141.390   -22599465.827 9 -17601904.22148  20637143.328    20637150.8534
  22260272.574   -12704815.843 8  -9889327.01346  22260275.922    22260285.9044
  23246570.717    -6428481.130 8  -4731578.47645  23246574.543    23246583.3144
  24708178.339     -563461.946 7   -424208.52945  24708183.036    24708192.0784
  21706862.088   -16510957.846 8 -12845040.35947  21706866.300    21706873.1944
  24322856.396    -1766231.859 7  -1366884.22545  24322865.958    24322879.6224
 00  4 20  3  0  0.0000000  0  8 21 09 23 17 15 26 29 05
  21840504.065   -16686353.354 9 -12973418.66547  21840506.218    21840513.4064
  20984767.429   -18580599.146 9 -14206859.35747  20984769.557    20984777.1924
  20636069.620   -22605099.157 9 -17606293.89248  20636071.392    20636078.9344
  22280443.179   -12598798.722 8  -9806716.34346  22280450.703    22280460.7304
  23229316.026    -6519163.608 8  -4802240.03545  23229317.498    23229328.0804
  24725910.932     -470312.427 7   -351624.44945  24725908.909    24725916.6044
  21696957.179   -16563011.913 8 -12885601.92047  21696960.731    21696967.1264
  24307765.805    -1845615.510 8  -1428741.43145  24307761.427    24307773.0394
 00  4 20  3  0 30.0000000  0  8 21 09 23 17 15 26 29 05
  21826738.309   -16758696.648 9 -13029789.84847  21826739.615    21826747.4614
  20992445.992   -18540244.497 9 -14175414.15847  20992449.104    20992456.4284
  20635050.960   -22610451.302 9 -17610464.46648  20635053.005    20635060.2364
  22300686.094   -12492449.355 8  -9723846.81746  22300687.656    22300697.8234
  23212129.173    -6609487.888 8  -4872622.44646  23212130.712    23212141.3464
  24743626.684     -377186.453 7   -279058.89645  24743630.149    24743639.2024
  21687093.754   -16614847.227 8 -12925993.03647  21687096.699    21687103.6424
  24292673.300    -1924900.112 7  -1490521.43545  24292672.103    24292686.3574
 00  4 20  3  1  0.0000000  0  8 21 09 23 17 15 26 29 05
  21812997.306   -16830886.819 9 -13086041.68447  21813002.095    21813009.0764
  21000242.230   -18499291.679 9 -14143502.84547  21000242.391    21000249.9574
  20634086.556   -22615516.569 9 -17614411.43748  20634089.071    20634096.3194
  22320982.436   -12385776.227 8  -9640724.97546  22320987.076    22320997.2014
  23195010.659    -6699450.882 8  -4942723.40145  23195011.422    23195018.0274
  24761334.621     -284077.319 7   -206506.36145  24761348.081    24761358.3424
  21677271.412   -16666459.385 8 -12966210.21747  21677274.948    21677282.6254
  24277598.200    -2004081.763 7  -1552221.27645  24277603.459    24277619.0004
 00  4 20  3  1 30.0000000  0  8 21 09 23 17 15 26 29 05
  21799291.793   -16902921.505 9 -13142172.50447  21799293.834    21799301.8554
  21008141.812   -18457757.073 9 -14111138.19347  21008145.904    21008153.2034
  20633179.027   -22620287.716 9 -17618129.13948  20633181.282    20633188.0554
  22341341.941   -12278797.138 8  -9557364.72546  22341344.311    22341354.7234
  23177960.037    -6789049.947 8  -5012540.69046  23177960.846    23177971.0464
  24779057.535     -190994.199 7   -133974.00245  24779060.198    24779070.2614
  21667493.453   -16717836.600 8 -13006244.35347  21667497.885    21667505.7274
  24262552.227    -2083177.157 7  -1613853.86045  24262553.070    24262565.6244
 00  4 20  3  2  0.0000000  0  8 21 09 23 17 15 26 29 05
  21785615.334   -16974797.909 9 -13198180.05047  21785615.814    21785624.3444
  21016156.855   -18415653.710 9 -14078330.35547  21016157.686    21016165.7014
  20632327.629   -22624757.797 9 -17621612.26448  20632330.300    20632337.3494
  22361757.479   -12171520.310 8  -9473772.50146  22361758.868    22361768.8314
  23160973.665    -6878282.325 8  -5082072.27346  23160979.228    23160990.1764
  24796766.486      -97953.685 7    -61474.86645  24796765.890    24796774.6004
  21657764.301   -16768969.780 8 -13046088.30447  21657767.525    21657775.3994
  24247518.747    -2162185.339 8  -1675418.47845  24247519.795    24247531.3044
 00  4 20  3  2 30.0000000  0  7 21 09 23 17 15 29 05
  21771966.143   -17046517.948 9 -13254065.65747  21771967.696    21771975.5674
  21024279.007   -18372967.034 9 -14045067.99247  21024281.220    21024288.1234
  20631537.076   -22628917.345 9 -17624853.61148  20631538.867    20631545.9174
  22382224.822   -12063954.435 8  -9389955.04146  22382227.917    22382238.0884
  23144066.129    -6967145.348 8  -5151315.98745  23144070.023    23144078.3444
  21648083.461   -16819856.253 8 -13085740.03347  21648084.867    21648091.7434
  24232501.484    -2241088.315 8  -1736901.16645  24232503.581    24232515.7994
 00  4 20  3  3  0.0000000  0  7 21 09 23 17 15 29 05
  21758342.229   -17118100.818 9 -13309844.53947  21758345.669    21758354.0384
  21032511.359   -18329696.339 9 -14011350.54947  21032515.412    21032522.3214
  20630808.302   -22632744.626 9 -17627835.72148  20630810.353    20630817.4914
  22402746.079   -11956113.918 8  -9305923.56746  22402749.683    22402759.6964
  23127232.483    -7055635.999 8  -5220269.68045  23127231.132    23127238.9584
  21638446.026   -16870493.927 9 -13125197.86647  21638448.846    21638456.1614
  24217501.877    -2319872.391 7  -1798291.22845  24217511.621    24217524.1464
 00  4 20  3  3 30.0000000  0  7 21 09 23 17 15 29 05
  21744747.932   -17189550.157 9 -13365519.28347  21744749.486    21744757.7774
  21040858.340   -18285846.080 9 -13977181.49047  21040859.494    21040866.9604
  20630142.406   -22636241.646 9 -17630560.59448  20630144.835    20630152.3974
  22423321.180   -11847996.270 8  -9221676.14146  22423323.247    22423333.6614
  23110456.728    -7143751.438 8  -5288930.91646  23110462.584    23110474.1784
  21628853.886   -16920900.001 8 -13164475.24847  21628856.853    21628864.5734
  24202537.512    -2398528.746 7  -1859581.73445  24202543.730    24202553.3124
 00  4 20  3  4  0.0000000  0  7 21 09 23 17 15 29 05
  21731174.624   -17260875.008 9 -13421097.08647  21731177.035    21731185.8054
  21049313.128   -18241408.624 9 -13942554.87547  21049316.066    21049323.1064
  20629539.656   -22639412.256 9 -17633031.42948  20629541.949    20629548.9314
  22443948.131   -11739585.235 8  -9137200.12846  22443953.536    22443963.3054
  23093766.122    -7231488.729 8  -5357297.45746  23093765.899    23093777.6544
  21619302.237   -16971085.957 8 -13203581.10547  21619305.636    21619313.8144
  24187594.450    -2477039.357 7  -1920758.69645  24187602.426    24187614.5634
 00  4 20  3  4 30.0000000  0  7 21 09 23 17 15 29 05
  21717624.842   -17332077.620 9 -13476579.59247  21717627.271    21717635.6184
  21057881.674   -18196392.154 9 -13907477.08347  21057882.560    21057889.4654
  20628997.281   -22642260.166 9 -17635250.60048  20628999.850    20629006.8824
  22464638.261   -11630881.696 8  -9052496.14546  22464639.770    22464649.9564
  23077144.300    -7318845.018 8  -5425367.20546  23077142.035    23077153.5984
  21609794.858   -17021058.867 8 -13242521.00247  21609796.626    21609804.2794
  24172687.193    -2555406.054 7  -1981823.50945  24172689.489    24172703.0394
 00  4 20  3  5  0.0000000  0  7 21 09 23 17 15 29 05
  21704100.218   -17403148.348 9 -13531959.51447  21704103.197    21704112.0874
  21066550.824   -18150815.866 9 -13871963.06447  21066554.743    21066561.8864
  20628515.189   -22644791.500 9 -17637222.95348  20628518.228    20628525.0204
  22485378.817   -11521885.059 8  -8967563.79646  22485381.410    22485392.0214
  23060589.280    -7405817.449 8  -5493137.85046  23060593.330    23060603.5854
  21600326.348   -17070818.611 9 -13281294.73747  21600327.650    21600335.4204
  24157798.904    -2633648.606 7  -2042791.57545  24157801.450    24157813.7804
 00  4 20  3  5 30.0000000  0  7 21 09 23 17 15 29 05
  21690604.538   -17474065.888 9 -13587220.07047  21690607.514    21690616.5484
  21075328.387   -18104682.533 9 -13836014.99647  21075333.250    21075340.9234
  20628090.668   -22647026.885 9 -17638964.71448  20628092.445    20628099.8934
  22506175.637   -11412591.900 8  -8882400.41346  22506179.259    22506189.4854
  23044111.328    -7492403.146 8  -5560607.09946  23044117.881    23044126.6444
  21590898.480   -17120352.107 8 -13319892.18347  21590901.457    21590909.3984
  24142931.054    -2711786.564 8  -2103678.14345  24142932.674    24142943.6084
 00  4 20  3  6  0.0000000  0  7 21 09 23 17 15 29 05
  21677140.759   -17544816.025 9 -13642350.14847  21677144.429    21677153.1744
  21084215.552   -18057992.301 9 -13799632.98247  21084218.576    21084225.9644
  20627720.948   -22648964.113 9 -17640474.32548  20627723.938    20627731.0214
  22527032.027   -11303007.169 8  -8797009.79746  22527032.039    22527041.8594
  23027715.477    -7578599.516 8  -5627772.98546  23027713.373    23027722.0994
  21581516.024   -17169640.400 8 -13358298.68447  21581522.282    21581529.9584
  24128081.023    -2789831.371 8  -2164492.12145  24128079.628    24128091.4594
 00  4 20  3  6 30.0000000  0  7 21 09 23 17 15 29 05
  21663712.938   -17615391.097 9 -13697343.90847  21663714.741    21663723.2684
  21093206.584   -18010745.955 9 -13762817.62847  21093209.714    21093216.2454
  20627412.121   -22650599.067 9 -17641748.29348  20627412.777    20627419.9174
  22547935.973   -11193143.286 8  -8711401.65546  22547938.660    22547948.8284
  23011380.860    -7664403.647 8  -5694633.18946  23011385.879    23011396.5394
  21572188.086   -17218676.883 9 -13396508.85847  21572191.235    21572198.7224
  24113238.037    -2867793.833 8  -2225241.96645  24113245.219    24113256.8914
 00  4 20  3  7  0.0000000  0  7 21 09 23 17 15 29 05
  21650314.959   -17685789.880 9 -13752200.05047  21650318.166    21650326.5364
  21102305.756   -17962935.845 9 -13725562.98647  21102307.209    21102314.5704
  20627156.353   -22651933.317 9 -17642787.85948  20627158.768    20627166.3144
  22568896.478   -11082999.553 8  -8625575.48046  22568898.703    22568908.7354
  22995133.990    -7749812.807 8  -5761185.68946  22995133.924    22995142.1924
  21562906.235   -17267460.467 9 -13434521.96747  21562908.236    21562914.8794
  24098424.871    -2945656.336 7  -2285913.85645  24098426.806    24098440.6434
 00  4 20  3  7 30.0000000  0  7 21 09 23 17 15 29 05
  21636951.884   -17756019.047 9 -13806924.19047  21636954.236    21636962.3564
  21111507.162   -17914562.244 9 -13687869.24347  21111511.859    21111519.0604
  20626959.361   -22652965.555 9 -17643592.35948  20626962.647    20626970.0524
  22589908.516   -10972576.119 8  -8539531.32546  22589912.097    22589921.3814
  22978946.922    -7834823.999 8  -5827428.07246  22978954.274    22978964.2284
  21553668.162   -17315999.896 9 -13472344.82247  21553671.226    21553678.0434
  24083640.067    -3023387.067 8  -2346483.12045  24083636.391    24083647.6464
 00  4 20  3  8  0.0000000  0  7 21 09 23 17 15 29 05
  21623617.806   -17826091.521 9 -13861526.14147  21623619.768    21623628.0894
  21120820.022   -17865623.534 9 -13649735.15447  21120824.885    21120832.4924
  20626823.323   -22653684.832 9 -17644152.83948  20626825.766    20626833.1044
  22610974.201   -10861891.682 8  -8453283.79946  22610974.378    22610984.1904
  22962854.884    -7919434.534 8  -5893358.21046  22962854.071    22962864.5814
  21544475.460   -17364309.916 9 -13509988.86647  21544477.850    21544484.7874
  24068867.982    -3100963.533 7  -2406932.15345  24068872.487    24068885.1874
 00  4 20  3  8 30.0000000  0  7 21 09 23 17 15 29 05
  21610312.840   -17896005.367 9 -13916004.37347  21610315.732    21610324.2334
  21130240.935   -17816126.938 9 -13611166.35347  21130243.905    21130250.4414
  20626745.814   -22654091.562 9 -17644469.80448  20626748.450    20626755.8324
  22632077.473   -10750967.682 8  -8366849.60146  22632082.229    22632092.8364
  22946830.482    -8003641.727 8  -5958974.11546  22946829.733    22946839.8684
  21535324.263   -17412395.095 9 -13547457.77947  21535327.447    21535334.6954
  24054135.368    -3178368.732 8  -2467247.73445  24054142.556    24054154.6614
 00  4 20  3  9  0.0000000  0  7 21 09 23 17 15 29 05
  21597038.822   -17965760.170 9 -13970358.67447  21597042.421    21597050.6614
  21139763.891   -17766083.365 9 -13572171.35147  21139766.668    21139774.7604
  20626729.547   -22654184.402 9 -17644542.23148  20626730.917    20626738.2884
  22653232.599   -10639809.522 8  -8280232.95246  22653234.876    22653245.5394
  22930877.205    -8087442.628 8  -6024273.36446  22930882.909    22930892.4314
  21526219.976   -17460251.565 9 -13584748.47847  21526220.747    21526227.8354
  24039453.241    -3255585.041 8  -2527416.12745  24039450.090    24039460.9744
 00  4 20  3  9 30.0000000  0  7 21 09 23 17 15 29 05
  21583798.973   -18035343.999 9 -14024579.69447  21583800.910    21583809.2344
  21149388.311   -17715498.018 9 -13532754.15947  21149392.964    21149400.3114
  20626774.328   -22653949.409 9 -17644359.18348  20626775.962    20626782.9564
  22674430.718   -10528421.533 8  -8193437.22846  22674431.999    22674441.9724
  22915008.895    -8170834.428 8  -6089253.84446  22915013.521    22915023.3824
  21517156.433   -17507872.753 9 -13621855.88847  21517159.051    21517166.1554
  24024788.557    -3332624.995 8  -2587447.13345  24024789.369    24024801.6724
 00  4 20  3 10  0.0000000  0  7 21 09 23 17 15 29 05
  21570590.222   -18104747.118 9 -14078659.91347  21570593.495    21570602.0114
  21159119.354   -17664374.383 9 -13492917.51647  21159121.755    21159129.1334
  20626881.748   -22653380.982 9 -17643916.16348  20626883.522    20626890.7924
  22695669.514   -10416804.003 8  -8106462.61946  22695671.121    22695681.8224
  22899217.457    -8253814.700 8  -6153913.65746  22899222.470    22899232.8124
  21508141.380   -17555245.214 9 -13658769.52047  21508143.986    21508150.9364
  24010161.181    -3409499.325 8  -2647349.06445  24010161.367    24010171.8984
 00  4 20  3 10 30.0000000  0  7 21 09 23 17 15 29 05
  21557420.352   -18173966.246 9 -14132597.00747  21557421.396    21557429.7774
  21168947.544   -17612734.286 9 -13452678.43947  21168948.241    21168955.5924
  20627055.343   -22652471.263 9 -17643207.29148  20627056.733    20627064.0964
  22716961.252   -10304925.866 8  -8019284.96846  22716961.621    22716972.2914
  22883509.033    -8336380.474 8  -6218250.51546  22883511.591    22883521.1044
  21499174.772   -17602373.862 9 -13695493.17047  21499175.407    21499181.4254
  23995566.333    -3486208.559 8  -2707122.37945  23995562.882    23995575.7614
 00  4 20  3 11  0.0000000  0  7 21 09 23 17 15 29 05
  21544281.145   -18243006.802 9 -14186394.79447  21544283.804    21544291.5874
  21178864.742   -17560578.615 9 -13412037.66047  21178872.773    21178880.4914
  20627294.409   -22651213.028 9 -17642226.93848  20627296.091    20627303.5014
  22738298.793   -10192760.205 8  -7931883.24346  22738305.040    22738315.9964
  22867878.079    -8418528.830 8  -6282262.14546  22867879.852    22867889.8104
  21490248.873   -17649270.472 8 -13732035.89847  21490251.327    21490257.6024
  23980999.548    -3562760.306 8  -2766772.94645  23980997.544    23981006.9074
 00  4 20  3 11 30.0000000  0  7 21 09 23 17 15 29 05
  21531180.299   -18311856.348 9 -14240043.49547  21531181.695    21531189.5794
  21188891.576   -17507901.995 9 -13370990.92547  21188896.646    21188903.7484
  20627598.752   -22649603.644 9 -17640972.90048  20627602.309    20627609.7604
  22759704.433   -10080305.933 8  -7844256.67846  22759704.212    22759715.4144
  22852318.969    -8500257.391 8  -6345946.62346  22852325.400    22852334.3424
  21481366.473   -17695943.321 8 -13768404.36447  21481369.528    21481376.9134
  23966450.772    -3639157.987 8  -2826303.49545  23966458.750    23966469.1374
 00  4 20  3 12  0.0000000  0  7 21 09 23 17 15 29 05
  21518114.985   -18380516.552 9 -14293544.79147  21518116.241    21518123.8584
  21199013.994   -17454706.916 9 -13329540.19447  21199018.854    21199026.5664
  20627972.197   -22647654.171 9 -17639453.75848  20627973.219    20627980.7394
  22781153.359    -9967575.346 8  -7756414.76846  22781156.575    22781167.2144
  22836852.849    -8581563.244 8  -6409301.78246  22836855.769    22836862.5874
  21472524.372   -17742410.057 9 -13804612.11147  21472527.690    21472534.8974
  23951957.692    -3715393.421 8  -2885707.53345  23951950.333    23951962.3844
 00  4 20  3 12 30.0000000  0  7 21 09 23 17 15 29 05
  21505081.504   -18448989.608 9 -14346900.12147  21505085.801    21505093.7964
  21209239.977   -17400986.234 9 -13287679.91247  21209241.875    21209249.8524
  20628403.236   -22645372.447 9 -17637675.87248  20628407.182    20628415.2634
  22802657.323    -9854579.503 8  -7668366.14646  22802660.302    22802669.7044
  22821462.613    -8662443.591 8  -6472325.32846  22821463.885    22821472.4654
  21463722.363   -17788680.569 9 -13840666.98847  21463722.275    21463729.6404
  23937469.217    -3791476.966 8  -2944993.26545  23937471.948    23937484.1124
 00  4 20  3 13  0.0000000  0  7 21 09 23 17 15 29 05
  21492088.486   -18517275.468 9 -14400109.83247  21492090.831    21492099.6254
  21219568.392   -17346710.434 9 -13245387.08947  21219570.595    21219577.6884
  20628899.826   -22642775.942 9 -17635652.62848  20628901.471    20628909.1954
  22824206.285    -9741358.580 8  -7580142.10546  22824204.756    22824214.7294
  22806156.126    -8742895.815 8  -6535015.28846  22806154.219    22806161.2284
  21454953.656   -17834741.469 9 -13876558.54247  21454956.995    21454964.3684
  23923017.650    -3867402.692 8  -3004156.02345  23923024.040    23923035.4764
 00  4 20  3 13 30.0000000  0  7 21 09 23 17 15 29 05
  21479129.172   -18585368.852 9 -14453169.55547  21479133.500    21479140.9254
  21230005.360   -17291871.739 9 -13202655.63747  21230006.467    21230013.5924
  20629452.368   -22639866.745 9 -17633385.71648  20629455.085    20629462.7084
  22845785.642    -9627936.093 8  -7491761.03746  22845788.512    22845799.2134
  22790917.984    -8822917.406 8  -6597369.67746  22790925.097    22790934.2874
  21446231.432   -17880577.365 8 -13912274.88947  21446234.850    21446241.9154
  23908611.253    -3943164.220 8  -3063190.82845  23908607.491    23908618.1274
 00  4 20  3 14  0.0000000  0  7 21 09 23 17 15 29 05
  21466204.539   -18653286.670 9 -14506092.37547  21466209.142    21466216.9504
  21240546.191   -17236479.931 9 -13159493.18247  21240546.861    21240554.2724
  20630066.196   -22636650.926 9 -17630879.93348  20630067.477    20630074.9454
  22867407.634    -9514315.521 8  -7403225.65646  22867409.112    22867420.0524
  22775781.709    -8902505.442 8  -6659386.25746  22775781.505    22775789.9324
  21437555.434   -17926178.756 9 -13947808.39747  21437557.494    21437563.9114
  23894208.626    -4018760.839 8  -3122097.15545  23894220.991    23894233.2434
 00  4 20  3 14 30.0000000  0  7 21 09 23 17 15 29 05
  21453313.175   -18721039.652 9 -14558886.83347  21453315.707    21453323.9714
  21251185.210   -17180538.241 9 -13115902.26447  21251191.560    21251199.7854
  20630735.609   -22633124.372 9 -17628132.02148  20630738.503    20630745.6014
  22889068.870    -9400498.819 8  -7314537.40846  22889068.947    22889079.6244
  22760715.831    -8981657.360 8  -6721063.03746  22760718.992    22760726.1634
  21428921.380   -17971529.005 8 -13983146.14847  21428927.151    21428934.4414
  23879867.222    -4094183.521 8  -3180867.91645  23879868.425    23879879.6574
 00  4 20  3 15  0.0000000  0  7 21 09 23 17 15 29 05
  21440455.628   -18788622.475 9 -14611548.75747  21440455.571    21440463.2494
  21261935.699   -17124058.551 9 -13071892.11847  21261939.984    21261947.4574
  20631469.410   -22629272.348 9 -17625130.44648  20631471.761    20631479.0454
  22910762.132    -9286475.077 8  -7225687.83246  22910766.849    22910777.5614
  22745737.467    -9060370.239 8  -6782397.60046  22745740.144    22745749.8774
  21420344.961   -18016616.968 8 -14018279.58947  21420347.038    21420354.3694
  23865549.280    -4169414.978 8  -3239489.68645  23865552.727    23865563.2794
 00  4 20  3 15 30.0000000  0  7 21 09 23 17 15 29 05
  21427626.232   -18856019.407 9 -14664065.80047  21427629.689    21427637.7454
  21272782.195   -17067071.609 9 -13027486.70747  21272784.537    21272791.4164
  20632266.517   -22625081.561 9 -17621864.87648  20632269.013    20632276.5314
  22932510.485    -9172223.445 8  -7136660.67146  22932508.908    22932518.1574
  22730846.618    -9138641.334 8  -6843387.95846  22730846.145    22730854.2264
  21411812.353   -18061455.411 8 -14053218.49947  21411814.310    21411821.7984
  23851269.845    -4244464.763 8  -3297969.92245  23851270.698    23851280.5504
 00  4 20  3 16  0.0000000  0  7 21 09 23 17 15 29 05
  21414838.508   -18923232.151 9 -14716439.28447  21414839.874    21414848.0254
  21283719.692   -17009591.214 9 -12982696.77747  21283722.095    21283729.4674
  20633128.580   -22620547.655 9 -17618331.99048  20633131.622    20633139.3684
  22954294.207    -9057738.243 8  -7047451.49046  22954294.240    22954304.3494
  22716034.695    -9216468.171 8  -6904032.19446  22716035.703    22716042.5764
  21403322.335   -18106063.969 8 -14087978.37947  21403325.570    21403333.5534
  23837026.218    -4319320.063 8  -3356298.60045  23837026.444    23837036.6494
 00  4 20  3 16 30.0000000  0  7 21 09 23 17 15 29 05
  21402087.590   -18990242.599 9 -14768655.25747  21402088.227    21402095.9174
  21294756.015   -16951607.231 9 -12937514.45147  21294756.492    21294763.9174
  20634059.261   -22615667.205 9 -17614529.02748  20634060.626    20634067.8874
  22976121.354    -8943022.479 8  -6958062.69446  22976124.026    22976133.4884
  22701307.064    -9293848.162 8  -6964328.23946  22701310.587    22701318.0474
  21394878.666   -18150445.521 9 -14122561.40047  21394880.392    21394887.6824
  23822813.451    -4393976.725 8  -3414472.48145  23822819.405    23822830.7914
 00  4 20  3 17  0.0000000  0  7 21 09 23 17 15 29 05
  21389379.315   -19057031.908 9 -14820698.81547  21389378.776    21389386.5074
  21305883.757   -16893106.848 9 -12891929.73147  21305888.654    21305896.2704
  20635052.867   -22610435.563 9 -17610452.43648  20635055.940    20635063.2534
  22997993.781    -8828070.015 8  -6868489.43246  22997998.475    22998008.4714
  22686667.226    -9370778.459 8  -7024273.80246  22686670.475    22686679.4784
  21386472.143   -18194606.153 9 -14156972.05747  21386477.017    21386483.7834
  23808647.410    -4468433.601 8  -3472490.67246  23808650.903    23808662.0914
 00  4 20  3 17 30.0000000  0  7 21 09 23 17 15 29 05
  21376706.806   -19123609.501 9 -14872577.24347  21376709.725    21376716.7594
  21317117.088   -16834089.778 9 -12845942.40547  21317118.945    21317126.8024
  20636115.370   -22604861.597 9 -17606109.13448  20636116.812    20636124.0154
  23019913.230    -8712897.414 8  -6778744.65246  23019915.079    23019926.2084
  22672115.455    -9447256.485 8  -7083866.98346  22672118.673    22672127.5684
  21378107.995   -18238561.891 9 -14191223.12747  21378112.387    21378119.8624
  23794526.569    -4542686.774 8  -3530350.14846  23794522.147    23794531.1304
 00  4 20  3 18  0.0000000  0  7 21 09 23 17 15 29 05
  21364073.846   -19189995.136 9 -14924306.25147  21364076.102    21364084.1654
  21328446.687   -16774546.793 9 -12799545.27447  21328450.024    21328457.5354
  20637240.942   -22598947.426 9 -17601500.66848  20637242.536    20637249.6424
  23041869.541    -8597516.560 8  -6688837.62846  23041871.718    23041882.8214
  22657650.814    -9523279.709 8  -7143105.75246  22657651.552    22657660.4374
  21369790.164   -18282290.358 9 -14225297.25047  21369791.328    21369798.4624
  23780425.331    -4616725.412 8  -3588042.47946  23780431.649    23780442.9054
 00  4 20  3 18 30.0000000  0  7 21 09 23 17 15 29 05
  21351480.118   -19256181.098 9 -14975879.73847  21351481.973    21351489.1784
  21339879.614   -16714471.726 9 -12752733.53147  21339882.158    21339888.9394
  20638430.108   -22592697.188 9 -17596630.31848  20638431.824    20638439.0394
  23063862.195    -8481932.273 8  -6598772.04846  23063866.638    23063877.2144
  22643268.151    -9598845.377 8  -7201987.99746  22643271.127    22643280.8054
  21361513.557   -18325774.047 9 -14259180.65947  21361516.229    21361523.0744
  23766377.303    -4690568.138 8  -3645582.11346  23766379.138    23766389.5234
 00  4 20  3 19  0.0000000  0  7 21 09 23 17 15 29 05
  21338920.923   -19322176.117 9 -15027304.34547  21338923.395    21338930.6434
  21351407.145   -16653882.926 9 -12705521.47847  21351411.701    21351418.1024
  20639684.043   -22586104.365 9 -17591493.08048  20639686.523    20639693.7024
  23085891.620    -8366138.570 8  -6508543.32046  23085901.763    23085913.1514
  22628975.441    -9673951.058 8  -7260511.79746  22628978.744    22628988.2764
  21353284.352   -18369019.159 9 -14292877.97047  21353286.735    21353293.8124
  23752365.011    -4764216.290 8  -3702970.16346  23752365.028    23752375.1534
 00  4 20  3 19 30.0000000  0  7 21 09 23 17 15 29 05
  21326397.621   -19387982.030 9 -15078581.88347  21326401.254    21326408.9674
  21363032.365   -16592807.534 9 -12657930.26347  21363033.814    21363040.5864
  20641003.838   -22579173.209 9 -17586092.17948  20641005.265    20641012.8874
  23107971.913    -8250150.930 8  -6418163.46946  23107973.179    23107984.9104
  22614771.273    -9748594.049 8  -7318675.07146  22614775.245    22614784.2744
  21345099.652   -18412020.251 9 -14326385.27947  21345103.388    21345110.9024
  23738384.630    -4837667.806 8  -3760204.99346  23738386.762    23738399.2494
 00  4 20  3 20  0.0000000  0  7 21 09 23 17 15 29 05
  21313919.355   -19453569.708 9 -15129689.30347  21313920.424    21313927.4694
  21374742.924   -16531240.457 8 -12609955.93147  21374748.996    21374756.0174
  20642385.532   -22571894.446 9 -17580420.44848  20642390.166    20642398.0954
  23130086.674    -8133970.779 8  -6327633.61246  23130082.274    23130093.0704
  22600658.569    -9822771.960 8  -7376475.93946  22600660.281    22600668.0084
  21336965.804   -18454770.911 9 -14359697.37947  21336968.543    21336975.3734
  23724450.200    -4910910.357 8  -3817277.01046  23724450.220    23724462.3164
 00  4 20  3 20 30.0000000  0  7 21 09 23 17 15 29 05
  21301482.893   -19518916.470 9 -15180609.02147  21301485.428    21301493.0214
  21386558.016   -16469186.409 9 -12561602.12347  21386557.326    21386565.0684
  20643840.185   -22564268.778 9 -17574478.35048  20643841.544    20643849.0784
  23152228.833    -8017599.396 8  -6236954.75346  23152227.292    23152237.1564
  22586632.165    -9896481.918 8  -7433912.20246  22586634.009    22586642.8734
  21328876.496   -18497293.939 9 -14392832.32147  21328877.178    21328884.3324
  23710549.552    -4983934.121 8  -3874178.49346  23710553.106    23710564.5484
 00  4 20  3 21  0.0000000  0  7 21 09 23 17 15 29 05
  21289093.728   -19584024.578 9 -15231342.62747  21289095.800    21289103.4944
  21398454.112   -16406659.587 9 -12512879.93247  21398456.484    21398463.3284
  20645356.955   -22556295.569 9 -17568265.45748  20645358.788    20645365.9784
  23174399.588    -7901043.419 8  -6146132.02645  23174406.336    23174416.5814
  22572692.093    -9969721.568 8  -7490981.94046  22572695.531    22572706.4574
  21320821.954   -18539606.681 9 -14425803.22947  21320825.524    21320832.2134
  23696701.115    -5056721.516 8  -3930895.80846  23696701.954    23696713.7534
 00  4 20  3 21 30.0000000  0  7 21 09 23 17 15 29 05
  21276749.098   -19648889.356 9 -15281886.60047  21276752.658    21276759.7404
  21410446.993   -16343646.363 9 -12463778.71747  21410447.656    21410455.1624
  20646940.166   -22547972.484 9 -17561779.95148  20646942.138    20646949.8124
  23196613.807    -7784324.897 8  -6055182.64946  23196618.265    23196627.6634
  22558847.315   -10042488.184 8  -7547683.16446  22558848.669    22558859.1084
  21312811.608   -18581707.058 9 -14458608.76347  21312813.750    21312820.4484
  23682891.504    -5129269.485 8  -3987426.55646  23682896.243    23682907.6424
 00  4 20  3 22  0.0000000  0  7 21 09 23 17 15 29 05
  21264449.927   -19713523.841 9 -15332251.01347  21264452.866    21264460.6354
  21422529.505   -16280142.876 9 -12414295.49747  21422531.530    21422538.9764
  20648590.262   -22539306.699 9 -17555027.37848  20648591.402    20648598.9714
  23218862.380    -7667441.267 8  -5964104.59146  23218859.887    23218870.3774
  22545088.981   -10114779.217 8  -7604013.74746  22545092.245    22545102.6864
  21304838.244   -18623598.236 9 -14491251.15747  21304841.829    21304848.9844
  23669135.684    -5201592.367 8  -4043781.92146  23669134.965    23669145.2984
 00  4 20  3 22 30.0000000  0  7 21 09 23 17 15 29 05
  21252188.259   -19777957.448 9 -15382459.00247  21252191.386    21252198.5174
  21434704.434   -16216156.928 9 -12364436.34847  21434708.311    21434715.3894
  20650301.214   -22530310.047 9 -17548017.02748  20650303.421    20650311.0264
  23241122.843    -7550398.597 8  -5872902.65546  23241132.066    23241142.9834
  22531430.736   -10186592.406 8  -7659971.99646  22531428.155    22531435.4974
  21296905.759   -18665279.397 9 -14523729.97047  21296910.287    21296917.2674
  23655402.859    -5273717.112 8  -4099982.89846  23655408.748    23655420.7064
 00  4 20  3 23  0.0000000  0  7 21 09 23 17 15 29 05
  21239964.353   -19842200.849 9 -15432518.65247  21239966.582    21239973.7404
  21446976.275   -16151682.213 9 -12314196.31747  21446977.183    21446984.2494
  20652078.992   -22520970.953 9 -17540739.80448  20652080.471    20652088.3324
  23263419.644    -7433200.891 8  -5781579.87646  23263433.830    23263444.8394
  22517849.577   -10257925.105 8  -7715555.87146  22517852.197    22517862.5804
  21289020.195   -18706742.288 9 -14556038.81347  21289020.101    21289026.9624
  23641722.563    -5345646.667 8  -4156031.75246  23641720.550    23641732.5644
 00  4 20  3 23 30.0000000  0  7 21 09 23 17 15 29 05
  21227777.681   -19906248.815 9 -15482426.27947  21227779.041    21227786.0704
  21459335.776   -16086713.059 9 -12263570.99847  21459340.270    21459347.5914
  20653919.509   -22511290.433 9 -17533196.56748  20653922.782    20653930.3634
  23285763.816    -7315845.632 8  -5690134.33645  23285766.360    23285776.6324
  22504366.966   -10328774.811 8  -7770763.30846  22504369.708    22504379.6154
  21281170.252   -18747974.400 9 -14588167.64247  21281173.976    21281180.8824
  23628073.835    -5417366.923 8  -4211917.52946  23628073.096    23628083.7724
 00  4 20  3 24  0.0000000  0  7 21 09 23 17 15 29 05
  21215628.408   -19970090.567 9 -15532173.11347  21215630.149    21215637.8784
  21471793.392   -16021259.382 9 -12212568.13847  21471795.359    21471802.6224
  20655829.672   -22501268.927 9 -17525387.58948  20655830.026    20655837.3114
  23308134.120    -7198317.328 8  -5598553.95145  23308131.454    23308141.5464
  22490977.684   -10399138.948 8  -7825592.45446  22490980.839    22490988.9994
  21273367.056   -18788977.144 9 -14620117.75847  21273371.619    21273378.6684
  23614457.358    -5488863.910 8  -4267629.31946  23614467.785    23614478.7494
 00  4 20  3 24 30.0000000  0  7 21 09 23 17 15 29 05
  21203523.004   -20033703.387 9 -15581741.48847  21203524.872    21203532.4564
  21484343.786   -15955311.120 9 -12161179.85947  21484345.220    21484352.6504
  20657802.397   -22490882.368 9 -17517294.13148  20657806.122    20657813.7024
  23330529.140    -7080604.201 8  -5506829.53445  23330531.392    23330542.3704
  22477685.371   -10469015.377 8  -7880041.54346  22477682.904    22477691.6574
  21265609.851   -18829752.536 9 -14651890.72447  21265612.755    21265619.5374
  23600907.082    -5560108.342 8  -4323144.34846  23600910.551    23600921.5304
 00  4 20  3 25  0.0000000  0  7 21 09 23 17 15 29 05
  21191463.609   -20097068.710 9 -15631117.07947  21191466.611    21191474.0084
  21496987.514   -15888871.782 9 -12109408.95147  21496988.689    21496995.4134
  20659849.813   -22480124.535 9 -17508911.44048  20659853.552    20659860.8364
  23352965.426    -6962695.743 8  -5414952.93946  23352968.920    23352980.1804
  22464475.060   -10538401.490 8  -7934108.57746  22464479.267    22464488.0304
  21257893.251   -18870298.399 9 -14683484.95847  21257896.479    21257903.4474
  23587400.157    -5631068.452 8  -4378437.77246  23587406.224    23587417.5624
 00  4 20  3 25 30.0000000  0  7 21 09 23 17 15 29 05
  21179454.505   -20160181.510 9 -15680295.77347  21179456.217    21179463.8224
  21509722.948   -15821949.076 9 -12057261.34347  21509723.258    21509730.1354
  20661969.291   -22469005.367 9 -17500247.14548  20661969.575    20661976.5964
  23375443.048    -6844599.883 8  -5322930.32246  23375442.934    23375452.5614
  22451365.890   -10607294.841 8  -7987791.63946  22451369.026    22451377.0114
  21250219.561   -18910611.364 9 -14714897.53347  21250224.952    21250232.2774
  23573955.792    -5701740.946 8  -4433507.11146  23573958.997    23573968.9334
 00  4 20  3 26  0.0000000  0  7 21 09 23 17 15 29 05
  21167489.256   -20223043.778 9 -15729279.25847  21167493.400    21167501.7144
  21522549.380   -15754546.989 9 -12004740.20547  21522549.463    21522556.3824
  20664152.313   -22457517.633 9 -17491295.65548  20664155.331    20664162.9494
  23397951.381    -6726321.027 8  -5230765.08945  23397950.699    23397960.2014
  22438351.518   -10675692.911 8  -8041088.75946  22438353.698    22438362.2624
  21242595.894   -18950686.971 9 -14746125.14147  21242599.265    21242605.9634
  23560559.106    -5772137.942 8  -4488361.80046  23560561.723    23560572.5794
 00  4 20  3 26 30.0000000  0  7 21 09 23 17 15 29 05
  21155574.124   -20285667.823 9 -15778077.10547  21155576.636    21155584.6604
  21535463.835   -15686669.342 9 -11951848.53147  21535465.966    21535473.5264
  20666410.556   -22445661.411 9 -17482057.04148  20666411.548    20666419.1224
  23420482.461    -6607873.264 8  -5138468.21145  23420489.935    23420500.1634
  22425428.442   -10743593.207 8  -8093998.01646  22425431.866    22425440.0874
  21235015.211   -18990527.635 9 -14777169.74847  21235017.442    21235024.4644
  23547217.586    -5842253.302 8  -4542997.02946  23547219.400    23547229.5274
 00  4 20  3 27  0.0000000  0  7 21 09 23 17 15 29 05
  21143701.903   -20348060.284 9 -15826694.35147  21143703.818    21143711.3894
  21548464.603   -15618334.218 8 -11898600.42147  21548469.075    21548477.5024
  20668731.980   -22433453.929 9 -17472544.73148  20668734.431    20668742.1504
  23443058.329    -6489287.508 8  -5046063.85645  23443055.765    23443067.6034
  22412607.792   -10810993.414 8  -8146517.61246  22412607.410    22412613.9784
  21227479.627   -19030127.188 9 -14808026.56147  21227482.004    21227489.1394
  23533924.744    -5912097.126 8  -4597420.64546  23533927.879    23533939.5984
 00  4 20  3 27 30.0000000  0  7 21 09 23 17 15 29 05
  21131874.914   -20410214.065 9 -15875125.77947  21131876.449    21131884.2374
  21561554.806   -15549552.186 8 -11845004.06747  21561558.270    21561565.7184
  20671122.736   -22420888.396 9 -17462753.39548  20671125.644    20671133.2394
  23465646.447    -6370576.628 8  -4953562.01545  23465644.791    23465657.7144
  22399876.333   -10877891.125 8  -8198645.63646  22399875.997    22399885.9664
  21219989.286   -19069487.990 9 -14838697.16847  21219991.553    21219998.6304
  23520689.053    -5981680.910 8  -4651641.66246  23520686.862    23520698.2024
 00  4 20  3 28  0.0000000  0  7 21 09 23 17 15 29 05
  21120093.347   -20472123.534 9 -15923366.78847  21120095.235    21120102.7344
  21574726.495   -15480337.888 8 -11791070.86447  21574728.819    21574736.4874
  20673583.036   -22407960.369 9 -17452679.60648  20673585.765    20673593.3824
  23488251.842    -6251734.473 8  -4860957.87645  23488260.398    23488272.1104
  22387240.632   -10944283.843 8  -8250380.16246  22387242.800    22387251.1664
  21212541.654   -19108616.712 9 -14869186.97747  21212545.146    21212552.7604
  23507490.090    -6051009.474 8  -4705663.77146  23507494.001    23507505.7984
 00  4 20  3 28 30.0000000  0  7 21 09 23 17 15 29 05
  21108360.000   -20533780.916 9 -15971411.41347  21108362.064    21108369.2354
  21587980.562   -15410694.443 9 -11736803.25247  21587982.485    21587989.9794
  20676110.968   -22394677.139 9 -17442329.02848  20676113.553    20676120.7874
  23510884.135    -6132775.739 8  -4768262.87545  23510897.021    23510909.5964
  22374700.838   -11010169.235 8  -8301719.39846  22374704.327    22374713.9464
  21205138.156   -19147523.365 9 -14899503.92347  21205142.181    21205148.8124
  23494356.854    -6120088.694 8  -4759491.62446  23494349.924    23494360.9754
 00  4 20  3 29  0.0000000  0  7 21 09 23 17 15 29 05
  21096675.924   -20595169.585 9 -16019246.58347  21096679.980    21096687.6504
  21601312.963   -15340622.194 9 -11682201.52147  21601316.859    21601323.7184
  20678706.580   -22381036.568 9 -17431699.99248  20678709.265    20678716.7234
  23533550.424    -6013699.103 7  -4675476.03545  23533557.325    23533568.5974
  22362265.903   -11075545.040 8  -8352661.50446  22362263.434    22362272.9834
  21197776.502   -19186212.293 9 -14929651.11247  21197779.543    21197786.4334
  23481244.696    -6188932.649 8  -4813136.15746  23481248.614    23481258.5544
 00  4 20  3 29 30.0000000  0  7 21 09 23 17 15 29 05
  21085043.886   -20656289.085 9 -16066872.09047  21085049.511    21085056.5694
  21614729.199   -15270112.293 9 -11627258.70447  21614734.313    21614741.6524
  20681371.923   -22367027.502 9 -17420783.82048  20681374.907    20681382.5654
  23556231.637    -5894494.083 7  -4582589.13245  23556241.287    23556253.1504
  22349919.060   -11140408.843 8  -8403204.69146  22349922.070    22349928.7444
  21190454.243   -19224701.885 9 -14959643.12347  21190455.305    21190461.8924
  23468191.419    -6257544.259 8  -4866599.63446  23468191.967    23468202.0294
 00  4 20  3 30  0.0000000  0  7 21 09 23 17 15 29 05
  21073462.046   -20717154.024 9 -16114299.20347  21073466.858    21073474.3804
  21628233.114   -15199158.901 9 -11571970.36147  21628236.698    21628243.9734
  20684107.258   -22352657.628 9 -17409586.50948  20684109.252    20684117.1514
  23578940.733    -5775172.286 7  -4489611.26045  23578947.845    23578959.3304
  22337671.372   -11204758.442 8  -8453347.19846  22337674.264    22337683.4544
  21183165.982   -19262993.734 9 -14989480.95947  21183168.802    21183175.2784
  23455173.244    -6325916.380 8  -4919876.50346  23455180.389    23455190.8664
 00  4 20  3 30 30.0000000  0  7 21 09 23 17 15 29 05
  21061929.705   -20777761.640 9 -16161525.90847  21061933.588    21061941.7214
  21641826.512   -15127740.910 9 -11516319.99947  21641826.519    21641834.2914
  20686912.553   -22337917.741 9 -17398100.87048  20686914.212    20686921.7754
  23601682.624    -5655740.462 8  -4396547.61745  23601675.881    23601686.6394
  22325523.778   -11268591.548 8  -8503087.21446  22325527.755    22325536.2894
  21175920.279   -19301079.909 9 -15019158.59147  21175921.383    21175928.0854
  23442215.915    -6394031.287 8  -4972952.92846  23442219.166    23442231.3614
 00  4 20  3 31  0.0000000  0  7 21 09 23 17 15 29 05
  21050445.227   -20838118.189 9 -16208556.94247  21050448.539    21050455.5854
  21655499.350   -15055860.444 8 -11460309.29547  21655504.796    21655512.3984
  20689789.373   -22322795.431 9 -17386317.26548  20689792.117    20689799.5794
  23624428.746    -5536182.056 8  -4303385.35045  23624426.868    23624437.9824
  22313476.449   -11331905.682 8  -8552422.83446  22313478.937    22313487.5474
  21168711.172   -19338955.304 9 -15048671.84047  21168714.231    21168720.4324
  23429309.729    -6461869.656 8  -5025813.87746  23429309.878    23429319.9984
 00  4 20  3 31 30.0000000  0  7 21 09 23 17 15 29 05
  21039006.903   -20898240.394 9 -16255405.48947  21039007.574    21039015.0074
  21669272.331   -14983523.806 9 -11403943.12747  21669270.615    21669277.4474
  20692739.686   -22307296.238 9 -17374239.96848  20692741.381    20692748.8534
  23647202.891    -5416491.213 8  -4210119.94045  23647203.730    23647216.0314
  22301528.478   -11394698.646 8  -8601352.36346  22301531.223    22301538.2664
  21161547.332   -19376606.171 9 -15078010.14747  21161549.024    21161555.7034
  23416450.648    -6529422.514 8  -5078452.37046  23416454.651    23416465.7314
 00  4 20  3 32  0.0000000  0  7 21 09 23 17 15 29 05
  21027610.462   -20958123.113 9 -16302067.52947  21027612.096    21027619.6124
  21683120.992   -14910729.030 9 -11347219.95547  21683122.929    21683129.5594
  20695759.337   -22291429.473 9 -17361876.25648  20695760.777    20695768.0154
  23669995.724    -5296661.123 8  -4116745.97045  23670006.311    23670017.5134
  22289673.782   -11456968.382 8  -8649874.16146  22289680.327    22289689.6554
  21154428.050   -19414009.572 9 -15107155.71147  21154431.599    21154438.2214
  23403656.399    -6596670.215 8  -5130853.05546  23403656.675    23403668.4604
 00  4 20  3 32 30.0000000  0  7 21 09 23 17 15 29 05
  21016262.941   -21017757.916 9 -16348536.37447  21016264.428    21016271.6794
  21697058.715   -14837482.251 8 -11290144.52347  21697060.973    21697068.5894
  20698848.652   -22275190.565 9 -17349222.55948  20698850.951    20698858.0604
  23692836.537    -5176679.948 8  -4023254.26045  23692838.528    23692848.9694
  22277935.105   -11518712.487 8  -8697986.41446  22277932.224    22277939.0764
  21147358.776   -19451168.945 9 -15136111.09447  21147360.352    21147367.0764
  23390912.362    -6663614.118 8  -5183017.02046  23390918.176    23390929.6874
 00  4 20  3 33  0.0000000  0  7 21 09 23 17 15 29 05
  21004957.973   -21077153.065 9 -16394818.25247  21004961.774    21004969.6424
  21711074.461   -14763808.061 8 -11232736.05547  21711081.010    21711087.3864
  20702008.836   -22258593.102 9 -17336289.47048  20702009.614    20702016.7144
  23715698.040    -5056553.122 8  -3929649.08445  23715697.595    23715709.0514
  22266281.003   -11579928.672 8  -8745687.30546  22266282.289    22266290.8734
  21140328.744   -19488096.931 9 -15164886.12347  21140332.795    21140340.2334
  23378235.951    -6730255.851 8  -5234945.52746  23378236.202    23378247.7494
 00  4 20  3 33 30.0000000  0  7 21 09 23 17 15 29 05
  20993704.649   -21136290.791 9 -16440899.25547  20993707.900    20993715.6254
  21725177.939   -14689702.502 8 -11174991.49047  21725182.528    21725189.4024
  20705230.909   -22241653.576 9 -17323089.81848  20705233.262    20705240.3864
  23738568.153    -4936306.620 8  -3835950.67245  23738579.225    23738591.4614
  22254734.695   -11640614.930 8  -8792975.24046  22254733.856    22254744.2624
  21133345.831   -19524793.725 9 -15193481.03547  21133349.642    21133357.0774
  23365613.548    -6796597.594 8  -5286640.30046  23365612.870    23365622.9004
 00  4 20  3 34  0.0000000  0  7 21 09 23 17 15 29 05
  20982504.210   -21195144.606 9 -16486759.59047  20982508.811    20982516.2754
  21739364.984   -14615159.743 8 -11116906.23347  21739367.545    21739374.5774
  20708519.189   -22224369.916 9 -17309622.03648  20708521.786    20708529.2854
  23761468.976    -4815965.507 8  -3742178.55845  23761479.936    23761491.7864
  22243283.644   -11700768.752 8  -8839848.28646  22243287.219    22243295.9034
  21126404.593   -19561273.396 9 -15221906.58847  21126407.835    21126414.7514
  23353045.163    -6862633.666 8  -5338096.88046  23353046.843    23353057.0264
 00  4 20  3 34 30.0000000  0  7 21 09 23 17 15 29 05
  20971359.408   -21253714.648 9 -16532398.78247  20971363.656    20971370.6554
  21753631.055   -14540184.487 8 -11058483.97847  21753634.813    21753642.3854
  20711876.279   -22206733.146 9 -17295879.06348  20711877.787    20711885.3264
  23784400.783    -4695537.841 8  -3648338.99746  23784396.252    23784409.2174
  22231937.610   -11760388.393 8  -8886305.12146  22231940.959    22231949.8164
  21119501.240   -19597555.569 9 -15250178.35047  21119503.681    21119510.9144
  23340528.452    -6928376.131 8  -5389324.68946  23340536.217    23340546.7214
 00  4 20  3 35  0.0000000  0  7 21 09 23 17 15 29 05
  20960272.411   -21311988.174 9 -16577806.81947  20960274.677    20960281.4584
  21767987.505   -14464770.212 9 -10999719.63347  21767986.087    21767993.3374
  20715298.926   -22188739.953 9 -17281858.40748  20715302.038    20715309.2384
  23807324.695    -4575027.175 8  -3554434.75746  23807329.008    23807341.1964
  22220696.670   -11819471.580 8  -8932343.94146  22220699.140    22220707.2644
  21112633.724   -19633633.481 9 -15278291.11247  21112638.243    21112645.3444
  23328083.317    -6993812.490 8  -5440313.95446  23328083.852    23328094.0734
 00  4 20  3 35 30.0000000  0  7 21 09 23 17 15 29 05
  20949240.682   -21369952.795 9 -16622973.76447  20949244.456    20949250.9954
  21782419.447   -14388906.627 8 -10940605.18847  21782422.410    21782429.7434
  20718793.599   -22170378.470 9 -17267550.71448  20718796.106    20718803.4694
  23830275.179    -4454429.320 8  -3460462.58446  23830277.706    23830290.5124
  22209558.159   -11878016.138 8  -8977963.06246  22209556.990    22209567.0734
  21105811.079   -19669502.119 9 -15306240.66447  21105812.704    21105819.3684
  23315688.956    -7058939.933 8  -5491062.50446  23315690.833    23315700.0954
 00  4 20  3 36  0.0000000  0  7 21 09 23 17 15 29 05
  20938265.582   -21427633.358 9 -16667919.67448  20938267.748    20938274.7594
  21796937.833   -14312609.973 8 -10881153.23447  21796940.735    21796948.7134
  20722360.724   -22151630.515 9 -17252941.89348  20722363.584    20722371.1134
  23853253.135    -4333716.920 8  -3366401.12946  23853248.056    23853261.8804
  22198515.130   -11936019.847 8  -9023160.73846  22198518.172    22198529.7244
  21099026.207   -19705161.630 9 -15334027.40747  21099026.887    21099033.7474
  23303350.613    -7123753.071 8  -5541566.14646  23303356.147    23303366.6334
 00  4 20  3 36 30.0000000  0  7 21 09 23 17 15 29 05
  20927339.888   -21485052.157 9 -16712661.71448  20927341.434    20927348.0824
  21811537.713   -14235894.138 8 -10821374.67147  21811539.864    21811547.1774
  20726007.827   -22132474.004 9 -17238014.77348  20726008.846    20726016.5014
  23876237.438    -4212880.180 8  -3272242.79546  23876243.139    23876256.3184
  22187579.037   -11993480.801 8  -9067935.47346  22187584.496    22187594.0274
  21092279.720   -19740606.124 9 -15361646.57447  21092282.219    21092288.5734
  23291084.480    -7188249.295 8  -5591822.84146  23291083.490    23291093.1414
 00  4 20  3 37  0.0000000  0  7 21 09 23 17 15 29 05
  20916463.875   -21542200.093 9 -16757192.42447  20916466.573    20916473.3784
  21826210.548   -14158775.511 8 -10761282.27047  21826214.388    21826222.3954
  20729727.783   -22112910.964 9 -17222770.89548  20729731.443    20729739.1924
  23899260.491    -4091929.601 8  -3177995.74945  23899259.302    23899272.5414
  22176754.240   -12050396.971 8  -9112285.73146  22176755.274    22176763.1044
  21085579.615   -19775818.620 9 -15389084.77747  21085581.689    21085588.3804
  23278871.591    -7252419.465 8  -5641825.47446  23278872.531    23278883.2654
 00  4 20  3 37 30.0000000  0  7 21 09 23 17 15 29 05
  20905640.263   -21599089.047 9 -16801521.18148  20905640.652    20905647.8214
  21840962.385   -14081273.123 8 -10700890.80947  21840963.488    21840970.1264
  20733529.175   -22092945.600 9 -17207213.48848  20733531.063    20733538.5524
  23922293.815    -3970878.839 8  -3083670.66945  23922294.968    23922307.4714
  22166028.605   -12106766.015 8  -9156209.66846  22166028.160    22166035.5394
  21078922.332   -19810800.292 9 -15416343.21747  21078924.774    21078931.8974
  23266717.269    -7316281.718 8  -5691588.17346  23266720.017    23266729.6254
 00  4 20  3 38  0.0000000  0  7 21 09 23 17 15 29 05
  20894864.230   -21655715.245 9 -16845645.58248  20894865.231    20894872.6864
  21855781.623   -14003395.081 8 -10640206.61047  21855783.099    21855789.6844
  20737403.820   -22072583.422 9 -17191346.82748  20737405.761    20737413.4044
  23945341.787    -3849738.998 8  -2989276.13745  23945348.346    23945359.5304
  22155401.360   -12162585.772 8  -9199705.53646  22155406.138    22155414.2624
  21072313.732   -19845546.342 9 -15443418.15947  21072313.329    21072319.9334
  23254619.513    -7379838.531 8  -5741112.85546  23254624.728    23254635.3544
 00  4 20  3 38 30.0000000  0  7 21 09 23 17 15 29 05
  20884145.408   -21712039.793 9 -16889534.67048  20884146.369    20884154.1614
  21870671.341   -13925129.730 8 -10579220.64347  21870676.815    21870683.7784
  20741349.745   -22051835.411 9 -17175179.59148  20741354.087    20741361.7404
  23968411.890    -3728534.925 8  -2894831.55445  23968412.363    23968424.2684
  22144885.552   -12217854.172 8  -9242771.78346  22144888.984    22144898.1464
  21065743.197   -19880056.365 9 -15470309.24147  21065746.127    21065752.7504
  23242588.107    -7443081.380 8  -5790392.88346  23242589.706    23242599.8824
 00  4 20  3 39  0.0000000  0  7 21 09 23 17 15 29 05
  20873485.679   -21768050.089 9 -16933179.23047  20873487.900    20873495.6094
  21885640.388   -13846478.908 8 -10517934.33647  21885643.388    21885650.5294
  20745367.631   -22030731.607 9 -17158735.07648  20745369.421    20745377.2834
  23991487.501    -3607264.655 8  -2800335.38745  23991489.720    23991502.1364
  22134474.282   -12272569.310 8  -9285406.89646  22134476.481    22134486.4584
  21059221.800   -19914324.451 9 -15497011.53247  21059224.484    21059231.4794
  23230616.864    -7506005.559 8  -5839424.61846  23230615.363    23230625.6684
 00  4 20  3 39 30.0000000  0  7 21 09 23 17 15 29 05
  20862888.942   -21823741.619 9 -16976575.37847  20862890.269    20862898.3374
  21900682.823   -13767434.158 9 -10456341.03447  21900685.496    21900691.8044
  20749451.438   -22009271.621 9 -17142013.04748  20749453.807    20749461.0334
  24014578.320    -3485926.671 8  -2705786.49845  24014579.322    24014591.7584
  22124168.552   -12326729.502 8  -9327609.56346  22124170.394    22124180.0654
  21052745.614   -19948365.611 9 -15523537.17147  21052747.086    21052754.2234
  23218702.545    -7568601.126 8  -5888200.26846  23218704.636    23218714.2514
 00  4 20  3 40  0.0000000  0  8 21 09 23 17 15 29 05 30
  20852353.126   -21879107.938 9 -17019718.06947  20852354.515    20852362.4534
  21915803.764   -13687978.124 8 -10394427.28147  21915804.690    21915811.9974
  20753604.616   -21987452.718 9 -17125011.34148  20753605.734    20753613.3044
  24037676.744    -3364517.302 8  -2611181.95145  24037683.239    24037694.0674
  22113970.733   -12380332.623 8  -9369378.21446  22113970.153    22113979.0884
  21046309.954   -19982181.758 9 -15549887.56947  21046312.316    21046319.0194
  23206864.671    -7630842.029 8  -5936699.59646  23206861.249    23206870.7094
  24473841.551      -53602.77617
 00  4 20  3 40 30.0000000  0  8 21 09 23 17 15 29 05 30
  20841874.302   -21934170.793 9 -17062624.23347  20841876.649    20841884.5704
  21931000.608   -13608118.312 8 -10332198.88747  21931002.025    21931009.2174
  20757824.529   -21965273.872 9 -17107729.17248  20757826.463    20757833.7114
  24060794.242    -3243042.253 8  -2516526.24045  24060799.892    24060810.6044
  22103871.908   -12433376.714 8  -9410711.23946  22103875.498    22103885.1804
  21039916.726   -20015774.394 9 -15576063.58647  21039919.624    21039926.1944
  23195085.178    -7692724.026 8  -5984919.20846  23195084.860    23195093.9384
  24455847.985
 00  4 20  3 41  0.0000000  0  7 21 09 23 17 15 29 05
  20831449.386   -21988953.214 9 -17105311.71347  20831451.903    20831459.2854
  21946269.300   -13527870.245 8 -10269667.94547  21946272.316    21946279.7614
  20762112.777   -21942735.817 9 -17090167.08748  20762115.271    20762122.5264
  24083910.440    -3121499.713 7  -2421817.91745  24083926.961    24083939.0294
  22093884.564   -12485859.976 8  -9451607.28646  22093889.036    22093898.0374
  21033565.869   -20049149.054 9 -15602069.70847  21033568.550    21033575.4324
  23183371.253    -7754266.366 8  -6032874.15246  23183372.895    23183382.1254
 00  4 20  3 41 30.0000000  0  7 21 09 23 17 15 29 05
  20821078.048   -22043454.558 9 -17147780.13948  20821080.823    20821088.0204
  21961620.522   -13447225.560 8 -10206827.97347  21961618.625    21961624.4844
  20766473.816   -21919827.177 9 -17072316.21348  20766474.205    20766482.1794
  24107069.612    -2999901.209 7  -2327065.95045  24107067.242    24107077.4364
  22084004.284   -12537780.161 8  -9492064.53946  22084008.530    22084017.1464
  21027254.512   -20082317.944 9 -15627915.49447  21027256.896    21027263.1014
  23171724.454    -7815473.846 8  -6080568.19746  23171725.037    23171735.1694
 00  4 20  3 42  0.0000000  0  8 21 09 23 17 15 29 05 30
  20810757.473   -22097687.155 9 -17190039.25948  20810760.538    20810767.7674
  21977038.145   -13366189.260 8 -10143682.83247  21977039.361    21977046.3834
  20770902.190   -21896542.027 9 -17054171.94947  20770905.066    20770913.0834
  24130221.733    -2878249.056 8  -2232272.23845  24130217.692    24130229.2954
  22074236.410   -12589135.595 8  -9532081.72746  22074236.805    22074243.8254
  21020981.346   -20115284.188 9 -15653603.42747  21020983.576    21020990.2274
  23160135.606    -7876357.310 8  -6128009.74046  23160139.206    23160149.5334
  24401940.816      -78661.19717
 00  4 20  3 42 30.0000000  0  8 21 09 23 17 15 29 05 30
  20800489.895   -22151642.512 9 -17232082.31348  20800493.140    20800500.4314
  21992528.065   -13284780.825 8 -10080247.72347  21992530.682    21992537.2094
  20775406.204   -21872871.704 9 -17035727.56447  20775409.595    20775417.2314
  24153362.171    -2756544.537 7  -2137437.71245  24153376.474    24153387.8014
  22064570.578   -12639924.651 8  -9571657.56846  22064571.620    22064580.2274
  21014745.451   -20148054.323 9 -15679138.56947  21014747.426    21014753.9664
  23148607.558    -7936929.684 8  -6175208.89046  23148613.432    23148623.0394
  24383974.838     -173108.641 7   -123310.69655  24383985.620    24383999.7564
 00  4 20  3 43  0.0000000  0  8 21 09 23 17 15 29 05 30
  20790281.573   -22205295.022 9 -17273889.55148  20790283.614    20790290.8064
  22008090.528   -13202992.816 8 -10016516.78147  22008094.830    22008101.3714
  20779988.379   -21848804.708 9 -17016974.07547  20779989.638    20779996.9744
  24176529.221    -2634780.066 7  -2042556.44145  24176546.602    24176558.5074
  22055011.816   -12690145.136 8  -9610790.37146  22055014.689    22055022.7834
  21008546.301   -20180637.287 9 -15704527.79247  21008546.850    21008554.3304
  23137148.414    -7997190.210 8  -6222165.01546  23137145.813    23137155.4364
  24365991.237     -267550.433 7   -196901.63045  24366014.605    24366027.4154
 00  4 20  3 43 30.0000000  0  8 21 09 23 17 15 29 05 30
  20780129.914   -22258644.239 9 -17315460.67948  20780131.574    20780139.1474
  22023727.633   -13120818.065 8  -9952484.55747  22023731.305    22023739.5084
  20784647.567   -21824329.666 9 -16997902.62447  20784647.025    20784654.7854
  24199723.267    -2512963.027 7  -1947634.26645  24199727.969    24199741.3044
  22045562.218   -12739795.197 8  -9649478.68746  22045565.933    22045575.6064
  21002379.210   -20213031.736 9 -15729770.29447  21002382.618    21002389.2364
  23125740.009    -8057118.696 8  -6268862.44146  23125742.150    23125751.9894
  24348038.696     -361979.445 7   -270482.55745  24348047.458    24348058.2914
 00  4 20  3 44  0.0000000  0  8 21 09 23 17 15 29 05 30
  20770032.011   -22311695.314 9 -17356799.10248  20770035.979    20770043.6224
  22039442.043   -13038269.909 8  -9888161.36747  22039440.488    22039447.7794
  20789379.627   -21799442.285 9 -16978509.87247  20789382.699    20789390.7684
  24222920.428    -2391092.391 7  -1852670.32045  24222923.230    24222932.9784
  22036224.159   -12788872.941 8  -9687721.03646  22036226.853    22036235.4734
  20996254.953   -20245222.579 9 -15754854.07847  20996256.888    20996263.8214
  23114394.430    -8116700.885 8  -6315289.97046  23114402.837    23114413.3504
  24330062.017     -456393.655 7   -344051.92845  24330079.116    24330091.8504
 00  4 20  3 44 30.0000000  0  8 21 09 23 17 15 29 05 30
  20759998.813   -22364432.512 9 -17397892.79647  20760000.578    20760007.6574
  22055214.400   -12955351.834 8  -9823549.90847  22055218.691    22055226.8514
  20794193.993   -21774151.297 9 -16958802.61847  20794195.831    20794203.5494
  24246121.975    -2269172.197 7  -1757667.77144  24246121.368    24246132.0494
  22026995.427   -12837376.681 8  -9725516.11446  22026996.641    22027005.9934
  20990170.298   -20277197.444 9 -15779769.43547  20990172.230    20990178.9214
  23103130.576    -8175919.656 8  -6361434.37046  23103134.725    23103144.2774
  24312132.571     -550790.439 7   -417607.71845  24312116.110    24312128.6094
 00  4 20  3 45  0.0000000  0  8 21 09 23 17 15 29 05 30
  20750022.376   -22416862.497 9 -17438747.39848  20750023.379    20750030.8274
  22071067.072   -12872052.532 8  -9758641.38047  22071069.772    22071077.8044
  20799077.927   -21748477.159 9 -16938796.82247  20799081.297    20799088.9444
  24269340.384    -2147203.196 7  -1662627.20145  24269332.828    24269343.5644
  22017874.362   -12885304.799 8  -9762862.69346  22017876.706    22017885.8254
  20984126.327   -20308946.438 9 -15804508.82947  20984130.370    20984137.3394
  23091937.388    -8234757.479 8  -6407281.91346  23091938.679    23091947.6104
  24294155.641     -645164.941 7   -491146.16545  24294158.158    24294169.1284
 00  4 20  3 45 30.0000000  0  8 21 09 23 17 15 29 05 30
  20740103.339   -22468979.945 9 -17479358.35048  20740105.670    20740112.1214
  22086992.286   -12788383.111 8  -9693444.47147  22086991.896    22086998.9304
  20804035.901   -21722430.972 9 -16918501.10747  20804037.604    20804045.1494
  24292545.163    -2025197.522 7  -1567558.02644  24292549.996    24292562.3284
  22008865.746   -12932655.588 8  -9799759.36846  22008867.168    22008874.5814
  20978132.573   -20340454.804 9 -15829060.64447  20978134.367    20978141.0924
  23080812.477    -8293201.331 8  -6452822.50246  23080816.681    23080826.3174
  24276195.569     -739517.490 7   -564667.48845  24276203.626    24276214.8634
 00  4 20  3 46  0.0000000  0  9 21 09 23 17 15 29 05 30 25
  20730250.364   -22520758.014 9 -17519705.03747  20730252.745    20730259.6404
  22102976.432   -12704348.783 8  -9627963.14647  22102983.639    22102991.2334
  20809061.850   -21696015.201 9 -16897917.40447  20809064.522    20809071.8924
  24315761.404    -1903155.279 7  -1472460.35044  24315770.355    24315786.3684
  21999965.607   -12979427.208 8  -9836204.76746  21999967.234    21999973.8144
  20972183.117   -20371720.328 9 -15853423.11747  20972184.615    20972191.1234
  23069771.809    -8351246.275 8  -6498052.23846  23069771.357    23069780.6874
  24258253.868     -833855.145 7   -638177.17945  24258251.027    24258263.2204
  24721596.657    -2934152.39217  -2271129.89355  24721608.143    24721619.9064
 00  4 20  3 46 30.0000000  0  9 21 09 23 17 15 29 05 30 25
  20720464.879   -22572173.715 9 -17559769.00348  20720468.709    20720475.2964
  22119045.014   -12619948.989 8  -9562197.13047  22119044.224    22119051.8254
  20814159.591   -21669231.940 9 -16877047.34147  20814161.361    20814168.6854
  24339010.882    -1781075.644 7  -1377333.56944  24339002.684    24339017.0724
  21991177.111   -13025618.063 8  -9872197.58247  21991176.423    21991185.1454
  20966277.717   -20402754.944 9 -15877606.02347  20966279.220    20966285.7074
  23058796.163    -8408902.462 8  -6542979.02046  23058799.127    23058809.5074
  24240299.990     -928174.176 8   -711672.43245  24240303.744    24240314.4794
  24701775.653    -3038351.896 7  -2352324.20645  24701781.134    24701790.7004
 00  4 20  3 47  0.0000000  0  9 21 09 23 17 15 29 05 30 25
  20710748.675   -22623233.883 9 -17599556.17448  20710752.276    20710759.2744
  22135165.342   -12535190.865 8  -9496151.86247  22135172.738    22135180.1134
  20819327.009   -21642066.444 9 -16855879.43547  20819330.477    20819338.3034
  24362231.039    -1658968.177 7  -1282185.12344  24362238.107    24362250.4754
  21982492.046   -13071226.489 8  -9907736.56546  21982497.025    21982504.9684
  20960413.137   -20433563.283 9 -15901612.19947  20960416.300    20960422.7054
  23047900.869    -8466181.530 8  -6587611.96546  23047899.855    23047908.8574
  24222357.221    -1022466.319 8   -785146.70145  24222359.353    24222370.6694
  24681981.064    -3142438.856 7  -2433430.83145  24681972.672    24681983.0684
 00  4 20  3 47 30.0000000  0  9 21 09 23 17 15 29 05 30 25
  20701103.037   -22673928.256 9 -17639058.26047  20701105.191    20701112.4164
  22151363.522   -12450089.081 8  -9429838.79447  22151367.571    22151375.3384
  20824576.253   -21614491.316 9 -16834392.32447  20824577.803    20824585.5424
  24385454.477    -1536839.536 7  -1187020.16144  24385484.231    24385494.1994
  21973928.734   -13116250.675 8  -9942820.33446  21973929.193    21973936.2894
  20954592.356   -20464152.171 9 -15925447.58847  20954595.073    20954602.5044
  23037064.128    -8523090.527 8  -6631956.53046  23037069.961    23037079.7104
  24204426.461    -1116724.299 8   -858594.37845  24204421.544    24204433.1124
  24662190.876    -3246409.909 7  -2514447.09645  24662187.753    24662198.5824
 00  4 20  3 48  0.0000000  0  9 21 09 23 17 15 29 05 30 25
  20691521.549   -22724271.317 9 -17678286.69847  20691525.224    20691532.5994
  22167623.616   -12364646.880 8  -9363260.46447  22167626.858    22167634.2204
  20829903.574   -21586499.509 9 -16812580.53047  20829904.917    20829912.2234
  24408742.372    -1414685.123 7  -1091835.05244  24408726.015    24408737.3604
  21965468.059   -13160689.057 8  -9977447.62546  21965472.937    21965481.0234
  20948811.081   -20494535.657 9 -15949123.13547  20948813.589    20948819.9814
  23026306.623    -8579634.659 8  -6676016.78346  23026309.958    23026319.1414
  24186497.761    -1210944.999 8   -932013.06945  24186493.971    24186502.1424
  24642406.104    -3350265.547 7  -2595373.48045  24642424.370    24642433.5894
 00  4 20  3 48 30.0000000  0  9 21 09 23 17 15 29 05 30 25
  20682007.367   -22774282.834 9 -17717256.87948  20682008.631    20682016.2994
  22183945.596   -12278880.435 8  -9296429.47947  22183947.491    22183954.7784
  20835308.850   -21558091.378 9 -16790444.36047  20835311.104    20835318.0104
  24431975.690    -1292503.225 7   -996628.61044  24431976.055    24431988.7904
  21957125.753   -13204539.799 8 -10011616.98046  21957127.945    21957136.1294
  20943069.233   -20524711.378 9 -15972636.56647  20943071.176    20943077.4534
  23015617.344    -8635829.725 8  -6719805.05446  23015616.107    23015624.8444
  24168566.169    -1305123.978 8  -1005399.17745  24168572.737    24168583.2014
  24622681.480    -3454035.343 7  -2676232.99345  24622677.399    24622687.8504
 00  4 20  3 49  0.0000000  0  9 21 09 23 17 15 29 05 30 25
  20672551.241   -22823971.400 9 -17755975.43548  20672553.172    20672560.8624
  22200325.078   -12192795.864 8  -9229350.61047  22200329.133    22200335.9634
  20840793.669   -21529265.141 9 -16767982.37347  20840796.577    20840803.8434
  24455224.026                                    24455230.072    24455241.1534
  21948892.830   -13247801.529 8 -10045327.37447  21948896.394    21948903.5854
  20937367.531   -20554667.750 9 -15995979.21447  20937371.020    20937376.9234
  23004989.047    -8691660.724 8  -6763309.63846  23004992.498    23005000.6254
  24150657.105    -1399263.774 8  -1078754.74545  24150657.178    24150668.5894
  24602950.233    -3557713.824 7  -2757021.33245  24602946.865    24602959.1814
 00  4 20  3 49 30.0000000  0  8 21 09 23 15 29 05 30 25
  20663158.571   -22873330.851 9 -17794437.23148  20663160.771    20663167.7814
  22216769.594   -12106383.254 8  -9162016.12146  22216772.432    22216779.6824
  20846358.025   -21500038.229 9 -16745208.18647  20846358.072    20846365.8144
  21940773.829   -13290472.729 8 -10078577.61047  21940775.828    21940783.3314
  20931713.402   -20584390.488 9 -16019139.73947  20931714.818    20931721.0314
  22994435.415    -8747113.075 8  -6806519.14746  22994439.631    22994448.7364
  24132753.343    -1493369.286 8  -1152083.59445  24132748.469    24132761.2514
  24583225.711    -3661293.583 7  -2837732.69245  24583237.474    24583249.2514
 00  4 20  3 50  0.0000000  0  8 21 09 23 15 29 05 30 25
  20653826.077   -22922367.867 9 -17832647.70648  20653829.098    20653836.5824
  22233278.932   -12019633.947 8  -9094419.28346  22233280.985    22233287.0184
  20851988.155   -21470431.512 9 -16722138.03647  20851991.821    20851999.8214
  21932766.907   -13332552.120 8 -10111366.69046  21932768.221    21932776.3104
  20926101.332   -20613873.129 9 -16042113.35147  20926103.929    20926110.8924
  22983956.628    -8802177.009 8  -6849426.00946  22983960.060    22983970.2984
  24114846.464    -1587442.322 8  -1225387.14445  24114847.179    24114858.8724
  24563557.120    -3764778.666 8  -2918370.32645  24563546.090    24563557.0314
 00  4 20  3 50 30.0000000  0  8 21 09 23 15 29 05 30 25
  20644557.236   -22971077.194 9 -17870603.02248  20644559.705    20644567.1164
  22249850.210   -11932543.177 8  -9026556.36546  22249853.520    22249860.3204
  20857695.548   -21440454.118 9 -16698779.05547  20857696.566    20857704.2604
  21924870.362   -13374038.015 8 -10143693.33447  21924874.050    21924883.1014
  20920538.907   -20643111.707 9 -16064896.72247  20920540.300    20920546.8414
  22973552.551    -8856845.883 8  -6892025.02746  22973557.937    22973567.9984
  24096955.453    -1681467.620 8  -1298653.46846  24096955.562    24096966.4614
  24543869.866    -3868146.609 8  -2998916.67145  24543874.808    24543886.4884
 00  4 20  3 51  0.0000000  0  8 21 09 23 15 29 05 30 25
  20635352.136   -23019458.321 9 -17908302.51948  20635352.620    20635360.6184
  22266494.552   -11845087.740 8  -8958409.30246  22266495.566    22266502.9744
  20863470.438   -21410103.775 9 -16675129.44847  20863472.329    20863479.5864
  21917091.297   -13414928.738 8 -10175556.18946  21917091.667    21917101.4184
  20915018.022   -20672122.580 9 -16087502.62347  20915019.866    20915026.3624
  22963233.650    -8911092.806 8  -6934295.25946  22963234.970    22963245.0444
  24079074.524    -1775432.649 8  -1371872.81746  24079074.375    24079084.3834
  24524227.558    -3971377.297 8  -3079356.11045  24524231.348    24524242.2164
 00  4 20  3 51 30.0000000  0  8 21 09 23 15 29 05 30 25
  20626207.070   -23067510.068 9 -17945745.42648  20626208.799    20626216.6214
  22283200.075   -11757266.614 8  -8889977.31046  22283207.399    22283214.3734
  20869317.525   -21379375.951 9 -16651185.70947  20869319.525    20869327.0444
  21909421.705   -13455222.798 8 -10206954.11746  21909423.207    21909433.9544
  20909536.005   -20700934.176 9 -16109953.28447  20909537.345    20909543.8444
  22952986.588    -8964925.952 8  -6976243.07146  22952991.101    22953000.3014
  24061206.259    -1869315.979 8  -1445028.51245  24061208.258    24061220.3484
  24504612.284    -4074485.868 8  -3159700.39545  24504610.817    24504621.1754
 00  4 20  3 52  0.0000000  0  8 21 09 23 15 29 05 30 25
  20617122.788   -23115230.839 9 -17982930.42948  20617127.875    20617135.6774
  22299986.365   -11669091.473 8  -8821269.39446  22299987.181    22299994.3874
  20875238.663   -21348263.856 9 -16626942.56147  20875239.767    20875247.5454
  21901868.608   -13494918.865 8 -10237886.10847  21901870.365    21901879.6414
  20904085.221   -20729579.324 9 -16132274.19247  20904086.641    20904093.4224
  22942820.518    -9018361.864 8  -7017881.37046  22942822.045    22942830.4624
  24043351.733    -1963113.412 8  -1518117.30445  24043359.477    24043371.0894
  24485001.250    -4177477.604 8  -3239953.60945  24485011.576    24485021.3034
 00  4 20  3 52 30.0000000  0  8 21 09 23 15 29 05 30 25
  20608111.552   -23162607.341 9 -18019847.27648  20608112.508    20608120.7194
  22316824.363   -11580574.069 8  -8752294.78246  22316830.654    22316838.1524
  20881235.308   -21316753.488 9 -16602389.05247  20881236.096    20881243.6854
  21894428.259   -13534015.295 8 -10268350.79047  21894429.855    21894438.9424
  20898665.761   -20758061.144 9 -16154467.92947  20898666.456    20898672.9724
  22932725.295    -9071411.731 8  -7059218.83246  22932726.785    22932735.2854
  24025530.806    -2056826.517 8  -1591140.36045  24025527.254    24025537.6624
  24465434.875    -4280350.533 8  -3320114.22845  24465435.771    24465445.3504
 00  4 20  3 53  0.0000000  0  8 21 09 23 15 29 05 30 25
  20599163.734   -23209627.076 9 -18056486.25848  20599165.646    20599173.1134
  22333740.130   -11491724.071 8  -8683061.02946  22333738.214    22333746.1414
  20887306.157   -21284832.629 9 -16577515.67847  20887310.150    20887317.8994
  21887104.273   -13572510.849 8 -10298347.26447  21887105.062    21887113.9124
  20893277.247   -20786370.264 9 -16176526.92347  20893278.998    20893286.2714
  22922701.839    -9124080.755 8  -7100259.55446  22922704.552    22922713.8664
  24007706.924    -2150469.199 8  -1664108.55545  24007706.965    24007717.0244
  24445872.992    -4383125.825 7  -3400198.79145  24445877.302    24445887.5934
 00  4 20  3 53 30.0000000  0  8 21 09 23 15 29 05 30 25
  20590286.492   -23256279.768 9 -18092839.03848  20590288.433    20590295.4114
  22350701.228   -11402565.497 8  -8613586.90446  22350704.825    22350712.5344
  20893458.672   -21252516.427 9 -16552334.21947  20893459.574    20893467.2154
  21879894.804   -13610404.190 8 -10327874.52147  21879894.889    21879902.8684
  20887928.457   -20814480.894 9 -16198431.16247  20887929.808    20887937.1954
  22912751.936    -9176386.169 8  -7141016.94646  22912750.798    22912760.0664
  23989896.510    -2244061.057 8  -1737037.15445  23989896.385    23989907.6164
  24426325.070    -4485799.606 7  -3480204.24745  24426338.836    24426350.2274
 00  4 20  3 54  0.0000000  0  8 21 09 23 15 29 05 30 25
  20581476.897   -23302567.154 9 -18128906.97648  20581479.904    20581487.3054
  22367727.830   -11313100.695 8  -8543874.07746  22367729.830    22367735.5504
  20899679.601   -21219811.810 9 -16526850.12447  20899683.650    20899691.1124
  21872793.695   -13647693.822 8 -10356931.35347  21872797.958    21872806.5864
  20882621.431   -20842363.144 9 -16220157.52147  20882624.256    20882631.0424
  22902862.345    -9228318.769 8  -7181483.82046  22902867.830    22902877.2724
  23972087.636    -2337627.877 8  -1809946.20545  23972090.329    23972102.3254
  24406825.115    -4588360.344 8  -3560121.59545  24406822.270    24406833.9824
 00  4 20  3 54 30.0000000  0  8 21 09 23 15 29 05 30 25
  20572740.233   -23348487.177 9 -18164688.93948  20572741.672    20572749.1154
  22384812.534   -11223332.366 8  -8473924.72746  22384811.876    22384819.3914
  20905981.035   -21186707.880 9 -16501054.88647  20905982.923    20905990.7734
  21865815.308   -13684378.637 8 -10385516.89547  21865817.214    21865826.3554
  20877363.433   -20869994.787 9 -16241688.46747  20877366.157    20877372.1164
  22893065.171    -9279849.470 8  -7221637.53746  22893062.839    22893071.3064
  23954281.583    -2431157.788 8  -1882826.53246  23954293.024    23954304.7714
  24387325.250    -4690805.589 7  -3639948.97045  24387327.754    24387338.1454
 00  4 20  3 55  0.0000000  0  8 21 09 23 15 29 05 30 25
  20564068.872   -23394051.733 9 -18200193.86148  20564071.126    20564078.1174
  22401947.636   -11133262.581 8  -8403740.47346  22401951.618    22401958.9154
  20912353.633   -21153215.376 9 -16474956.86347  20912355.638    20912364.1404
  21858949.073   -13720457.070 8 -10413629.96547  21858951.956    21858961.6384
  20872150.798   -20897387.188 9 -16263033.17048  20872153.050    20872159.9194
  22883334.359    -9330959.794 8  -7261463.67546  22883336.948    22883345.2944
  23936515.220    -2524637.057 8  -1955667.38346  23936504.681    23936516.0144
  24367859.337    -4793130.100 7  -3719682.25045  24367856.570    24367866.1594
 00  4 20  3 55 30.0000000  0  8 21 09 23 15 29 05 30 25
  20555463.503   -23439268.438 9 -18235427.60048  20555466.441    20555473.5634
  22419145.663   -11042890.017 8  -8333320.33346  22419149.400    22419157.0784
  20918800.668   -21119334.492 9 -16448556.19547  20918803.432    20918811.5044
  21852200.285   -13755927.953 8 -10441269.59947  21852202.133    21852210.4254
  20866979.347   -20924555.117 9 -16284203.15047  20866983.573    20866989.8454
  22873694.396    -9381634.663 8  -7300950.50946  22873693.393    22873702.5384
  23918731.141    -2618058.165 8  -2028462.94146  23918727.010    23918738.2654
  24348401.375    -4895317.618 7  -3799308.74945  24348409.744    24348420.5294
 00  4 20  3 56  0.0000000  0  8 21 09 23 15 29 05 30 25
  20546926.021   -23484136.509 9 -18270389.64748  20546928.016    20546935.4244
  22436397.254   -10952207.022 8  -8262658.23746  22436404.064    22436412.6234
  20925328.876   -21085038.634 9 -16421832.18747  20925330.234    20925337.8164
  21845563.934   -13790790.088 8 -10468434.89447  21845568.221    21845576.8494
  20861849.360   -20951518.423 9 -16305213.59247  20861852.757    20861859.0194
  22864132.829    -9431864.703 8  -7340090.73146  22864134.092    22864143.0714
  23900965.084    -2711393.684 8  -2101191.77346  23900965.686    23900976.9054
  24328976.748    -4997364.126 7  -3878825.37245  24328990.352    24329002.3644
 00  4 20  3 56 30.0000000  0  8 21 09 23 15 29 05 30 25
  20538454.195   -23528650.202 9 -18305075.41548  20538456.901    20538464.4344
  22453713.426   -10861221.734 8  -8191760.65446  22453718.371    22453726.9024
  20931932.877   -21050326.833 9 -16394784.06647  20931935.871    20931943.3654
  21839050.342   -13825042.076 8 -10495124.71646  21839049.954    21839057.7174
  20856755.371   -20978292.903 9 -16326076.57148  20856757.586    20856763.8594
  22854655.440    -9481656.531 8  -7378889.47146  22854659.213    22854669.2534
  23883216.281    -2804617.604 8  -2173833.64446  23883226.042    23883236.8244
  24309607.965    -5099259.661 8  -3958224.31745  24309601.493    24309611.8434
 00  4 20  3 57  0.0000000  0  8 21 09 23 15 29 05 30 25
  20530051.739   -23572812.321 9 -18339487.34848  20530053.630    20530060.6794
  22471083.152   -10769937.758 8  -8120630.29446  22471088.525    22471097.4044
  20938613.837   -21015215.032 9 -16367424.26147  20938617.224    20938624.8714
  21832647.281   -13858682.863 8 -10521338.30647  21832648.474    21832656.3244
  20851694.477   -21004885.512 9 -16346798.18348  20851697.077    20851703.6924
  22845262.327    -9531028.308 8  -7417360.90246  22845264.135    22845273.2154
  23865506.541    -2897736.410 8  -2246393.64146  23865506.108    23865516.5764
  24290236.384    -5200997.412 8  -4037500.35145  24290241.158    24290252.0354
 00  4 20  3 57 30.0000000  0  8 21 09 23 15 29 05 30 25
  20521719.366   -23616604.672 9 -18373611.22748  20521720.200    20521727.0384
  22488514.076   -10678344.764 8  -8049259.12846  22488519.320    22488526.4204
  20945376.076   -20979694.516 9 -16339745.95347  20945376.412    20945384.1294
  21826359.547   -13891711.284 8 -10547074.75647  21826362.951    21826371.3764
  20846672.207   -21031282.194 9 -16367367.14347  20846673.875    20846680.5894
  22835947.327    -9579993.486 8  -7455515.51446  22835947.492    22835956.1084
  23847804.204    -2990753.683 8  -2318874.50746  23847805.640    23847816.0654
  24270914.829    -5302576.413 8  -4116652.71445  24270911.833    24270920.6894
 00  4 20  3 58  0.0000000  0  8 21 09 23 15 29 05 30 25
  20513455.483   -23660016.431 9 -18407438.64348  20513458.829    20513465.9524
  22506001.673   -10586450.668 8  -7977653.30746  22506005.472    22506014.0724
  20952210.612   -20943774.845 9 -16311756.62347  20952211.856    20952219.7114
  21820193.771   -13924125.986 8 -10572332.98647  21820195.257    21820202.5834
  20841691.102   -21057468.131 9 -16387771.63348  20841691.169    20841697.3234
  22826704.892    -9628555.789 8  -7493356.19646  22826705.849    22826714.9824
  23830126.889    -3083652.666 8  -2391263.20046  23830127.021    23830137.1024
  24251608.024    -5404010.679 8  -4195692.31345  24251608.610    24251618.3264
 00  4 20  3 58 30.0000000  0  8 21 09 23 15 29 05 30 25
  20505267.780   -23703043.310 9 -18440966.25848  20505271.450    20505278.5924
  22523547.414   -10494266.031 8  -7905821.13746  22523547.470    22523555.5684
  20959114.852   -20907476.933 9 -16283472.56047  20959118.789    20959126.5384
  21814142.439   -13955925.824 8 -10597112.06547  21814143.997    21814151.8914
  20836742.840   -21083439.745 9 -16408009.07547  20836748.552    20836755.2694
  22817540.798    -9676706.289 8  -7530875.97646  22817541.729    22817551.5594
  23812471.579    -3176435.762 8  -2463561.60146  23812470.540    23812481.4444
  24232325.306    -5505317.605 8  -4274632.64145  24232330.606    24232340.0964
 00  4 20  3 59  0.0000000  0  8 21 09 23 15 29 05 30 25
  20497159.016   -23745672.420 9 -18474183.86348  20497159.979    20497166.9374
  22541142.006   -10401782.843 8  -7833756.29946  22541146.475    22541155.5424
  20966096.865   -20870797.271 9 -16254891.04647  20966098.808    20966106.3164
  21808203.832   -13987109.932 8 -10621411.35547  21808209.404    21808216.9954
  20831846.598   -21109185.036 9 -16428070.29648  20831849.348    20831855.7784
  22808459.554    -9724425.319 8  -7568059.54246  22808461.389    22808471.4084
  23794829.181    -3269115.888 8  -2535779.76546  23794834.730    23794845.3184
  24213074.245    -5606509.283 7  -4353483.08845  24213072.423    24213085.1024
 00  4 20  3 59 30.0000000  0  8 21 09 23 15 29 05 30 25
  20489121.282   -23787897.102 9 -18507086.24748  20489124.310    20489131.6534
  22558800.441   -10308998.369 8  -7761456.74746  22558803.239    22558811.7324
  20973150.367   -20833732.421 9 -16226009.37147  20973152.315    20973159.6834
  21802393.040   -14017677.277 8 -10645230.05847  21802392.768    21802400.9414
  20826991.455   -21134701.859 9 -16447953.49148  20826993.909    20827000.4724
  22799459.752    -9771701.179 8  -7604897.79046  22799465.713    22799474.3914
  23777218.547    -3361685.449 8  -2607911.76846  23777219.136    23777229.4674
  24193831.851    -5707591.495 7  -4432248.21645  24193837.507    24193849.6794
 00  4 20  4  0  0.0000000  0  8 21 09 23 15 29 05 30 25
  20481163.208   -23829730.152 9 -18539683.56548  20481163.828    20481171.4554
  22576509.028   -10215922.763 8  -7688930.30646  22576514.303    22576522.6404
  20980273.673   -20796289.665 9 -16196833.21447  20980277.103    20980285.2354
  21796688.481   -14047626.683 8 -10668567.26247  21796693.261    21796701.8964
  20822174.665   -21160002.387 9 -16467668.19748  20822178.752    20822185.8024
  22790544.722    -9818523.757 8  -7641382.83046  22790553.790    22790564.7764
  23759622.167    -3454138.393 8  -2679952.89946  23759625.317    23759635.0714
  24174620.068    -5808566.887 8  -4510930.19045  24174622.699    24174634.7904
 00  4 20  4  0 30.0000000  0  8 21 09 23 15 29 05 30 25
  20473274.107   -23871174.135 9 -18571977.65948  20473277.580    20473284.6464
  22594279.490   -10122550.518 8  -7616172.74346  22594283.538    22594291.7104
  20987473.518   -20758460.108 9 -16167355.66647  20987475.689    20987483.9914
  21791109.545   -14076957.147 8 -10691422.17146  21791112.114    21791120.1464
  20817403.166   -21185092.169 9 -16487218.64848  20817405.209    20817411.4184
  22781726.168    -9864893.925 8  -7677515.35646  22781730.750    22781740.0324
  23742052.219    -3546484.945 8  -2751911.12146  23742051.609    23742062.4984
  24155425.519    -5909421.154 8  -4589517.73145  24155431.629    24155442.3114
 00  4 20  4  1  0.0000000  0  8 21 09 23 15 29 05 30 25
  20465463.283   -23912233.478 9 -18603971.91648  20465464.095    20465471.4174
  22612107.386   -10028873.282 8  -7543177.48046  22612110.331    22612117.0464
  20994747.966   -20720231.070 9 -16137566.82147  20994750.500    20994758.5304
  21785645.264   -14105667.731 8 -10713793.99747  21785649.256    21785656.8174
  20812670.699   -21209962.563 9 -16506598.25648  20812672.345    20812679.2084
  22772995.255    -9910817.976 8  -7713300.25446  22772992.563    22773001.8794
  23724489.269    -3638725.999 8  -2823787.17646  23724499.580    23724510.0984
  24136264.664    -6010141.434 8  -4668000.91845  24136264.497    24136275.1354
 00  4 20  4  1 30.0000000  0  8 21 09 23 15 29 05 30 25
  20457718.090   -23952928.117 9 -18635681.98148  20457720.155    20457727.4444
  22629984.822    -9934914.339 8  -7469962.69246  22629989.499    22629996.5274
  21002101.761   -20681588.034 9 -16107455.38647  21002104.310    21002111.4204
  21780302.685   -14133757.490 8 -10735682.08647  21780303.862    21780311.4264
  20807979.128   -21234616.773 9 -16525809.34048  20807980.724    20807987.2444
  22764338.911    -9956309.122 8  -7748747.80946  22764336.165    22764345.3914
  23706965.925    -3730848.128 8  -2895570.54146  23706969.790    23706979.4614
  24117124.132    -6110718.327 8  -4746372.39845  24117126.234    24117136.1674
 00  4 20  4  2  0.0000000  0  8 21 09 23 15 29 05 30 25
  20450042.116   -23993257.021 9 -18667107.03048  20450045.631    20450053.2724
  22647918.629    -9840689.586 8  -7396540.84346  22647919.737    22647928.0144
  21009535.809   -20642516.523 9 -16077010.07847  21009539.328    21009546.7264
  21775071.002   -14161225.284 8 -10757085.53247  21775075.934    21775083.6744
  20803331.522   -21259045.299 9 -16544844.68648  20803332.479    20803338.6514
  22755756.392   -10001363.528 8  -7783855.03846  22755761.541    22755771.6054
  23689461.185    -3822843.639 8  -2967255.23846  23689462.585    23689473.4394
  24098015.115    -6211148.445 7  -4824629.47645  24098013.197    24098023.7454
 00  4 20  4  2 30.0000000  0  8 21 09 23 15 29 05 30 25
  20442440.920   -24033212.757 9 -18698241.30448  20442442.383    20442450.4354
  22665898.409    -9746215.375 8  -7322924.59446  22665898.003    22665905.7404
  21017053.614   -20603007.951 9 -16046224.19647  21017057.323    21017065.2514
  21769965.920   -14188070.319 8 -10778003.69747  21769968.273    21769974.5784
  20798725.159   -21283240.716 9 -16563698.30048  20798728.325    20798734.2894
  22747271.187   -10045968.980 8  -7818612.45846  22747273.822    22747283.2794
  23671975.753    -3914715.024 8  -3038843.16746  23671979.284    23671990.1474
  24078939.460    -6311427.547 7  -4902768.87545  24078929.840    24078942.7454
 00  4 20  4  3  0.0000000  0  8 21 09 23 15 29 05 30 25
  20434910.034   -24072784.646 9 -18729076.57848  20434912.337    20434919.8994
  22683918.229    -9651499.753 8  -7249120.25346  22683921.923    22683930.0944
  21024655.917   -20563068.323 9 -16015102.42447  21024657.993    21024665.5254
  21764978.005   -14214291.636 8 -10798435.85047  21764978.583    21764985.8734
  20794161.771   -21307209.372 9 -16582375.13848  20794166.647    20794173.2044
  22738872.723   -10090114.641 8  -7853011.59446  22738873.941    22738882.5994
  23654519.392    -4006455.621 8  -3110329.22246  23654522.676    23654532.9424
  24059864.058    -6411553.100 7  -4980788.67845  24059876.266    24059888.7804
 00  4 20  4  3 30.0000000  0  8 21 09 23 15 29 05 30 25
  20427455.381   -24111959.538 9 -18759602.53248  20427457.411    20427464.9834
  22701989.109    -9556547.160 8  -7175131.24146  22701991.020    22701998.0514
  21032336.602   -20522712.538 9 -15983656.39047  21032337.428    21032344.7414
  21760103.951   -14239888.508 8 -10818381.45247  21760107.345    21760114.5144
  20789642.453   -21330967.313 9 -16600887.80348  20789645.457    20789652.4434
  22730555.376   -10133790.516 8  -7887044.66246  22730562.265    22730570.5374
  23637086.136    -4098063.505 8  -3181711.85146  23637089.377    23637100.4704
  24040853.816    -6511514.956 8  -5058680.86346  24040855.151    24040866.3224
 00  4 20  4  4  0.0000000  0  8 21 09 23 15 29 05 30 25
  20420079.975   -24150710.175 9 -18789797.79748  20420083.193    20420090.9784
  22720099.134    -9461342.645 8  -7100945.84046  22720107.615    22720114.3734
  21040089.686   -20481965.672 9 -15951905.62547  21040091.350    21040098.6574
  21755353.508   -14264859.961 8 -10837839.69747  21755355.102    21755363.8084
  20785161.063   -21354530.415 9 -16619248.90748  20785162.017    20785168.5574
  22722338.302   -10176991.070 8  -7920707.34246  22722340.906    22722349.7644
  23619680.714    -4189546.192 8  -3252996.94346  23619680.483    23619691.3064
  24021863.309    -6611306.018 8  -5136439.98646  24021867.110    24021876.8454
 00  4 20  4  4 30.0000000  0  8 21 09 23 15 29 05 30 25
  20412788.355   -24189033.885 9 -18819660.43548  20412790.572    20412798.1264
  22738271.473    -9365883.122 8  -7026561.80846  22738272.688    22738280.0094
  21047914.540   -20440842.275 9 -15919861.46147  21047917.344    21047924.5484
  21750722.150   -14289205.341 8 -10856810.13047  21750722.984    21750730.0454
  20780710.724   -21377913.876 9 -16637469.73448  20780712.616    20780719.3964
  22714205.581   -10219716.500 8  -7953999.79646  22714210.416    22714218.5744
  23602291.251    -4280911.485 8  -3324190.52246  23602295.189    23602305.0454
  24002906.200    -6710915.659 8  -5214057.73046  24002911.818    24002922.6514
 00  4 20  4  5  0.0000000  0  8 21 09 23 15 29 05 30 25
  20405576.449   -24226927.677 9 -18849188.02748  20405579.700    20405587.2044
  22756489.682    -9270150.154 8  -6951964.70646  22756489.929    22756496.8314
  21055809.468   -20399353.884 9 -15887532.87047  21055812.080    21055819.7764
  21746204.696   -14312923.750 8 -10875292.00047  21746209.172    21746216.6944
  20776293.936   -21401119.789 9 -16655552.14748  20776296.519    20776302.7814
  22706170.166   -10261972.058 8  -7986926.13046  22706169.254    22706177.9374
  23584933.313    -4372147.378 8  -3395283.28846  23584932.460    23584943.1114
  23983989.854    -6810327.612 8  -5291521.45745  23983993.669    23984004.2354
 00  4 20  4  5 30.0000000  0  8 21 09 23 15 29 05 30 25
  20398444.606   -24264403.942 9 -18878390.19448  20398448.023    20398455.4114
  22774754.389    -9174148.737 8  -6877158.40546  22774758.802    22774766.2844
  21063775.858   -20357490.659 9 -15854912.21947  21063778.063    21063786.2164
  21741814.728   -14336014.446 8 -10893284.72747  21741815.297    21741822.4064
  20771912.770   -21424144.841 9 -16673493.68248  20771914.808    20771921.2384
  22698210.059   -10303767.078 8  -8019493.58946  22698216.085    22698223.9974
  23567592.307    -4463245.689 8  -3466268.84346  23567596.236    23567607.6724
  23965113.494    -6909544.397 8  -5368833.13545  23965112.562    23965122.0154
 00  4 20  4  6  0.0000000  0  8 21 09 23 15 29 05 30 25
  20391393.135   -24301472.560 9 -18907274.65948  20391393.877    20391401.7404
  22793073.770    -9077891.688 8  -6802152.93146  22793076.116    22793083.0764
  21071817.600   -20315232.885 9 -15821984.10647  21071819.705    21071827.4324
  21737537.797   -14358476.571 8 -10910787.66847  21737540.331    21737548.4914
  20767566.860   -21446976.078 9 -16691284.24148  20767570.228    20767576.3894
  22690349.643   -10345101.247 8  -8051701.95146  22690350.918    22690359.4574
  23550289.421    -4554194.190 8  -3537137.64346  23550289.569    23550300.3614
  23946264.785    -7008581.566 8  -5446004.82845  23946267.141    23946275.6804
 00  4 20  4  6 30.0000000  0  8 21 09 23 15 29 05 30 25
  20384412.845   -24338139.946 9 -18935846.61748  20384416.256    20384423.8624
  22811437.182    -8981383.431 8  -6726951.70746  22811440.517    22811447.3974
  21079935.594   -20272567.481 9 -15788738.35947  21079938.816    21079946.4814
  21733385.486   -14380309.670 8 -10927800.45147  21733386.498    21733392.8604
  20763261.364   -21469605.429 9 -16708917.56548  20763264.043    20763270.5024
  22682575.725   -10385967.828 8  -8083545.95146  22682573.964    22682582.1144
  23533016.985    -4644977.436 8  -3607877.70646  23533015.237    23533025.3374
  23927447.039    -7107450.267 8  -5523045.28545  23927452.097    23927460.7894
 00  4 20  4  7  0.0000000  0  8 21 09 23 15 29 05 30 25
  20377513.992   -24374405.645 9 -18964105.60348  20377515.172    20377522.4664
  22829847.867    -8884623.811 8  -6651554.63246  22829852.688    22829861.1034
  21088134.165   -20229482.704 9 -15755165.87047  21088137.046    21088145.0924
  21729350.365   -14401512.984 8 -10944322.46347  21729351.543    21729358.1624
  20758993.438   -21492030.990 9 -16726391.99748  20758996.456    20759003.3414
  22674878.733   -10426378.956 8  -8115035.06746  22674883.497    22674891.9104
  23515765.978    -4735585.168 8  -3678480.96446  23515772.981    23515782.3544
  23908664.198    -7206163.457 8  -5599964.53045  23908667.919    23908677.8484
